GFSSE_sfc_temp_000.txt.gz
Temp
92 88 83 84 84 84 85 84 84 83 83 83 82 83 83 83 83 83 83 84 84 84 84 84 84 84 84 84 84 84 83 83 83 83 83 83 83 83 83 83 85 84 82
93 89 83 83 84 85 85 85 84 83 83 83 83 83 83 83 83 83 83 83 84 84 85 84 84 85 84 84 83 83 83 83 83 84 84 84 84 83 82 83 84 83 82
93 89 87 83 84 84 85 85 84 83 83 83 83 83 83 83 83 84 84 84 84 84 84 84 84 84 84 84 84 83 83 83 83 84 84 84 83 83 84 83 83 82 82
95 91 88 82 84 84 84 85 84 84 83 83 83 83 83 83 83 84 83 83 84 84 84 84 84 84 84 84 84 83 82 83 83 83 82 87 87 83 83 83 83 82 82
95 94 85 83 84 84 84 84 84 84 83 83 83 83 83 83 83 84 84 84 84 84 84 84 84 84 84 84 83 83 82 83 83 84 82 82 82 84 83 82 83 82 82
96 93 84 84 84 84 84 84 84 84 83 83 83 83 83 83 84 84 84 84 83 84 83 84 83 84 84 83 83 83 82 82 83 84 82 83 82 83 83 83 83 82 82
91 89 86 84 84 83 83 84 84 84 84 83 83 83 84 83 84 84 84 84 83 84 84 83 83 85 84 84 83 83 82 83 84 83 83 82 80 82 83 83 82 82 82
93 90 87 84 84 83 83 84 83 84 84 84 84 84 84 83 84 84 84 84 83 84 84 83 83 83 83 83 83 82 82 82 85 84 84 81 80 82 83 82 82 82 82
95 88 87 87 85 84 84 84 83 84 84 84 84 84 83 84 84 84 83 83 83 83 83 83 83 83 83 83 83 82 82 83 82 83 87 82 80 82 83 82 82 82 81
92 91 87 86 86 85 84 83 83 83 84 84 84 84 84 84 84 84 83 82 83 83 83 83 83 82 83 83 82 82 83 84 84 85 84 82 81 83 83 82 82 81 81
90 88 87 86 84 85 83 83 83 84 84 84 84 84 84 84 84 85 84 84 84 84 84 84 83 82 82 82 83 83 83 83 85 83 83 80 81 82 83 82 81 81 81
88 88 89 88 84 85 84 80 81 82 82 80 80 82 83 84 82 85 85 84 84 84 83 83 82 82 82 82 82 83 82 85 85 80 78 80 81 82 82 81 81 81 81
87 87 86 87 86 86 80 81 81 80 80 79 78 79 79 81 82 83 80 78 80 83 82 82 81 82 82 79 79 82 82 81 82 83 83 81 81 82 82 81 81 81 81
87 89 87 87 85 82 79 73 78 82 82 81 80 80 78 78 79 81 80 79 80 79 80 80 78 80 81 80 79 81 82 81 81 78 78 81 81 82 82 82 81 81 81
89 89 88 85 84 82 75 73 75 78 82 83 82 80 80 78 78 81 79 78 79 79 80 77 78 78 78 79 80 78 82 81 82 78 75 81 80 81 82 82 82 81 81
89 88 88 87 87 85 84 80 78 81 77 76 79 82 80 80 80 79 79 76 77 78 77 78 77 76 76 78 78 79 79 79 79 80 77 79 80 80 81 82 82 81 81
89 88 87 86 87 85 84 84 83 85 84 78 80 82 81 79 79 77 76 79 80 78 78 77 78 77 77 78 78 79 80 81 80 78 78 78 80 80 81 81 81 81 80
89 86 86 89 86 85 84 84 84 84 84 82 82 83 81 80 79 78 77 79 80 80 77 76 75 74 76 76 76 77 77 78 81 80 78 76 77 81 80 80 80 80 80
89 86 86 87 86 84 84 83 83 84 84 83 83 82 81 81 81 76 79 79 79 77 78 76 74 74 74 75 77 77 77 77 79 85 82 78 78 78 76 79 80 79 80
89 87 85 85 86 84 83 83 82 83 83 84 83 82 79 80 80 78 78 78 77 77 75 76 74 75 74 74 77 76 75 77 79 78 78 82 78 79 77 75 74 76 79
88 86 85 83 83 80 79 77 75 74 75 80 82 83 81 79 80 77 79 76 76 75 74 75 75 74 74 76 73 73 73 76 77 78 76 78 78 78 77 74 74 73 74
86 85 83 83 82 80 79 77 77 78 76 76 79 78 78 78 78 78 76 78 76 73 75 75 74 73 74 74 71 71 67 72 78 79 76 78 76 76 76 75 73 73 73
83 85 84 82 82 81 79 78 77 76 73 70 70 73 76 78 77 77 77 75 75 76 73 74 74 72 71 73 73 70 66 67 71 74 76 75 75 75 74 74 74 74 74
85 83 82 83 82 81 81 76 76 72 68 69 71 73 72 75 78 77 76 76 75 76 73 76 74 71 71 70 72 73 72 74 68 67 73 74 75 74 74 73 74 76 75
91 86 83 82 81 81 81 78 75 72 71 72 71 73 74 74 77 77 76 76 75 75 75 75 75 72 71 70 70 71 71 72 73 71 68 70 72 75 75 73 75 74 76
84 88 85 82 80 82 81 77 75 74 72 71 72 73 72 73 74 75 76 75 75 75 74 73 75 73 72 71 70 69 69 69 71 70 68 70 69 73 76 77 77 76 77

GFSSE_sfc_temp_003.txt.gz
Temp
79 81 83 83 84 84 84 83 83 83 83 82 82 83 83 83 83 83 83 83 84 84 84 84 84 84 84 84 83 84 84 83 83 84 83 83 83 83 83 83 83 83 82
82 82 82 83 84 84 84 83 83 83 83 82 82 83 83 83 83 83 83 84 84 84 84 84 84 84 84 83 83 83 83 83 83 84 84 84 84 82 83 84 83 82 82
82 82 83 83 84 84 84 84 83 83 83 83 82 83 83 83 83 84 83 83 84 84 84 84 84 84 84 84 84 83 83 83 83 83 84 80 81 84 84 83 83 82 82
83 82 82 82 84 84 84 84 83 83 83 83 83 83 83 83 83 84 84 84 84 84 84 84 84 84 84 84 82 82 83 83 83 84 79 81 84 83 83 83 82 82 82
83 81 82 83 84 84 84 84 83 83 83 83 83 83 83 83 84 84 84 84 84 84 84 84 84 84 84 83 82 83 82 82 82 84 79 78 78 83 82 83 83 82 82
82 83 83 83 84 84 84 84 83 83 83 83 83 83 84 84 84 84 84 84 84 84 84 84 84 84 84 83 82 82 82 82 84 80 79 80 77 82 83 83 83 82 81
81 82 82 83 83 84 84 84 83 83 83 83 83 84 84 84 84 84 84 84 84 84 84 84 84 84 84 83 83 82 82 82 81 79 77 78 77 82 83 83 82 82 81
82 81 82 83 83 83 84 84 84 84 84 84 84 84 84 83 83 83 84 84 83 84 84 83 83 84 84 83 82 82 82 83 83 81 79 77 79 81 83 82 82 82 81
84 82 81 81 83 84 83 83 83 84 84 84 83 83 83 83 84 83 83 83 83 83 83 83 83 83 83 83 82 82 82 82 79 78 81 79 80 82 82 82 82 81 81
81 81 80 79 79 78 79 83 83 83 84 84 84 84 84 84 84 84 82 82 83 83 83 83 83 83 82 82 82 82 82 83 79 79 77 78 80 83 83 82 82 81 81
81 81 80 79 78 78 78 81 82 83 84 84 84 84 82 77 79 81 81 83 84 84 84 84 82 82 82 82 83 82 83 77 77 76 78 79 81 82 83 82 81 81 81
79 77 81 79 78 77 81 77 77 78 77 76 76 78 77 77 76 80 82 84 84 84 84 83 83 82 81 78 78 81 77 77 77 77 75 80 81 82 82 81 81 81 81
81 80 78 78 79 76 75 75 75 74 73 73 74 75 76 76 76 75 75 77 76 81 79 79 79 78 76 76 75 76 75 76 74 77 81 81 81 82 82 81 81 81 81
80 81 79 80 76 75 73 71 72 74 74 72 73 74 73 72 73 73 74 74 75 75 75 75 75 75 76 76 76 76 76 75 74 75 77 81 80 81 82 81 81 81 81
79 80 79 78 75 73 71 68 66 71 73 73 73 75 73 72 71 73 72 73 74 74 74 74 73 73 75 75 76 76 76 75 77 74 74 81 81 81 82 82 81 81 81
80 79 79 77 75 73 70 69 67 70 73 74 73 74 74 72 72 72 72 72 73 73 73 73 73 73 72 74 75 76 76 75 77 73 74 74 80 80 81 81 81 81 81
79 81 79 77 77 75 73 70 70 73 73 71 70 73 74 73 72 72 71 71 72 73 73 73 74 73 73 74 74 75 75 74 76 76 75 74 77 81 80 81 81 81 81
79 78 79 83 78 76 75 76 76 75 73 72 71 72 74 73 73 72 71 71 72 72 72 72 72 72 72 72 72 73 75 75 76 73 76 75 74 78 79 80 80 80 80
80 78 78 77 78 76 76 74 73 75 75 73 73 73 73 74 75 72 71 71 72 72 71 72 70 71 71 72 72 72 73 73 75 78 75 75 74 75 75 79 80 79 80
80 79 78 77 77 76 75 74 73 73 74 76 73 72 75 73 74 71 71 71 71 70 70 71 70 70 71 72 74 73 72 73 74 73 73 76 74 75 75 75 77 77 80
80 77 76 76 75 73 73 70 70 69 70 69 70 75 73 72 73 71 70 71 70 70 70 70 70 69 70 72 70 69 71 73 73 73 72 73 74 75 74 74 74 74 75
77 77 75 75 74 74 73 71 70 70 70 70 70 72 73 74 73 70 70 70 70 70 69 70 70 68 70 70 66 67 64 67 72 72 72 72 72 73 74 75 73 73 73
77 77 75 74 74 73 74 71 70 68 67 68 68 69 72 73 72 70 70 70 70 70 69 70 70 68 67 70 71 67 63 62 67 70 70 71 72 70 72 73 73 73 72
77 78 76 75 74 74 74 71 69 67 65 66 67 67 69 72 72 72 70 70 70 69 69 70 70 68 68 67 68 71 69 68 64 63 68 70 71 71 71 70 72 73 73
79 76 73 75 73 73 73 72 69 67 67 67 67 67 67 68 70 72 71 70 70 69 70 69 68 67 67 67 66 67 68 68 68 65 63 65 69 70 70 71 72 72 73
76 73 72 73 72 73 71 71 70 68 67 66 66 66 66 67 68 70 71 70 69 70 69 70 69 68 68 67 67 68 66 66 65 65 63 64 65 68 71 70 70 71 73

GFSSE_sfc_temp_009.txt.gz
Temp
77 80 82 83 83 83 83 83 83 83 83 82 82 82 83 83 83 83 83 83 83 84 84 84 84 84 84 83 83 83 83 83 83 83 83 83 82 82 83 82 82 81 82
80 81 82 83 83 83 83 83 82 82 82 82 82 83 83 83 83 83 83 83 84 84 84 84 84 84 84 84 83 84 83 83 83 84 84 83 83 83 82 82 83 82 82
79 81 82 82 83 83 83 82 82 82 83 83 82 83 83 83 83 83 83 84 84 84 84 84 84 84 84 84 83 83 83 83 83 83 83 76 78 83 83 82 82 83 82
80 80 81 82 83 83 82 82 82 83 83 83 83 83 83 83 83 84 84 84 84 84 84 84 84 84 84 83 83 83 83 83 83 83 77 78 81 83 83 82 82 82 81
79 79 80 82 83 83 83 82 82 83 83 83 83 83 83 83 83 84 84 84 84 84 84 84 83 82 84 83 83 83 83 82 82 80 75 75 75 82 83 82 82 81 81
79 80 82 83 84 83 83 82 83 83 83 83 83 83 83 83 83 84 84 84 84 84 84 84 83 83 83 83 82 82 82 83 82 76 75 77 75 82 82 82 82 81 81
78 80 82 83 84 83 83 83 83 83 83 83 83 83 83 83 83 83 84 83 84 84 83 83 83 84 82 83 82 82 82 83 77 75 75 75 75 82 82 82 82 81 81
79 79 80 83 83 83 83 83 83 83 83 83 83 83 83 83 83 83 83 83 83 83 83 83 84 84 83 83 82 82 82 83 80 76 75 74 78 81 83 82 81 81 81
80 78 78 79 82 84 83 83 83 83 83 83 83 83 83 83 83 83 83 83 82 83 83 82 82 83 83 82 82 82 83 83 75 75 77 74 79 81 82 81 81 81 80
77 77 77 77 78 78 80 83 83 83 83 84 83 83 83 83 83 83 82 82 83 83 82 82 82 81 82 82 82 82 82 84 75 76 75 74 80 82 82 82 81 81 81
76 77 76 76 76 76 77 80 82 83 84 84 83 84 82 77 78 80 80 82 83 83 83 83 82 82 81 82 82 82 82 74 74 73 74 79 80 82 82 81 81 80 80
73 75 76 76 75 75 79 77 77 77 77 76 77 77 76 75 74 78 80 83 83 83 83 83 82 82 81 75 74 80 74 74 74 73 73 80 80 81 82 81 80 80 80
74 75 75 74 73 75 75 75 74 73 74 74 74 74 74 74 75 75 74 75 74 81 77 79 78 77 75 73 73 72 73 73 72 74 77 80 80 81 82 81 80 80 81
74 75 74 75 73 74 74 72 72 71 72 71 72 73 73 72 72 73 73 73 73 73 73 73 74 74 74 74 74 73 73 72 71 73 75 80 80 81 82 81 80 80 80
73 74 74 75 74 73 73 72 72 72 71 71 71 72 72 71 71 71 71 72 72 72 72 72 72 72 73 73 74 73 72 73 73 72 73 80 80 80 81 82 81 81 81
75 75 74 74 74 72 71 71 71 71 71 71 71 71 71 71 70 70 70 70 71 71 71 71 71 71 71 72 73 73 71 73 73 72 72 73 80 80 81 81 81 81 81
76 75 74 74 73 71 70 69 68 68 70 70 71 71 71 70 70 70 69 70 70 70 71 71 71 71 70 71 71 73 72 73 73 73 72 72 75 80 80 80 80 80 81
74 75 75 78 73 71 69 68 68 67 67 70 70 70 71 70 69 69 68 69 70 70 70 69 69 69 69 69 70 71 72 72 73 73 73 73 73 75 78 80 80 80 80
75 74 74 73 72 71 70 69 68 68 69 70 70 69 69 71 71 70 69 69 70 69 69 69 68 69 68 69 69 70 70 70 71 73 72 73 73 73 73 78 80 79 80
76 75 75 73 72 72 71 70 70 69 70 69 70 70 70 70 71 70 70 70 69 68 68 68 68 68 68 68 70 70 70 70 71 71 72 74 73 73 73 72 74 76 79
73 72 71 72 72 71 69 68 67 67 67 68 68 70 69 70 71 70 69 68 68 68 68 68 67 66 67 68 65 66 67 69 70 70 71 73 72 73 72 73 73 74 76
69 71 68 66 67 70 69 68 68 67 67 67 67 68 70 70 70 70 68 68 68 68 67 68 67 66 66 67 64 63 62 65 67 69 70 71 71 72 72 73 72 73 73
68 67 64 65 67 70 70 68 67 67 66 65 65 66 68 69 69 69 69 68 68 68 67 67 68 66 65 66 67 64 60 60 63 67 69 70 70 70 71 72 72 72 72
68 67 66 66 65 70 70 68 67 65 64 64 64 65 66 68 68 69 68 68 67 67 67 68 68 67 65 64 66 66 66 64 61 61 65 68 69 70 70 70 71 72 72
70 70 69 68 67 70 70 68 66 65 64 65 64 64 65 66 67 68 68 67 67 67 67 67 67 66 66 65 66 64 64 65 64 62 60 63 66 68 70 70 70 70 71
68 68 70 70 69 69 68 67 66 64 63 63 63 63 64 64 65 66 68 67 67 67 67 67 67 67 66 66 65 64 65 64 63 62 61 62 62 67 70 69 70 70 70

GFSSE_sfc_temp_012.txt.gz
Temp
76 79 83 83 83 83 83 83 83 83 83 83 83 83 83 83 83 83 83 83 83 83 84 84 83 83 84 83 84 82 83 83 83 83 83 83 82 82 82 82 83 83 81
79 80 82 83 83 83 83 83 83 83 83 83 83 83 83 83 83 83 83 83 84 84 84 84 84 83 84 84 83 83 83 83 83 84 84 83 83 83 82 83 83 82 81
79 81 82 82 83 83 83 83 83 83 83 83 83 83 83 83 83 83 83 84 84 84 84 84 84 84 83 83 84 83 83 83 83 84 83 80 82 83 83 83 83 82 82
79 80 81 82 83 83 83 83 83 83 83 83 83 83 83 83 83 84 84 84 84 84 84 84 84 84 83 83 83 83 83 83 83 83 79 80 84 83 83 83 83 82 81
79 79 80 82 83 83 83 82 83 83 83 83 83 83 83 83 84 83 84 84 84 84 84 84 83 84 83 83 83 83 83 83 83 80 78 78 79 83 82 82 82 81 81
78 79 81 83 83 83 83 83 83 83 83 83 83 83 83 84 84 84 84 84 83 84 83 83 83 83 83 83 83 83 83 83 81 79 77 80 79 83 82 82 82 82 81
77 78 80 83 83 83 83 83 83 83 83 83 83 83 83 83 83 84 84 83 84 83 83 83 83 83 83 83 83 82 82 83 78 77 78 78 79 81 82 82 82 81 81
77 78 79 83 83 83 83 83 82 83 83 83 83 83 83 83 83 83 83 83 83 83 83 83 83 84 83 83 82 82 82 83 81 78 78 77 78 81 83 82 81 81 81
78 78 78 79 82 84 83 83 83 83 83 83 83 83 83 83 83 83 83 83 83 83 83 82 82 83 83 82 81 82 82 83 79 78 78 77 79 81 83 81 81 81 81
77 77 77 77 79 79 80 83 83 83 83 84 83 83 83 83 83 83 82 82 83 83 83 83 83 83 82 82 82 83 83 81 79 78 78 78 79 82 82 81 81 81 80
75 75 75 75 76 76 77 80 82 84 84 84 83 84 83 79 80 81 81 81 83 83 83 83 83 83 82 82 82 82 83 77 78 77 78 78 80 82 82 81 81 81 81
72 75 75 75 75 76 78 77 77 78 78 78 78 78 77 77 76 79 80 82 83 83 83 83 83 82 82 77 78 81 76 77 77 76 77 79 80 82 82 81 81 81 81
73 76 75 75 75 75 76 75 76 75 76 76 76 76 76 75 76 77 76 77 77 80 78 81 80 78 77 75 75 75 75 76 75 76 78 79 80 82 82 81 81 81 80
72 74 74 74 73 74 74 74 74 73 73 73 72 73 74 73 74 75 74 75 75 75 75 76 76 76 76 76 76 75 75 75 74 75 77 80 80 81 82 81 81 81 81
72 73 74 74 73 74 73 73 73 72 72 72 72 72 73 73 73 74 74 74 74 74 74 74 74 75 75 75 75 75 75 75 75 75 75 81 80 80 81 81 81 81 81
74 73 74 74 73 73 72 72 72 72 72 72 72 73 73 72 72 72 72 72 72 73 74 74 74 73 73 74 75 75 75 75 75 75 75 76 80 80 81 81 81 81 81
74 75 74 74 73 73 72 72 72 72 72 72 72 72 72 72 71 70 71 72 72 72 73 73 73 73 73 73 73 74 74 74 75 75 75 75 77 80 81 81 81 80 81
74 73 74 77 74 72 71 71 70 70 69 70 71 72 73 72 71 71 70 71 72 72 72 71 72 71 72 72 72 73 74 74 74 74 75 76 75 79 79 80 80 80 80
73 72 72 73 72 71 71 69 69 69 67 68 70 71 71 72 72 70 70 71 72 71 71 71 71 71 70 71 71 72 72 73 73 75 75 75 75 75 77 78 79 79 80
71 70 69 69 69 71 70 70 69 69 69 69 70 71 71 70 71 71 71 70 71 71 70 70 70 70 71 71 72 72 72 72 72 73 74 76 75 75 75 76 77 78 80
71 71 70 69 67 67 70 69 69 69 69 69 70 70 71 71 71 70 69 70 70 70 70 70 70 70 69 70 69 67 69 71 72 73 74 75 74 75 74 75 76 76 78
69 69 70 70 68 67 69 70 69 69 68 68 68 68 69 70 70 71 70 69 68 69 69 69 69 68 68 69 67 66 66 70 70 72 73 74 74 75 74 75 75 76 77
70 68 68 68 68 67 69 70 68 68 68 66 66 67 68 69 69 69 70 69 68 69 68 69 70 69 67 68 69 66 63 64 66 70 71 72 73 72 73 75 75 75 76
70 70 69 68 67 67 70 69 68 67 65 66 66 66 67 69 69 70 69 69 69 68 69 70 70 69 69 67 68 68 68 68 65 66 69 71 72 72 73 74 74 75 75
69 68 67 67 67 68 70 69 67 67 66 66 65 66 66 67 68 69 70 69 68 68 69 69 69 69 69 68 68 67 68 68 68 66 65 68 70 73 74 74 74 74 76
68 69 69 68 68 69 69 69 67 66 65 64 65 65 65 66 67 67 69 69 69 68 69 69 70 69 69 69 68 68 68 67 67 66 65 66 68 71 74 74 74 74 74

GFSSE_sfc_temp_015.txt.gz
Temp
86 89 83 84 84 84 84 83 83 83 83 83 83 83 83 83 83 83 83 83 83 83 84 83 84 84 84 84 84 83 83 83 83 83 83 83 82 82 82 82 83 88 82
89 89 82 83 84 84 83 83 83 83 83 83 83 83 83 83 83 83 83 84 84 83 84 84 84 83 84 83 84 84 84 83 83 84 84 84 83 83 83 83 84 85 82
89 90 88 82 83 83 83 83 83 83 83 83 83 83 83 83 83 83 83 84 84 84 84 84 84 84 84 83 83 84 83 83 84 84 84 89 88 83 83 83 82 82 82
90 90 90 82 83 83 83 83 83 83 83 83 83 83 83 83 84 84 84 84 84 84 84 84 84 84 84 83 83 84 83 83 84 83 88 89 90 83 83 83 82 82 81
88 90 89 83 83 83 83 82 83 83 83 83 83 83 83 84 84 84 84 84 84 84 84 84 84 84 83 83 83 83 83 83 83 85 86 87 89 85 83 83 82 82 82
88 90 85 83 83 83 83 82 83 83 83 83 83 84 84 84 84 84 84 83 84 84 84 84 84 84 83 83 83 83 83 82 82 87 86 86 87 82 82 83 83 82 81
86 89 88 83 83 83 83 83 82 83 83 83 83 84 84 84 84 84 84 83 82 84 84 84 84 84 83 83 83 82 82 83 87 86 86 87 87 81 83 82 82 81 81
87 89 88 84 83 83 83 83 83 83 83 83 84 84 84 83 83 84 84 83 83 83 83 83 84 84 83 83 83 82 82 83 86 86 86 87 82 81 83 82 81 81 81
87 86 86 88 86 83 83 83 83 83 83 83 83 83 83 83 83 83 83 83 83 83 83 83 83 83 83 83 83 82 83 83 88 87 87 88 79 81 83 82 81 81 81
85 85 86 87 87 86 87 83 83 83 84 84 84 83 83 84 84 83 82 82 83 83 83 83 82 83 82 82 82 82 83 83 88 88 87 89 79 82 82 82 81 81 81
83 84 84 84 85 85 85 83 83 84 84 84 84 84 84 89 88 87 85 82 83 83 83 82 82 82 81 82 83 82 83 88 89 88 89 80 80 82 82 82 81 81 81
82 83 85 85 85 85 86 85 84 85 83 82 82 84 88 88 86 87 85 82 83 83 83 83 82 82 83 82 86 83 86 86 87 86 88 79 80 82 82 81 81 81 81
84 84 83 84 84 85 84 85 84 86 84 84 84 83 83 83 86 87 87 87 87 85 89 87 85 84 84 82 80 84 82 83 87 87 87 79 80 82 82 81 80 80 81
82 84 84 84 83 83 85 85 83 82 80 80 79 79 78 77 79 84 85 85 84 86 85 84 86 83 83 83 84 80 81 81 84 86 86 80 80 81 82 80 81 81 81
82 82 82 82 82 82 82 84 82 83 84 82 81 79 74 71 72 81 83 85 84 85 85 84 84 82 81 81 80 82 80 81 82 86 87 81 80 80 82 82 80 81 81
83 83 83 82 82 82 82 81 82 80 81 84 83 82 80 75 74 80 81 81 82 83 85 85 84 83 82 81 81 80 81 82 80 82 88 87 80 80 81 81 80 81 81
84 84 82 82 83 81 80 81 80 81 82 83 84 82 82 82 81 78 80 83 84 80 80 83 83 83 82 82 80 80 81 81 82 81 85 86 87 80 80 81 80 80 81
83 82 84 82 80 79 79 81 83 83 83 84 84 84 82 82 81 79 79 83 85 82 80 81 82 82 83 82 80 79 79 79 81 81 83 85 86 88 82 80 80 80 79
73 72 72 73 74 75 74 75 77 79 80 81 82 82 81 81 81 81 82 81 81 84 83 82 79 79 80 81 81 79 78 77 79 82 81 80 84 84 88 82 80 79 80
73 73 72 72 72 75 75 75 77 78 77 79 80 80 80 80 80 78 79 80 81 83 82 82 80 83 81 81 81 80 78 77 77 80 81 82 84 84 85 84 86 83 80
73 71 72 73 72 73 73 75 77 77 79 79 78 79 79 80 79 78 80 78 75 75 79 78 77 77 79 80 78 79 78 78 76 80 81 79 83 84 84 83 83 87 87
76 78 72 74 72 70 75 75 76 77 77 78 77 77 77 77 75 74 73 79 77 75 74 77 77 76 80 80 77 75 73 76 77 79 80 83 83 84 82 83 83 83 84
77 78 76 76 73 70 71 78 74 77 77 78 79 79 77 77 77 76 73 73 76 71 70 71 76 77 76 79 78 73 70 74 76 79 79 81 82 83 83 84 82 81 82
77 79 74 75 71 73 75 75 73 76 76 78 77 77 77 77 77 78 77 75 73 72 69 70 75 76 75 75 77 77 76 75 70 71 79 80 81 81 81 84 83 81 84
77 77 75 72 72 74 75 76 77 75 77 76 77 75 75 76 77 77 77 77 76 75 71 69 70 75 77 75 76 78 75 73 73 69 73 77 79 83 85 85 86 85 85
75 76 75 72 72 75 76 75 74 73 74 75 75 75 76 77 78 76 76 76 77 77 75 73 74 76 76 76 77 79 77 73 72 71 70 74 79 82 85 85 85 86 86

GFSSE_sfc_temp_018.txt.gz
Temp
96 95 83 84 84 84 84 84 84 84 83 83 83 83 83 83 83 83 83 83 84 84 84 84 85 85 84 84 84 84 83 83 83 83 83 83 82 82 83 84 84 90 82
99 96 83 84 84 84 84 83 83 83 83 83 83 83 83 83 83 84 84 83 83 84 84 84 84 85 84 84 84 84 84 84 84 84 84 84 83 83 83 83 86 86 82
99 97 91 83 83 84 83 83 83 83 84 83 83 83 83 83 83 84 84 83 83 84 84 84 84 85 84 84 83 83 84 83 84 84 84 92 88 83 83 82 83 82 82
99 98 95 82 83 83 83 83 83 84 83 83 83 83 83 84 84 84 84 84 84 84 84 84 84 84 84 83 83 83 84 84 84 84 91 95 94 83 83 83 83 82 82
97 99 93 83 83 83 83 83 83 83 83 83 83 84 84 84 84 84 84 84 84 84 84 84 85 84 84 83 83 83 83 84 83 85 93 94 86 85 83 82 82 82 82
97 100 85 83 84 83 83 83 83 83 83 83 84 84 84 84 84 84 84 84 84 84 84 84 85 84 84 83 83 83 83 83 83 94 92 89 91 83 83 83 83 82 81
96 98 91 83 83 83 83 83 83 83 83 83 84 84 84 84 84 84 84 84 84 84 84 84 85 84 83 83 83 83 83 83 92 93 92 92 86 82 83 83 83 82 81
96 97 93 84 83 83 83 83 83 83 83 84 84 84 84 84 84 84 84 84 84 84 84 84 84 84 83 83 83 82 82 83 91 93 92 93 81 82 83 82 82 82 81
96 95 93 91 87 84 84 84 83 84 84 84 84 84 84 84 84 83 84 83 83 84 84 84 84 84 84 83 83 83 83 83 93 93 94 94 80 82 83 82 82 82 81
94 94 93 91 91 90 90 83 83 83 84 84 84 84 84 84 84 84 83 83 83 83 83 84 83 83 83 83 82 83 83 83 90 95 93 95 81 82 83 82 82 81 81
91 93 91 92 89 89 90 88 84 84 84 84 84 84 85 93 93 91 88 83 83 83 84 84 84 83 82 83 83 82 83 92 89 91 96 81 81 82 82 82 81 81 80
89 91 93 89 88 88 89 88 89 90 92 92 86 88 88 94 94 93 89 83 83 84 84 83 83 83 83 83 84 84 88 91 91 90 92 80 80 82 82 81 81 81 81
91 92 92 91 89 90 92 86 89 85 86 86 87 87 87 86 86 94 94 92 90 84 93 89 88 90 85 86 85 84 89 88 91 95 90 80 80 82 82 81 81 81 81
91 92 92 90 88 90 86 86 89 90 88 84 80 80 82 85 82 83 85 85 84 93 87 90 90 88 88 86 87 84 84 85 91 93 92 81 80 81 83 81 81 81 81
89 90 90 90 89 89 87 86 86 92 92 92 88 84 79 76 78 76 80 82 82 88 92 89 91 90 88 85 84 85 87 84 82 87 92 83 80 80 81 82 81 81 81
91 89 90 88 88 88 88 87 84 87 91 91 92 91 87 84 75 70 70 79 79 85 93 92 87 91 89 89 86 85 86 85 85 85 91 92 81 80 80 82 81 81 81
89 91 89 88 89 88 86 88 87 90 92 93 92 89 88 85 84 82 79 71 76 84 86 87 87 89 90 90 88 86 87 86 88 86 88 91 92 81 81 81 79 77 79
88 86 81 83 86 86 86 86 87 91 92 92 92 91 88 87 86 86 87 79 80 82 84 90 89 84 85 90 88 88 87 86 86 84 87 90 92 93 82 81 80 78 77
88 82 80 79 80 86 84 84 86 85 87 92 92 91 87 87 88 87 85 89 88 87 85 86 88 87 84 86 89 89 88 85 83 84 85 84 86 91 92 81 80 79 79
86 81 78 76 76 80 86 84 85 85 83 90 90 90 88 88 87 87 87 86 85 88 90 90 87 90 88 87 87 89 88 88 82 81 85 84 80 86 91 89 78 81 79
82 81 80 79 72 79 81 83 83 81 83 90 89 87 86 87 86 85 85 85 84 83 86 86 83 80 80 84 82 86 88 88 82 82 84 83 83 86 89 87 77 77 79
81 84 81 76 70 74 80 86 85 84 88 84 89 85 86 85 84 82 83 82 82 76 80 81 81 77 80 82 81 84 81 86 88 84 85 86 87 85 85 86 82 84 86
83 84 84 80 75 72 73 84 84 83 84 87 88 87 87 84 83 83 82 81 81 79 77 79 78 78 78 83 81 82 79 78 81 85 84 86 86 82 84 85 85 84 87
86 84 82 82 78 78 77 82 81 85 83 85 85 86 83 83 83 83 82 82 78 78 79 81 82 79 75 75 77 84 83 81 71 73 84 84 87 83 83 84 88 88 89
86 83 82 81 81 81 81 82 86 83 86 86 85 82 81 83 83 83 82 82 78 77 79 81 77 72 72 75 74 79 80 81 78 75 73 72 82 89 90 90 92 93 91
85 84 83 79 79 81 82 81 80 78 79 82 81 82 85 86 85 82 81 80 78 78 78 79 79 72 71 74 75 78 79 79 79 73 70 74 73 85 92 93 92 93 94

GFSSE_sfc_temp_021.txt.gz
Temp
101 95 84 85 85 85 85 85 84 84 83 83 83 83 83 83 83 83 83 83 84 84 85 85 85 85 84 84 84 84 84 83 83 83 83 83 82 83 83 83 83 89 82
102 95 83 84 84 84 84 84 84 84 83 83 83 83 83 83 83 83 83 84 83 84 85 85 85 85 84 84 84 84 84 84 84 84 84 83 83 83 83 83 86 85 82
100 95 92 83 84 84 84 84 84 84 84 83 83 83 83 83 84 84 83 84 84 84 84 85 85 85 84 84 83 83 84 83 84 84 84 90 88 83 83 83 83 82 82
101 98 95 82 84 84 83 83 83 84 84 84 84 84 84 84 84 84 84 84 84 84 84 85 85 85 84 84 84 83 84 83 84 84 87 91 92 83 83 83 82 82 82
100 101 92 83 83 84 83 83 83 84 84 84 84 84 84 84 84 84 84 84 84 84 84 85 85 85 84 83 83 83 84 84 84 85 88 87 90 85 83 83 82 82 83
101 102 85 84 84 84 83 83 83 83 83 83 84 84 84 84 84 84 85 84 84 84 84 84 85 84 84 83 83 83 83 83 84 87 88 90 88 83 83 83 83 82 82
101 96 91 83 83 83 83 83 83 83 83 84 84 84 84 84 84 84 84 84 83 83 83 85 85 84 84 83 83 83 83 83 88 88 87 91 87 82 83 84 83 82 81
101 98 92 84 83 83 84 83 83 84 84 84 84 84 84 84 84 84 84 84 84 83 83 84 83 84 83 83 83 82 83 83 90 90 88 88 81 82 83 83 82 82 82
101 97 93 91 87 84 84 84 84 84 84 84 84 84 84 85 85 84 84 84 84 84 84 83 84 84 83 83 83 82 82 83 85 88 94 87 80 82 83 82 82 82 81
92 96 93 93 91 90 89 84 83 84 84 84 84 84 84 84 84 84 83 84 84 84 84 84 83 83 83 83 83 83 83 83 89 86 91 87 81 82 83 82 82 82 81
93 95 89 90 91 90 90 88 84 83 84 84 85 84 85 93 90 88 88 85 84 84 84 84 84 82 83 83 83 83 83 90 92 83 76 80 81 82 83 82 82 81 81
91 94 96 93 91 89 88 86 89 89 91 91 90 87 89 88 82 85 88 84 84 84 84 84 84 83 83 88 84 83 86 91 89 91 83 81 81 82 82 82 81 81 80
93 91 93 92 91 90 90 83 80 85 83 81 87 87 90 89 90 91 84 91 90 85 91 87 87 89 87 86 89 87 88 90 89 86 86 81 81 82 82 82 81 81 81
90 89 89 88 91 92 85 92 88 90 89 80 82 85 85 87 87 86 92 90 87 83 89 84 85 91 86 85 84 88 81 88 91 92 80 81 81 82 82 82 80 81 81
94 95 91 86 90 90 90 91 91 88 82 87 88 85 87 88 86 87 87 89 88 86 77 76 79 89 88 88 86 88 87 87 87 89 92 82 81 81 81 81 81 81 80
94 94 94 92 90 90 86 87 86 91 92 94 90 87 87 89 85 85 81 84 83 85 82 74 85 81 90 90 86 86 86 85 86 85 89 89 81 81 81 82 81 81 81
95 94 93 91 92 89 87 88 87 92 94 88 85 89 90 88 87 82 86 81 79 76 76 71 75 89 81 84 89 88 89 85 85 87 83 88 84 81 81 81 81 81 81
94 92 91 91 90 89 88 88 91 91 91 86 86 86 89 87 86 84 87 87 84 72 70 70 80 87 85 80 80 81 87 89 89 85 84 89 91 86 81 81 80 80 80
92 90 87 87 87 86 87 88 89 89 91 94 96 94 89 89 89 88 90 88 86 83 79 78 82 80 76 86 88 82 82 86 88 89 85 87 86 87 86 82 80 78 80
93 89 87 87 87 83 85 87 90 92 88 90 84 88 87 86 88 84 84 87 83 77 79 83 80 87 88 89 91 88 83 88 89 89 86 83 82 81 88 86 79 75 78
89 88 87 84 78 75 76 76 86 86 80 83 85 90 89 88 87 85 82 82 82 80 86 85 81 86 88 89 81 85 88 90 86 87 87 86 82 85 86 83 77 79 79
85 85 85 80 76 75 76 76 85 86 89 85 89 89 87 85 86 83 81 80 81 79 81 81 81 78 80 80 81 83 81 87 90 89 86 82 85 84 85 84 83 83 76
84 85 84 80 79 74 76 81 83 86 85 85 84 90 90 88 86 82 82 81 79 78 77 80 79 78 75 77 80 83 80 80 86 82 83 85 85 81 81 82 79 85 81
88 89 87 82 81 79 79 78 83 80 82 88 88 89 86 87 84 83 81 82 80 79 78 78 79 80 76 73 76 85 85 84 77 75 79 78 82 80 80 76 75 77 82
89 87 87 83 82 83 84 84 83 80 88 89 88 85 85 86 86 83 83 81 80 79 80 78 79 77 79 76 76 76 81 85 82 77 73 75 82 86 83 79 77 81 84
89 87 86 83 82 84 84 84 82 82 82 83 83 85 87 89 85 83 83 81 78 78 78 79 79 78 78 80 73 76 73 79 80 77 71 74 78 77 82 75 79 82 81

GFSSE_sfc_temp_024.txt.gz
Temp
89 87 84 84 85 85 84 84 84 83 83 83 83 83 83 83 83 83 83 84 84 84 85 85 85 85 84 84 84 84 83 83 83 83 83 83 83 83 83 82 84 83 82
91 89 84 84 84 84 84 84 84 83 83 83 83 83 83 83 84 84 84 83 84 84 84 84 85 85 84 84 84 84 83 83 83 84 84 84 84 83 83 84 84 82 82
92 89 88 84 84 84 84 84 84 83 83 83 83 83 83 83 84 84 84 84 84 84 84 84 84 85 83 84 83 84 84 83 83 84 84 84 82 82 83 83 82 82 82
93 91 89 83 84 84 83 84 84 84 84 83 83 83 84 84 84 84 84 84 84 84 84 84 85 84 84 83 83 84 83 83 83 83 82 87 87 83 83 82 82 82 82
94 94 85 83 84 84 83 83 84 84 84 84 84 84 84 84 84 84 84 84 84 84 84 84 85 84 84 83 83 83 83 83 84 82 77 79 81 83 83 82 82 82 82
96 91 84 84 84 84 83 83 83 83 83 84 84 84 84 84 84 84 84 84 84 84 84 84 85 84 84 83 83 83 83 83 84 84 82 83 81 83 83 84 83 82 81
91 88 86 83 84 83 83 83 83 83 83 84 84 84 84 84 84 84 84 84 84 84 84 84 84 84 84 83 83 83 83 83 84 84 84 82 81 82 83 83 82 82 82
91 90 86 84 83 83 84 83 83 84 84 84 84 84 84 84 84 84 84 84 84 84 83 84 84 84 83 83 83 82 82 83 86 82 84 82 80 82 83 82 82 81 81
89 89 87 86 85 84 84 84 84 84 84 84 84 84 84 84 84 85 84 84 84 84 84 83 84 84 83 83 83 82 82 83 82 81 86 81 80 82 83 82 82 81 81
92 90 88 86 86 85 84 84 84 84 84 84 84 84 84 85 85 85 84 83 84 84 84 84 83 84 83 83 82 82 82 83 84 81 79 81 81 82 83 82 82 81 81
91 91 89 87 86 84 84 84 83 84 84 84 84 84 84 85 84 86 85 83 84 84 84 84 84 83 82 83 82 82 83 82 85 81 75 79 81 82 83 82 81 81 81
88 85 89 90 88 86 85 80 83 85 85 83 84 84 83 82 82 87 85 84 85 84 84 84 83 82 82 83 82 82 82 84 85 78 75 78 81 82 82 81 81 81 81
89 85 85 88 87 86 82 81 80 82 82 78 82 81 83 82 81 86 79 83 82 84 84 84 83 83 83 82 82 81 82 82 84 84 80 79 81 82 82 81 81 81 81
88 90 88 86 85 85 82 85 84 81 79 77 76 79 79 80 81 81 83 79 80 79 79 78 75 79 82 82 83 82 82 82 83 83 80 79 81 82 81 81 81 81 81
89 89 87 88 84 84 81 76 78 75 70 70 72 80 82 82 81 84 83 81 81 81 73 71 70 70 73 79 79 81 83 82 83 82 78 82 81 81 81 82 81 81 81
91 87 88 87 87 87 84 86 82 73 70 71 70 83 82 83 82 82 80 81 80 81 76 73 72 70 70 71 79 81 82 82 82 82 83 80 81 81 81 82 82 81 81
92 92 88 88 88 85 84 84 84 81 74 72 70 81 82 83 82 81 80 78 79 79 74 69 71 68 68 68 78 78 82 82 82 81 81 81 79 81 81 81 81 81 81
91 89 89 91 88 84 82 83 84 85 87 88 86 81 83 83 83 81 80 79 82 78 72 70 69 68 68 69 72 77 76 79 80 80 80 81 79 84 81 81 81 80 81
90 88 86 88 88 84 82 82 83 87 86 85 86 85 84 85 85 80 82 80 81 79 74 74 72 70 70 73 76 73 75 77 80 83 80 79 81 79 79 81 80 80 81
88 88 85 85 86 83 74 74 78 82 86 82 83 78 74 81 84 81 81 79 78 79 79 77 75 75 74 75 82 82 79 80 80 80 80 81 79 80 79 77 78 78 80
88 83 84 83 81 77 72 70 72 77 81 81 75 72 70 71 82 81 79 77 77 76 78 77 75 71 69 71 72 77 79 80 79 81 80 80 80 81 80 77 76 75 76
86 85 83 81 79 78 72 73 74 76 82 82 82 78 75 79 82 82 78 76 76 74 74 76 75 71 72 75 73 72 69 76 81 82 81 80 79 80 81 79 76 75 74
84 84 82 79 78 78 76 75 75 76 76 77 77 78 81 85 84 82 80 78 76 75 73 74 74 73 70 72 76 71 67 66 74 76 76 76 77 76 78 78 77 76 75
84 86 82 80 78 79 79 78 79 74 73 77 81 79 83 84 84 83 80 79 76 75 74 74 74 74 73 70 73 75 74 73 68 67 72 74 76 76 76 75 76 76 76
87 87 84 80 79 80 79 80 78 77 76 82 82 81 81 79 82 82 79 79 77 75 75 74 74 73 73 71 71 70 70 73 73 69 68 71 74 77 77 74 76 76 76
86 86 84 79 79 81 82 82 82 81 80 79 79 78 80 78 78 77 80 77 77 75 75 74 75 74 72 72 72 71 69 68 69 69 68 70 72 75 74 73 73 73 73

GFSSE_sfc_temp_027.txt.gz
Temp
80 82 83 84 84 84 84 83 83 83 83 83 83 83 83 83 83 83 83 83 84 84 84 84 84 84 84 84 84 84 84 83 83 83 83 83 83 83 82 83 83 82 82
82 83 83 84 84 84 84 83 83 83 83 83 83 83 83 83 83 83 83 84 84 84 84 85 84 84 84 83 84 83 83 83 83 84 84 84 84 83 83 83 82 81 82
82 83 84 83 84 84 83 83 83 83 83 83 83 83 83 83 84 84 84 84 84 84 84 84 84 84 84 83 83 84 83 83 83 83 83 78 80 84 83 83 82 82 82
83 82 82 82 83 83 83 83 83 83 83 83 83 83 83 83 84 84 84 84 84 84 84 84 84 84 84 83 83 83 83 83 82 82 80 81 83 83 83 82 82 82 81
84 82 82 83 83 83 83 83 83 83 83 83 83 83 83 84 84 84 84 84 84 84 84 84 84 84 84 83 83 83 83 83 83 78 77 76 77 83 82 82 82 82 81
82 83 83 83 83 83 83 83 83 83 83 83 83 84 84 84 84 84 84 84 84 84 84 84 84 84 84 83 83 83 83 82 84 79 78 80 78 83 82 83 83 82 81
81 82 82 83 83 83 83 83 83 83 83 83 83 84 84 84 83 83 84 84 84 84 84 84 84 84 84 83 83 83 82 83 82 78 79 79 79 81 83 82 82 81 81
81 81 82 83 83 83 83 83 83 83 83 83 83 83 83 83 83 84 84 84 84 83 83 84 84 84 84 83 83 82 81 83 83 80 81 78 79 81 83 82 81 81 81
82 81 80 81 83 83 83 83 83 83 83 83 83 83 83 83 84 84 83 83 84 84 83 83 83 84 83 83 83 82 82 82 81 77 82 76 79 82 83 82 81 81 81
82 81 79 78 78 78 79 83 83 83 84 84 84 84 84 84 84 84 83 83 84 84 84 83 84 83 83 82 83 82 82 81 77 78 77 79 80 82 82 82 81 81 81
81 81 80 79 78 77 78 81 82 84 84 84 83 84 83 77 79 81 82 83 84 84 84 84 83 83 82 82 82 83 82 75 77 76 75 80 81 82 82 81 81 81 81
80 80 82 81 80 79 81 77 78 80 78 78 78 77 77 77 76 80 81 84 84 84 84 83 83 83 82 77 77 81 76 77 78 75 74 81 81 82 82 81 81 81 81
81 82 81 82 80 79 77 76 76 77 76 76 77 77 77 77 75 76 75 77 76 82 79 80 79 77 76 74 75 76 76 77 76 76 76 79 81 82 82 81 81 81 81
80 83 83 83 79 79 77 77 77 74 75 75 75 77 74 74 74 75 74 75 74 75 75 73 71 71 71 72 75 75 76 76 77 75 76 79 80 82 82 81 81 81 81
80 81 79 81 79 78 76 74 72 71 73 73 72 74 74 73 73 74 71 72 73 73 72 69 69 69 70 72 71 72 74 76 76 76 75 81 79 81 82 82 81 81 81
82 80 80 80 78 77 75 74 71 72 72 72 70 71 74 75 74 73 70 72 72 73 70 68 68 69 69 70 70 71 71 74 76 75 77 78 80 81 81 81 81 81 81
82 82 80 80 81 79 76 74 72 72 71 69 69 70 72 74 75 75 73 72 73 72 71 70 69 69 68 69 69 70 72 75 75 75 75 75 78 81 81 81 80 81 81
81 79 79 84 80 77 77 74 74 74 72 70 69 72 74 77 76 74 73 72 70 70 69 67 68 66 66 66 68 68 70 74 76 76 75 74 75 79 80 81 80 80 81
81 80 78 79 78 75 74 73 74 75 74 75 75 72 74 75 77 74 74 73 72 72 68 67 67 66 66 67 68 69 71 72 74 78 77 76 76 75 75 80 80 80 81
80 79 79 77 73 72 72 72 72 72 74 72 72 71 76 73 74 72 74 74 71 70 69 68 67 67 67 70 72 73 70 74 75 74 76 79 76 76 75 75 78 79 80
79 76 74 73 71 70 69 69 68 69 72 73 73 73 73 72 72 71 73 72 72 71 71 70 70 69 68 69 68 66 70 72 74 77 76 75 76 78 76 74 74 75 77
77 77 75 72 72 69 68 69 71 72 73 75 75 73 73 73 71 73 72 71 72 70 70 70 70 68 67 69 65 63 63 65 71 73 74 72 73 75 76 76 74 73 73
75 76 73 73 72 72 73 72 72 72 72 71 72 72 74 75 75 74 74 71 71 70 69 69 69 68 67 68 70 66 63 61 64 69 70 71 71 72 73 75 73 73 73
77 77 74 73 72 73 74 74 72 70 69 71 72 73 74 76 75 75 72 73 71 70 69 70 70 69 68 66 68 71 69 68 62 62 66 70 71 72 73 71 72 72 72
80 76 75 73 72 72 72 73 72 71 71 72 72 72 73 72 73 74 72 72 71 70 70 70 69 69 68 67 67 67 67 68 68 64 62 64 69 71 73 72 73 71 72
79 77 75 72 71 73 74 74 74 73 72 70 70 70 70 70 70 72 73 71 71 70 70 70 70 69 68 68 69 69 67 66 66 66 63 64 64 67 69 70 70 69 71

GFSSE_sfc_temp_030.txt.gz
Temp
78 81 83 83 84 83 84 83 83 83 83 83 83 83 83 83 83 83 83 83 84 84 84 84 83 84 83 83 84 84 83 83 83 83 83 83 82 82 82 82 82 81 82
80 82 83 83 84 84 83 83 83 83 83 83 83 83 83 83 83 83 83 84 84 84 84 84 84 84 83 83 84 83 83 83 83 83 84 84 83 82 82 82 82 81 82
81 82 83 83 83 83 83 83 83 83 83 83 83 83 83 83 83 83 83 84 84 84 83 84 84 84 83 83 83 83 83 83 83 83 83 77 79 83 83 82 82 82 82
81 80 82 82 83 83 83 83 83 83 83 83 83 83 83 83 83 84 84 84 84 84 84 84 84 84 84 83 83 83 83 83 83 83 77 79 83 83 83 82 82 81 81
80 80 81 83 83 83 83 83 83 83 83 83 83 83 83 83 83 84 84 84 84 84 84 84 84 84 84 83 83 83 82 82 83 82 76 75 76 82 82 82 82 81 81
80 81 82 83 83 83 83 83 83 83 83 83 83 83 83 83 84 84 84 83 84 84 84 84 84 84 83 83 83 81 82 82 81 77 76 78 76 82 82 82 82 81 81
79 81 81 83 83 83 83 83 83 83 83 83 83 83 83 83 83 83 83 83 83 84 83 84 84 84 82 82 83 82 82 83 79 77 76 77 77 81 82 82 81 81 81
79 80 81 83 83 83 83 83 83 83 83 83 83 83 83 83 83 83 83 83 83 83 83 83 83 84 83 82 83 82 81 83 82 79 77 77 79 81 82 82 81 81 81
80 79 79 80 82 83 83 83 83 83 83 83 83 83 83 83 83 83 83 83 83 83 83 83 83 83 83 82 82 81 81 83 77 76 80 75 79 81 82 81 81 81 81
79 78 77 76 77 77 79 83 83 83 83 83 83 83 83 83 84 84 82 82 83 83 83 83 83 83 82 82 82 82 81 82 77 76 76 78 80 82 82 81 81 81 81
77 77 76 76 75 76 77 80 82 83 84 84 83 84 82 76 78 80 81 82 83 83 83 83 83 82 82 82 82 82 82 75 76 75 74 79 80 82 82 82 81 81 81
75 75 77 76 76 76 79 77 77 78 77 76 77 77 75 75 76 79 81 84 83 84 84 83 83 81 81 76 75 80 75 75 76 75 73 79 80 82 82 81 81 80 81
77 77 77 77 76 75 77 75 75 75 75 75 76 75 75 76 75 75 75 76 75 80 77 79 78 77 76 74 74 74 74 74 74 75 75 79 80 81 82 81 81 80 81
77 78 78 78 77 76 75 75 76 75 75 75 74 74 74 73 72 74 74 74 74 73 74 74 73 72 72 73 74 73 73 74 74 74 75 80 81 81 82 81 81 81 81
77 79 78 78 76 75 75 73 73 72 73 74 73 75 74 71 72 72 73 72 73 74 72 69 70 71 70 71 72 72 73 74 73 74 73 80 80 81 81 82 81 81 81
80 78 77 76 75 75 74 72 70 69 71 72 70 71 74 72 72 72 69 69 70 71 70 69 68 68 68 69 71 71 72 72 74 74 75 74 80 80 81 82 81 81 81
79 79 78 75 75 74 72 72 72 70 71 70 70 71 70 71 72 73 70 70 70 70 70 69 68 68 67 68 68 69 70 72 74 75 74 74 76 81 81 81 81 80 81
78 78 77 82 74 74 73 73 74 73 71 70 70 69 71 72 74 73 71 70 71 70 69 68 68 67 65 65 66 68 70 71 73 74 74 74 74 78 80 80 81 80 81
79 77 76 76 73 73 72 72 73 74 72 72 70 70 72 74 76 74 73 72 71 70 68 68 67 65 65 65 66 67 69 70 73 76 75 74 75 75 75 79 79 80 81
78 76 74 72 73 71 71 71 72 71 71 72 71 71 73 70 74 71 72 71 70 70 68 67 66 65 66 67 71 71 70 71 71 71 74 78 76 74 74 74 75 79 80
76 74 72 70 69 70 67 67 68 69 70 72 71 72 72 70 72 70 70 71 71 69 69 68 66 66 66 67 67 66 67 70 70 72 73 75 74 72 73 73 72 72 75
75 72 70 69 68 68 67 67 68 70 71 73 71 71 72 73 72 71 71 71 71 69 68 68 68 66 67 68 65 63 61 65 69 71 72 71 73 72 73 74 73 72 72
74 71 70 69 69 70 69 71 71 71 71 69 70 71 73 74 74 72 71 69 69 69 68 68 68 67 65 66 68 64 61 60 63 66 69 70 71 70 71 72 72 73 72
73 73 71 70 70 71 71 71 71 69 68 69 70 70 70 72 72 72 71 70 70 69 68 68 69 67 66 64 67 69 68 67 63 62 65 67 70 70 70 70 71 72 72
75 73 71 70 70 71 71 71 69 70 70 70 69 69 69 69 71 72 71 70 69 69 69 68 68 67 66 66 65 65 66 66 66 64 62 64 67 69 70 69 71 71 70
74 73 72 70 70 71 71 71 71 70 69 68 67 67 67 68 68 69 71 70 69 69 68 68 68 68 67 66 66 67 67 65 64 65 63 64 63 65 67 68 68 69 69

GFSSE_sfc_temp_033.txt.gz
Temp
76 79 83 83 83 83 83 83 83 83 83 83 83 83 83 83 83 83 83 83 83 84 84 84 84 83 83 83 83 83 83 83 83 83 83 83 82 82 82 82 82 81 82
79 80 82 83 83 83 83 83 83 83 83 83 83 83 83 83 83 83 83 83 83 84 84 83 84 83 83 83 83 83 84 83 83 83 83 83 82 83 82 82 82 81 82
79 81 82 83 83 83 83 83 83 83 83 83 83 83 83 83 83 83 83 84 83 83 84 84 84 84 83 83 83 83 83 83 83 83 83 77 78 83 82 82 82 82 81
80 79 81 82 83 83 83 83 83 83 83 83 83 83 83 83 83 83 84 84 84 84 83 83 83 84 82 83 83 83 82 83 83 83 77 78 81 82 82 82 82 81 81
79 79 81 83 83 83 83 82 82 83 83 83 83 83 83 83 83 83 84 83 83 83 84 84 83 83 83 83 82 83 83 82 83 79 75 75 75 82 82 82 81 81 81
79 80 82 83 83 83 83 82 83 83 83 83 83 83 83 83 83 83 83 83 83 83 84 84 84 83 83 83 82 81 82 81 82 76 75 78 75 81 82 82 82 81 81
78 80 81 83 83 83 83 83 83 83 83 83 83 83 83 83 83 83 83 83 83 83 83 83 84 84 84 83 82 82 82 82 77 75 75 76 76 81 82 82 82 81 81
78 79 80 83 83 83 83 83 83 83 83 83 83 83 83 83 83 83 83 83 83 83 83 83 83 82 83 83 82 82 82 82 80 76 76 75 77 81 82 82 81 81 81
79 78 78 79 82 83 83 83 83 83 83 83 83 83 83 83 83 83 83 83 83 83 82 83 83 82 83 83 82 82 82 83 76 75 78 74 79 81 82 82 81 81 81
77 77 76 77 78 78 79 83 83 83 83 83 83 83 83 83 83 83 82 82 83 83 83 83 82 83 81 82 82 82 82 83 74 75 75 76 79 82 82 82 81 81 81
75 75 75 75 75 75 76 80 82 83 83 83 83 83 82 76 78 80 81 82 83 83 83 83 83 82 82 81 82 82 82 74 76 75 73 79 79 81 82 82 81 81 80
72 73 74 74 74 75 78 76 76 77 77 76 77 76 75 75 75 78 80 83 83 83 83 83 82 82 81 74 74 80 74 75 75 74 72 79 80 81 82 81 81 81 81
74 75 74 74 74 74 75 74 74 74 75 75 75 74 74 74 74 75 75 75 75 81 77 79 78 76 75 73 73 73 73 74 72 74 75 79 80 81 82 81 81 80 80
74 75 74 74 74 74 74 75 74 74 74 73 75 75 74 74 72 71 72 73 73 73 73 73 73 73 73 73 73 72 73 72 72 72 74 79 80 81 81 81 81 81 81
74 75 75 75 74 74 74 74 74 74 73 74 73 74 73 71 69 71 72 72 73 72 72 71 71 71 70 71 72 72 72 72 72 72 73 79 80 81 81 81 81 81 81
77 76 76 74 74 74 73 73 73 72 72 72 72 72 73 71 70 70 70 69 70 70 71 70 69 69 69 68 70 71 71 71 72 73 74 73 80 80 81 81 81 81 81
78 77 75 75 75 74 73 71 71 70 70 70 70 71 71 70 71 71 70 69 69 69 70 69 68 68 67 67 67 69 69 70 71 73 73 73 75 80 81 81 81 81 81
77 75 75 78 75 73 72 72 71 72 71 70 70 70 70 70 70 71 71 70 70 69 69 68 67 66 66 65 65 66 67 70 70 71 72 73 73 76 79 81 80 80 81
77 75 76 73 73 73 72 71 71 73 71 71 71 69 70 72 73 70 71 71 70 70 68 68 67 66 64 64 65 65 66 67 70 73 72 73 73 74 73 78 80 80 80
75 74 74 71 72 71 70 70 70 71 71 71 72 71 72 72 73 71 70 71 70 69 68 67 66 66 65 66 68 69 67 68 69 70 72 74 73 73 73 73 73 77 80
74 72 72 70 69 68 68 67 68 68 69 70 71 72 71 70 71 69 68 70 69 68 68 67 66 65 64 65 65 65 65 68 70 71 72 71 72 73 73 72 72 72 73
72 70 69 68 68 67 67 68 68 69 70 71 72 72 71 71 70 69 68 69 69 68 68 67 67 66 65 66 64 63 62 64 67 69 69 69 70 71 72 72 72 72 72
71 70 68 68 67 67 69 70 70 70 70 69 69 69 70 72 72 71 70 69 68 68 67 67 66 66 64 67 66 64 60 60 63 67 68 68 69 69 70 71 72 72 72
71 71 68 68 67 68 70 70 70 68 66 68 68 68 68 70 70 71 70 70 68 68 67 67 68 66 65 63 66 67 66 66 62 61 65 66 68 68 69 69 70 71 71
73 71 70 68 68 69 70 70 69 68 68 68 67 67 68 68 69 70 70 69 68 67 67 67 67 66 66 64 64 64 64 65 66 63 62 64 65 67 68 68 69 70 71
72 71 70 68 68 69 69 70 70 69 68 66 66 66 66 66 67 67 69 68 68 68 67 67 67 67 66 65 65 65 64 64 64 63 62 63 63 65 67 67 68 70 69

GFSSE_sfc_temp_036.txt.gz
Temp
75 78 83 83 83 83 83 83 83 83 83 83 83 83 83 83 83 83 83 83 83 84 84 84 83 83 83 83 83 84 83 83 83 83 83 82 82 82 82 82 82 83 82
78 80 82 83 83 83 83 83 83 83 83 83 83 83 83 83 83 83 83 83 84 84 84 83 83 83 83 83 82 83 83 83 84 84 84 83 83 82 82 82 81 83 82
78 80 82 82 83 83 83 83 83 83 83 83 83 83 83 83 83 83 83 83 84 84 83 84 84 83 83 83 84 84 83 83 83 83 82 80 81 83 83 82 82 81 81
79 78 81 82 83 83 83 83 83 83 83 83 83 83 83 83 83 83 84 83 83 83 83 83 84 84 83 83 83 83 83 83 83 83 79 80 83 83 83 82 82 81 81
78 78 80 82 83 83 83 82 83 83 83 83 83 83 83 83 83 83 83 83 82 83 83 83 81 83 83 83 83 82 82 83 83 79 77 78 80 82 82 82 82 81 81
78 79 82 83 83 83 83 82 83 83 83 83 83 83 83 83 83 83 83 83 83 83 83 83 83 82 82 83 83 82 83 83 82 77 77 80 79 82 82 82 82 81 81
77 79 81 83 83 83 83 83 83 83 83 83 83 83 83 83 83 83 83 83 83 83 83 83 83 84 83 83 82 82 82 83 78 77 77 79 78 81 82 82 81 81 81
77 78 80 83 83 83 83 83 83 83 83 83 83 83 83 83 83 83 83 83 83 83 83 83 83 84 83 83 83 82 81 81 81 78 78 78 78 81 82 82 81 81 81
78 77 77 79 81 83 83 83 83 83 83 83 83 83 83 83 83 83 83 83 83 83 82 82 83 83 82 83 82 82 82 82 79 77 79 77 79 81 82 81 81 81 81
76 77 76 77 78 78 79 83 83 83 83 83 83 83 83 83 83 83 81 82 83 83 83 83 82 83 83 82 82 82 83 83 78 78 78 79 79 81 82 82 81 81 80
76 78 78 75 76 76 77 80 82 83 83 83 83 83 82 78 79 81 81 82 83 83 83 83 83 82 82 82 82 83 83 77 79 79 77 78 79 81 82 82 80 81 81
74 75 76 74 75 75 78 77 77 78 78 78 78 78 77 76 76 79 80 82 83 83 83 83 82 82 81 78 77 81 77 78 79 77 75 79 80 81 82 81 81 80 81
74 75 74 74 74 75 76 74 75 75 75 75 76 76 76 75 75 75 74 75 77 81 80 81 80 79 77 76 76 76 76 77 77 77 77 79 79 81 82 81 81 81 81
73 74 74 74 73 73 74 74 75 74 74 74 74 75 73 73 74 74 74 75 74 75 75 76 76 76 76 76 76 75 76 76 77 76 77 79 79 80 82 81 81 81 81
72 74 74 74 73 73 73 73 73 73 73 74 75 74 73 72 72 71 73 74 74 74 74 74 74 74 74 74 75 74 75 75 76 75 76 79 80 79 81 82 79 80 81
74 74 74 74 74 74 72 72 72 73 73 73 73 74 74 71 72 71 72 72 73 73 74 73 72 73 73 72 72 73 74 74 75 75 77 76 79 79 80 81 81 80 81
76 75 74 74 74 72 73 73 72 71 71 70 72 73 73 73 72 72 72 72 71 72 73 72 71 71 71 71 71 72 72 73 73 74 75 76 79 79 81 81 80 81 81
75 74 74 76 73 74 73 72 71 71 71 70 70 71 72 72 71 71 71 71 71 70 70 70 70 69 69 69 69 70 70 72 72 73 74 76 76 78 80 80 81 80 81
75 74 74 72 74 73 73 72 71 72 72 72 71 70 71 72 73 71 71 72 73 71 70 70 69 69 68 68 68 68 68 69 71 75 74 75 76 77 77 79 80 80 81
74 74 74 72 72 71 70 70 70 71 71 71 70 70 73 72 74 72 72 72 72 71 70 69 69 69 69 69 70 70 69 70 71 72 74 77 77 77 77 77 77 80 80
73 72 72 71 69 68 68 67 68 68 69 70 70 71 73 73 73 72 71 71 72 71 71 70 69 68 67 67 67 67 68 70 71 73 74 75 76 76 77 76 76 76 77
71 72 70 68 68 68 68 68 68 69 69 71 70 73 73 73 73 72 71 71 71 70 70 70 68 68 67 67 66 65 65 68 69 71 72 72 73 73 76 76 76 75 76
70 71 69 69 68 68 69 70 70 70 70 70 69 70 71 73 72 72 72 71 70 70 69 69 68 68 66 67 68 67 62 63 65 68 70 70 72 72 73 75 76 76 76
70 70 69 68 67 68 70 71 71 68 67 68 69 69 70 71 72 72 71 71 71 70 69 69 70 68 67 66 68 68 68 68 63 62 68 67 71 70 71 73 74 75 76
68 69 68 68 67 68 70 71 70 68 68 68 68 69 69 69 70 71 71 70 70 70 70 70 69 69 68 67 67 67 67 68 68 66 64 65 68 69 69 69 73 73 74
70 71 69 67 67 69 69 71 70 69 68 68 68 68 68 67 68 69 70 70 70 70 70 70 70 69 68 68 68 68 67 67 66 65 63 63 64 66 69 70 70 70 70

GFSSE_sfc_temp_039.txt.gz
Temp
86 89 83 83 83 83 84 84 83 83 83 83 83 83 83 83 83 83 83 84 83 83 83 84 84 83 84 84 84 83 83 83 83 83 83 82 82 82 83 83 82 88 82
90 90 82 83 83 83 83 83 83 83 83 83 83 83 83 83 84 84 83 84 84 84 83 84 84 83 83 83 84 84 83 83 83 83 83 83 83 82 82 82 84 86 82
90 90 88 82 83 83 83 83 83 83 83 83 83 83 83 83 84 84 84 84 83 83 82 84 84 83 84 83 83 83 83 83 83 83 84 88 88 83 83 82 83 82 81
90 91 90 82 83 83 83 83 83 83 83 83 83 83 83 83 84 84 84 84 83 83 82 80 83 84 84 83 84 83 83 83 83 83 87 89 90 83 82 83 82 81 81
88 91 89 83 83 83 83 82 83 83 83 83 83 83 83 84 84 84 84 83 82 83 84 81 81 83 83 83 83 83 82 83 82 84 86 87 88 85 82 82 82 81 82
88 91 85 83 83 83 83 82 83 83 83 83 83 83 84 83 84 83 84 83 83 83 83 84 82 83 83 83 82 82 83 83 82 86 86 85 87 82 82 82 82 82 81
87 89 88 83 83 83 83 83 83 83 83 83 83 83 83 83 83 83 83 83 82 83 82 84 84 82 81 83 82 82 82 83 87 86 86 87 86 81 82 82 82 81 81
88 89 88 83 83 83 83 83 83 83 83 83 83 83 83 83 83 83 83 83 83 83 83 82 84 83 83 83 82 82 82 83 86 86 86 87 81 81 82 82 81 81 81
88 87 88 88 85 83 83 83 83 83 84 83 83 83 83 83 83 83 83 83 83 83 83 83 83 83 83 83 83 82 82 82 85 88 87 87 79 81 82 82 81 81 81
86 87 86 86 87 86 87 83 83 83 84 83 83 83 83 83 83 83 82 82 82 83 83 83 83 83 82 82 82 82 83 83 88 88 88 88 79 81 82 81 81 81 81
83 85 85 85 85 85 85 86 83 83 84 84 84 84 84 88 87 86 84 82 83 83 83 83 83 83 82 82 83 83 83 89 90 90 90 81 79 81 82 82 81 81 81
82 83 82 84 84 85 86 85 86 87 88 88 87 86 88 86 85 86 85 82 83 83 83 83 82 82 83 88 85 84 88 88 89 89 89 79 79 81 82 81 81 81 81
83 83 79 83 83 83 85 85 86 86 86 84 84 85 85 85 83 84 81 81 84 83 89 87 87 88 86 87 88 86 86 87 89 89 88 79 80 81 82 81 81 81 81
82 83 82 84 83 82 84 82 80 83 81 79 79 80 78 82 80 81 81 82 82 81 84 86 88 86 86 85 86 85 85 87 88 89 87 79 79 81 82 82 81 81 81
81 82 83 83 82 81 80 79 74 74 76 79 78 81 75 75 75 74 73 78 80 86 85 81 82 84 84 84 83 84 84 85 86 87 87 81 80 80 81 82 81 80 81
83 83 83 82 82 81 78 78 75 72 72 73 78 77 77 76 73 82 80 79 84 85 85 84 81 80 81 82 83 83 83 84 85 84 88 88 80 80 81 81 82 81 81
84 84 80 76 78 78 75 79 77 73 73 72 72 77 83 76 78 80 82 83 85 84 82 82 81 82 81 81 81 82 83 82 83 82 85 86 87 80 80 81 81 80 80
84 81 75 71 72 76 77 79 76 77 72 71 71 76 80 80 80 78 82 83 82 82 82 76 81 81 81 82 80 82 82 82 82 82 83 84 86 88 84 80 81 80 81
84 80 75 72 71 73 77 78 79 75 75 75 73 73 79 79 80 79 81 82 81 78 77 79 79 77 75 80 80 81 80 81 82 84 83 83 84 85 88 84 79 79 81
82 76 77 74 73 75 77 77 77 72 74 74 74 75 79 80 80 80 78 80 80 79 82 81 79 79 80 81 80 80 79 81 82 82 83 85 85 85 86 85 87 87 80
76 75 74 77 78 77 75 75 73 74 70 72 72 73 77 80 79 80 82 80 81 79 81 80 80 77 76 76 75 79 80 81 81 83 84 85 85 85 86 86 81 82 88
68 70 76 78 77 78 78 77 76 70 72 72 71 75 79 81 80 81 80 80 80 81 79 79 77 73 72 77 76 76 75 79 81 82 83 81 83 85 85 85 86 83 83
66 69 71 76 76 77 78 77 76 74 75 73 72 75 80 81 80 79 80 80 79 79 80 78 77 72 71 71 75 73 72 73 77 73 74 75 78 81 82 82 83 84 84
70 69 71 73 76 78 79 78 77 77 73 75 75 78 79 79 79 79 78 79 79 80 77 78 77 74 71 70 70 72 76 77 72 71 75 71 72 72 76 82 82 83 83
73 73 75 75 76 77 78 79 79 76 75 75 78 77 76 77 78 78 78 78 78 80 78 76 75 74 71 70 70 71 69 73 75 72 70 72 71 70 70 72 79 79 77
73 75 78 76 76 77 77 78 77 75 74 75 75 78 77 78 78 77 78 75 74 75 76 78 76 75 73 71 71 72 72 70 73 73 70 67 68 69 71 72 73 73 73

GFSSE_sfc_temp_042.txt.gz
Temp
97 95 83 84 84 84 84 84 84 84 84 83 83 83 83 83 83 83 83 83 82 83 84 84 84 84 84 84 84 84 83 83 83 83 83 83 82 83 83 83 84 91 82
98 96 82 83 84 84 84 84 84 84 84 83 83 83 83 83 84 84 84 84 84 83 84 84 84 84 84 84 84 84 84 83 83 83 83 84 83 83 83 83 85 86 82
98 96 91 83 84 83 84 83 83 83 84 84 84 83 83 84 84 84 84 83 82 82 83 84 84 84 83 84 84 84 84 84 83 84 85 93 90 83 83 83 83 82 82
99 98 95 82 83 83 83 83 83 84 84 84 83 84 84 84 84 84 85 84 83 84 80 82 84 84 84 84 84 84 84 83 83 84 92 96 94 83 83 83 82 82 81
97 100 92 83 83 83 83 83 83 84 84 84 84 84 84 84 84 84 84 84 84 84 82 81 84 84 84 84 83 82 83 83 83 84 89 92 94 85 82 82 82 82 82
98 100 85 83 84 83 83 83 83 83 83 84 84 84 84 84 84 84 84 84 84 84 84 82 83 82 83 83 83 83 82 83 82 93 91 88 92 82 82 83 83 82 81
97 98 92 83 83 83 83 83 83 83 83 83 84 84 84 84 84 83 83 84 84 84 84 84 83 82 83 83 83 83 83 83 91 92 92 92 91 82 81 83 82 82 81
97 98 91 84 83 83 83 83 83 83 83 84 84 84 84 83 82 84 84 83 84 84 84 84 84 82 82 83 83 82 83 83 90 93 92 93 82 82 82 82 81 81 81
97 96 93 92 87 83 84 84 83 84 84 84 84 84 84 84 84 84 83 83 84 83 83 84 84 83 83 83 83 82 82 83 92 96 94 95 79 82 82 82 81 81 81
95 95 92 90 90 90 90 84 84 84 84 84 84 84 84 84 84 84 82 83 83 83 83 84 84 84 83 83 83 82 83 83 92 91 93 91 80 81 83 82 81 81 81
92 94 91 88 90 88 91 88 84 84 84 84 85 84 84 93 92 89 87 83 83 84 84 84 84 84 83 82 83 83 83 92 91 93 88 80 80 82 82 82 81 81 81
90 92 93 93 92 88 94 90 90 89 88 92 91 90 92 93 93 93 88 83 83 84 84 84 83 83 84 92 90 84 92 95 94 90 90 81 80 82 82 82 81 81 81
91 93 91 91 91 92 92 93 86 93 93 87 87 86 87 89 90 90 87 89 87 85 91 89 88 92 91 89 87 92 94 94 96 96 92 80 80 81 82 82 81 81 81
91 91 91 90 89 90 92 92 93 92 91 86 84 83 83 83 84 80 79 87 82 86 85 92 95 93 92 91 92 90 92 93 95 96 93 80 80 81 82 82 81 81 81
90 90 90 89 88 88 87 87 81 82 83 83 80 77 76 77 76 82 78 78 81 84 87 87 88 89 88 88 90 90 91 92 93 94 95 82 80 80 81 82 82 81 81
91 88 90 87 88 88 81 82 83 79 76 76 77 74 75 75 75 81 79 79 91 89 83 84 86 88 89 89 88 89 88 91 91 91 94 92 81 80 81 82 82 82 82
92 91 82 77 82 86 85 84 82 77 75 75 73 75 76 77 77 79 82 88 92 91 86 86 86 86 87 89 87 87 89 89 91 89 91 93 91 80 81 81 81 81 81
91 88 77 80 79 83 86 86 80 80 75 75 73 73 74 84 84 84 85 85 88 85 84 84 85 82 85 87 84 86 89 90 89 89 90 91 93 94 84 81 80 81 81
88 84 74 78 82 83 84 83 84 80 75 75 73 74 75 85 85 83 83 88 86 90 88 88 88 82 81 84 86 88 88 89 89 91 89 89 89 91 93 84 80 80 81
80 75 71 73 76 79 84 83 81 74 73 70 76 76 76 86 86 86 85 83 86 86 83 83 84 87 87 88 85 84 88 89 90 89 89 91 91 90 91 90 91 89 80
76 71 68 68 77 81 77 77 75 70 71 74 72 76 81 87 86 86 83 87 87 84 86 85 85 82 79 82 78 84 87 88 87 89 90 91 91 91 91 91 85 91 90
74 72 72 73 82 80 86 86 85 73 75 72 73 74 80 76 86 86 86 85 85 84 83 82 81 78 81 79 79 79 76 84 89 89 91 90 89 90 92 91 87 86 79
76 77 74 78 81 84 85 85 83 83 81 76 76 82 85 86 86 86 85 84 84 84 87 83 82 80 82 81 80 76 73 80 78 87 85 89 86 83 85 89 89 89 87
82 83 78 79 81 84 84 84 82 84 80 82 81 81 82 84 85 85 84 84 83 86 83 84 84 79 75 72 77 80 79 77 72 71 81 82 81 77 78 84 86 86 86
82 84 84 82 82 83 84 85 84 83 81 79 81 81 81 82 83 84 82 82 81 79 80 80 79 77 75 74 75 74 77 77 76 73 72 78 79 73 72 73 76 81 81
85 86 86 82 81 83 84 84 82 80 81 82 80 80 84 85 83 82 81 77 77 80 81 83 81 80 76 78 78 73 72 75 78 73 72 72 74 69 70 71 73 74 74

GFSSE_sfc_temp_045.txt.gz
Temp
99 93 83 84 84 85 85 84 84 84 84 83 83 83 83 84 84 83 83 83 83 84 84 84 84 84 84 84 84 84 83 83 83 84 83 82 83 83 83 83 84 90 82
100 95 83 84 84 84 84 84 84 84 84 83 83 83 83 83 83 83 83 84 83 84 84 84 84 84 84 84 84 84 83 83 83 83 84 84 84 83 83 84 86 85 82
99 94 91 83 84 84 84 84 84 84 84 84 84 84 84 84 84 84 84 82 80 82 83 84 84 84 84 84 84 84 84 83 83 84 84 91 88 83 83 83 83 82 82
101 99 95 82 83 84 84 84 84 84 84 84 84 84 84 84 84 85 84 83 81 81 82 84 84 84 84 84 84 84 84 84 84 84 89 94 93 83 83 83 82 82 82
101 99 90 83 84 83 83 83 84 84 84 84 84 84 84 84 85 85 85 85 83 83 83 82 83 84 84 84 83 84 83 83 83 85 92 93 93 85 82 82 82 82 82
98 96 86 84 84 83 83 83 84 84 84 84 84 84 84 84 84 84 84 84 84 84 83 83 83 84 84 84 83 83 83 83 83 84 86 91 88 83 83 83 83 82 81
95 93 91 84 84 83 83 83 83 84 84 84 84 84 84 84 84 84 84 84 84 84 83 83 84 84 84 83 83 83 82 83 88 94 92 92 87 82 83 83 83 82 81
99 98 91 84 84 83 83 84 83 83 84 84 84 84 84 83 84 84 84 84 84 84 84 83 83 83 83 83 83 83 83 83 90 95 94 93 82 82 82 82 82 82 81
101 92 94 91 87 84 84 84 84 84 84 84 84 84 84 84 84 84 84 84 84 84 84 84 84 83 83 83 83 83 83 84 87 90 93 91 80 82 83 82 82 81 81
100 92 94 90 88 89 90 84 84 84 85 84 84 84 84 84 84 84 83 82 84 84 84 84 84 84 83 83 83 83 83 82 90 91 91 89 81 82 83 82 81 81 82
97 98 92 90 90 89 89 89 84 84 84 85 85 84 85 91 90 90 88 83 84 84 84 84 84 84 83 83 83 83 83 90 89 89 87 80 81 82 83 82 81 81 81
95 97 91 94 92 89 95 87 91 90 92 91 91 88 90 89 80 79 87 84 84 84 84 84 84 84 84 90 84 84 89 91 91 83 84 81 81 82 82 82 81 81 81
96 97 95 90 88 89 87 91 93 93 93 93 88 88 88 81 85 92 86 91 90 85 91 87 88 90 91 87 85 89 92 90 91 93 84 81 81 82 82 82 82 81 81
95 97 92 93 90 89 90 93 90 85 80 82 90 86 83 79 80 81 81 84 79 79 84 74 80 86 89 84 84 86 89 87 91 89 82 81 81 81 82 82 82 81 81
94 94 87 92 90 91 86 83 82 84 85 84 83 85 84 78 78 77 76 76 79 83 76 85 88 87 90 90 91 90 87 86 90 87 83 82 81 81 81 82 82 82 81
95 91 92 90 90 88 84 83 83 86 77 77 78 82 83 77 75 75 75 77 78 80 81 80 83 88 88 88 90 90 89 90 87 88 93 83 81 80 81 82 82 82 81
95 91 91 90 90 86 86 87 85 81 81 79 81 83 82 76 75 76 80 85 76 77 83 82 84 83 85 87 82 85 84 87 92 84 86 86 82 81 81 81 81 81 81
86 73 78 84 85 86 85 85 82 82 84 76 77 76 76 76 75 79 78 85 90 91 89 84 81 84 82 82 82 87 85 86 84 84 88 91 86 86 81 81 81 81 81
77 71 75 81 78 81 81 85 82 80 77 75 75 74 75 76 84 80 84 88 86 89 84 84 83 85 83 80 82 80 86 84 84 87 86 89 88 89 85 81 81 80 81
75 80 77 76 77 78 81 81 75 71 72 75 75 73 76 77 83 82 83 84 85 84 83 86 80 83 86 84 84 87 84 83 82 82 90 92 84 85 91 90 83 86 81
77 81 72 72 75 80 82 79 75 71 70 71 73 77 80 77 83 84 81 83 83 83 84 84 84 83 86 87 83 85 82 82 86 85 87 92 91 86 91 91 91 90 83
77 84 79 77 76 79 85 86 86 80 75 73 73 74 77 80 86 86 84 84 85 83 83 84 83 81 80 82 77 75 74 82 79 87 84 89 91 91 91 91 89 87 86
83 81 81 81 81 83 88 86 84 84 80 74 73 74 76 81 87 87 86 86 85 85 88 82 82 79 76 78 80 77 72 72 75 84 81 79 79 86 91 88 81 72 82
85 85 83 84 83 86 86 87 84 86 82 79 80 81 83 86 87 87 86 85 84 86 80 84 81 80 78 77 77 78 82 79 72 71 78 80 81 81 79 83 78 81 78
88 87 86 85 85 85 87 88 86 80 83 84 81 80 79 82 85 85 84 82 81 79 80 81 81 80 77 74 74 75 75 79 81 73 68 71 76 73 75 77 78 75 75
89 90 89 85 83 85 86 86 84 83 82 80 77 76 78 85 83 83 81 81 79 81 80 80 81 81 79 78 76 80 79 73 76 77 72 69 69 69 70 69 70 70 71

GFSSE_sfc_temp_048.txt.gz
Temp
89 87 84 84 84 84 84 84 84 83 83 83 83 83 83 83 83 83 83 83 83 84 84 84 84 84 84 84 84 84 83 83 83 83 83 83 83 83 83 83 85 84 82
91 88 83 84 84 84 84 84 84 83 83 83 83 83 83 83 83 83 83 84 84 84 84 84 84 84 84 84 83 84 83 83 83 84 84 84 84 83 83 84 84 82 82
91 88 87 83 84 84 84 84 84 84 84 84 83 83 84 84 83 84 83 82 82 82 84 84 84 84 84 84 84 83 83 83 83 84 85 84 82 83 83 83 83 82 82
93 92 88 83 83 84 84 84 84 84 84 84 84 84 84 84 84 84 83 82 82 82 82 84 84 84 84 84 83 84 83 83 83 84 84 87 87 83 83 82 82 82 81
95 94 85 83 83 84 83 84 84 84 84 84 84 84 84 84 84 85 85 84 82 82 83 83 83 84 84 84 83 83 83 83 84 84 82 82 82 83 82 82 82 82 83
94 92 84 83 83 83 83 83 84 83 84 84 84 84 84 84 84 84 84 84 84 84 83 83 83 84 84 84 83 83 83 83 84 83 83 84 81 82 82 83 83 82 82
92 89 86 83 83 83 83 83 83 83 84 84 84 84 84 84 84 84 84 84 84 84 84 83 84 84 84 83 83 83 83 83 84 85 85 82 80 82 83 83 82 82 81
92 90 86 84 83 83 83 83 83 84 84 84 84 84 84 84 84 84 84 84 84 84 84 83 84 84 83 83 83 83 82 83 87 85 86 82 80 81 83 82 82 82 81
95 89 87 86 85 84 83 83 83 84 84 84 84 84 84 84 84 84 84 84 84 84 84 83 83 83 83 83 83 83 83 84 83 84 87 82 80 82 82 82 82 82 81
93 91 88 86 85 84 85 84 83 84 84 84 84 84 84 84 84 84 83 83 84 84 84 84 84 84 83 83 83 83 83 83 84 84 85 83 80 82 83 82 82 81 81
92 91 90 87 85 85 85 85 84 84 85 85 84 85 84 85 85 86 85 84 84 84 84 84 84 84 82 82 83 83 83 83 86 84 82 80 81 82 83 82 81 81 81
89 88 90 90 86 86 90 83 84 85 85 85 85 83 83 75 76 76 83 84 84 84 84 84 84 84 84 84 83 83 82 84 86 82 82 81 81 82 82 82 81 81 81
93 89 88 89 83 87 86 80 83 86 82 80 82 81 79 75 73 74 76 80 82 84 85 83 83 84 84 82 83 82 83 85 86 84 86 80 81 82 82 82 81 81 81
93 85 86 86 85 85 82 79 88 79 73 71 77 82 78 75 76 77 80 79 79 80 79 75 72 75 80 83 83 83 84 85 84 82 81 82 81 82 82 82 81 81 81
91 87 89 87 88 87 86 81 81 77 73 74 77 84 83 81 80 78 77 77 77 79 77 73 70 69 75 81 83 82 83 83 84 83 82 82 80 81 81 82 82 82 81
70 71 75 88 84 84 82 82 79 79 78 78 80 82 84 82 78 77 73 75 75 78 75 76 75 74 75 84 83 82 82 83 84 84 80 78 81 81 81 82 82 82 82
66 66 71 77 83 81 81 79 82 82 83 80 76 79 82 80 78 77 74 76 75 71 70 72 77 77 77 80 81 81 83 84 84 83 82 81 82 81 80 81 81 81 81
68 67 69 78 83 83 82 82 82 80 80 75 76 77 80 80 79 76 76 78 77 72 69 68 75 76 77 77 76 78 75 81 82 82 82 83 81 84 81 81 80 80 80
72 70 71 77 81 81 82 80 79 74 74 75 77 74 74 77 79 75 78 79 78 75 72 71 77 76 76 76 77 75 77 78 80 86 82 82 81 82 81 81 80 79 80
71 72 74 78 79 78 82 78 75 72 71 73 75 74 74 76 78 78 76 78 79 77 77 76 76 76 76 78 79 79 77 80 80 79 80 84 82 83 83 79 76 75 81
76 79 79 76 75 77 81 78 72 73 71 70 73 74 76 75 77 76 75 77 77 77 77 77 76 76 76 77 75 73 75 79 81 81 81 82 83 84 81 81 76 79 81
79 81 80 76 79 81 82 81 80 76 72 72 71 73 74 76 76 78 77 75 76 76 77 77 77 75 77 77 72 72 69 74 78 81 74 80 80 81 82 82 76 75 72
80 82 82 78 80 82 83 81 79 79 73 72 72 72 74 76 76 77 81 79 80 78 76 78 79 77 72 75 76 71 68 67 70 74 73 74 76 73 78 76 75 73 72
82 84 83 82 80 84 84 81 80 77 75 74 75 75 75 80 81 82 82 80 78 79 77 77 78 76 75 72 75 73 73 72 68 67 69 72 72 73 72 74 74 72 69
85 85 84 81 82 83 84 83 81 80 79 80 78 79 78 76 81 82 79 79 78 77 77 78 77 76 75 73 73 73 72 72 72 69 67 68 70 71 71 71 71 72 71
88 85 85 81 81 83 84 82 83 80 80 78 77 75 77 77 78 80 79 78 78 77 76 76 76 76 76 75 73 73 71 71 70 70 68 67 65 66 67 69 69 69 70

GFSSE_sfc_temp_051.txt.gz
Temp
79 81 83 84 84 84 84 83 83 83 83 83 83 83 83 83 83 83 83 83 83 84 84 84 84 84 84 83 83 83 83 83 83 83 83 83 83 83 83 83 83 82 82
81 82 83 83 84 84 83 83 83 83 83 83 83 83 83 83 83 83 83 83 84 84 84 84 84 84 83 83 83 83 83 83 83 84 84 84 83 83 84 84 82 81 82
81 81 83 83 84 84 83 83 83 83 83 83 83 83 83 83 83 83 82 83 83 83 84 84 84 83 83 83 83 83 83 83 83 83 83 78 80 83 83 83 82 82 81
82 81 81 82 83 83 83 83 83 83 83 83 83 83 83 83 83 83 83 83 83 83 83 83 84 84 83 83 83 83 83 82 83 84 82 82 84 83 83 82 82 82 81
84 82 81 83 83 83 83 83 83 83 83 83 83 83 83 84 84 84 83 82 82 83 83 83 84 84 83 83 83 83 83 83 82 83 79 78 77 83 82 82 82 82 81
83 80 82 83 83 83 83 83 83 83 83 83 83 84 84 84 84 84 84 84 83 83 83 83 84 84 84 83 83 83 82 82 83 80 79 81 78 82 82 83 82 82 81
81 81 81 83 83 83 83 83 83 83 83 83 83 84 84 84 84 84 84 84 84 84 83 83 84 84 83 83 83 82 82 83 81 80 80 79 79 81 83 82 82 81 81
81 81 81 83 83 83 83 83 83 83 83 83 83 84 84 84 83 84 84 84 84 84 83 83 83 84 83 83 83 82 81 83 84 81 81 78 79 81 83 82 82 81 81
84 81 79 80 82 83 83 83 83 83 84 83 84 83 83 83 83 84 83 83 84 83 84 83 83 83 83 83 83 82 82 83 81 78 83 78 80 82 83 82 81 81 81
83 81 80 79 78 78 79 83 83 83 83 83 84 84 84 84 84 84 82 82 83 83 83 84 83 83 83 83 83 83 83 83 79 80 79 78 79 82 82 81 81 81 81
83 82 81 79 77 78 78 81 82 83 84 84 83 84 82 76 77 79 81 83 84 84 84 83 83 83 82 82 83 83 83 77 78 80 75 80 80 82 82 81 81 81 81
81 80 81 80 80 79 84 78 76 80 78 77 78 77 75 74 72 75 77 83 84 83 84 84 82 82 83 78 78 82 77 77 78 80 76 80 81 82 82 81 81 81 81
79 79 81 81 79 80 77 75 75 74 73 71 76 75 74 70 70 70 70 73 75 81 79 80 79 79 78 75 75 76 77 78 77 78 81 80 80 82 82 81 81 81 81
69 71 68 79 81 79 74 71 70 71 70 71 71 75 72 71 70 70 71 73 73 73 74 72 70 72 71 74 80 75 78 78 78 77 74 80 81 81 81 82 81 81 81
67 68 70 70 71 75 73 71 71 72 70 71 71 75 74 72 73 73 73 73 74 74 72 73 71 70 70 72 74 78 81 81 80 80 77 83 81 81 81 81 81 81 81
71 72 71 71 70 74 74 75 72 72 70 71 70 74 77 75 72 72 71 71 74 74 72 72 72 72 71 71 72 78 81 81 80 81 77 78 82 81 81 82 82 82 81
70 70 70 72 74 75 77 75 74 73 73 71 72 75 77 76 74 72 72 73 73 71 71 70 70 72 71 72 73 74 78 80 82 81 79 78 80 81 81 82 81 81 81
68 67 69 74 73 74 75 75 74 73 72 72 72 73 74 75 73 72 70 73 73 71 70 69 68 68 71 72 71 73 74 75 76 79 79 80 78 81 81 81 81 80 81
69 68 68 72 74 74 75 74 71 70 70 72 72 72 74 75 74 71 71 74 74 71 70 70 69 68 69 71 72 72 74 73 74 81 78 80 79 80 80 80 81 80 81
72 69 69 70 72 72 73 71 70 70 69 70 71 70 73 72 74 72 72 74 73 72 71 70 69 70 71 71 75 75 71 73 75 74 76 80 79 81 81 77 75 76 80
71 71 70 71 70 69 72 69 68 67 68 68 70 71 72 72 74 72 72 73 73 72 73 72 71 70 70 71 69 68 70 73 73 74 73 76 78 79 81 75 72 73 73
70 72 70 70 70 70 73 72 70 67 70 69 69 71 72 73 74 74 73 73 73 72 71 72 72 70 70 70 68 66 64 67 70 72 71 73 72 75 76 74 72 72 70
72 72 71 71 73 74 74 72 70 69 68 69 69 71 72 75 76 75 74 74 74 73 71 71 71 71 68 69 70 67 63 61 65 68 68 69 71 70 71 72 72 71 70
75 75 74 72 74 76 74 72 70 69 66 67 70 71 72 76 76 76 75 74 72 72 71 72 73 70 69 67 69 70 69 68 63 62 67 68 69 69 70 71 70 70 68
78 76 76 75 75 76 75 73 72 71 71 71 71 72 71 72 74 75 73 72 71 71 71 71 71 70 70 69 68 68 67 67 67 64 61 65 67 68 69 69 70 70 70
78 77 77 74 74 75 75 75 73 72 71 69 69 69 69 70 71 73 73 71 71 71 71 71 71 71 70 70 69 68 67 65 65 65 63 64 64 65 66 68 69 69 69

GFSSE_sfc_temp_054.txt.gz
Temp
77 80 83 83 84 83 83 83 83 83 83 83 82 83 83 83 83 83 83 83 83 84 84 84 84 84 83 83 83 83 83 83 83 83 83 83 82 82 82 82 82 81 81
79 81 82 83 84 84 83 83 83 82 82 83 83 83 83 83 83 83 83 83 84 84 83 84 84 83 83 83 83 83 83 82 83 83 84 84 84 83 83 82 82 81 82
79 81 82 82 83 84 83 83 83 83 83 83 83 83 83 83 83 83 83 83 84 84 84 84 83 83 83 83 83 83 83 83 83 83 83 77 79 84 83 82 82 82 82
80 79 81 82 83 83 83 83 83 83 83 83 83 83 83 83 83 83 83 83 83 83 83 84 84 84 83 83 83 83 82 83 83 83 77 80 82 83 83 82 82 81 81
79 78 80 83 83 83 83 82 83 83 83 83 83 83 83 83 83 83 83 83 83 82 83 84 84 83 83 83 83 82 82 82 83 83 77 76 76 82 82 82 82 81 81
79 79 82 83 83 83 83 83 83 83 83 83 83 83 83 84 84 84 83 82 83 83 83 84 84 83 83 83 82 82 82 82 83 78 77 78 76 82 82 82 82 82 81
78 79 81 83 83 83 83 83 83 83 83 83 83 83 84 84 83 84 84 84 83 83 83 83 84 84 83 82 82 82 82 82 80 78 77 76 76 81 83 82 82 81 81
78 79 80 82 82 83 83 83 83 83 83 83 83 83 83 83 83 83 83 83 83 83 83 83 83 83 83 82 82 82 81 82 81 79 80 76 77 81 82 82 81 81 80
80 78 79 80 82 83 83 83 83 83 83 83 83 83 83 83 83 83 83 83 83 83 83 83 83 83 83 82 82 82 81 82 77 77 80 76 79 81 82 82 81 81 81
79 78 76 76 78 77 79 83 83 83 83 83 83 83 83 83 84 83 82 82 83 83 83 83 83 83 82 82 82 82 82 82 77 78 77 76 80 82 82 81 82 81 80
78 77 76 76 75 75 76 80 82 83 83 83 83 84 82 76 77 80 81 82 83 83 83 83 83 82 82 82 82 82 82 75 77 78 74 79 80 82 82 81 81 80 80
68 71 70 71 74 76 81 77 76 77 77 76 77 76 75 73 73 75 79 83 84 84 83 83 83 82 82 76 75 80 75 75 75 76 73 80 80 81 81 81 80 80 81
69 70 69 69 71 74 77 75 75 74 74 74 75 74 73 72 71 69 69 73 74 81 77 79 78 77 76 74 74 74 75 75 74 74 78 80 81 82 81 81 80 80 80
69 69 70 69 70 69 72 73 72 72 71 71 71 73 71 68 68 68 68 72 72 73 73 71 70 71 72 74 74 73 76 75 74 76 75 79 80 81 82 81 80 80 80
68 69 69 69 68 68 70 70 69 70 71 71 70 72 71 70 69 69 70 72 71 72 71 70 70 69 70 72 73 74 76 77 75 73 72 80 79 79 82 82 81 81 81
71 68 69 68 69 70 72 70 69 70 70 70 69 70 74 71 71 70 70 70 71 71 70 70 70 70 70 71 72 73 75 78 75 75 77 76 81 81 81 82 81 81 81
71 70 69 70 72 71 72 72 71 71 69 69 69 72 75 73 71 70 69 69 69 71 70 69 69 70 70 71 71 72 73 75 77 75 78 77 80 82 81 81 81 80 80
69 68 68 74 72 72 73 73 71 72 70 70 70 71 73 73 72 70 69 70 71 69 68 67 67 67 69 70 71 71 72 73 74 73 74 74 78 81 82 81 81 81 81
68 66 67 69 72 73 72 71 70 69 69 71 71 71 73 75 74 70 69 70 72 70 69 68 69 67 67 69 71 71 71 71 72 78 75 76 76 78 77 80 80 80 81
67 67 68 68 71 71 70 69 69 68 68 69 70 71 71 71 73 70 70 70 71 71 70 69 69 68 69 70 72 73 71 72 72 72 74 74 72 77 75 77 75 78 80
69 69 68 69 69 69 70 66 66 65 66 68 69 71 71 72 72 70 70 71 71 70 71 72 70 69 69 69 68 68 69 71 71 72 72 73 72 73 73 72 71 72 73
69 69 68 69 68 68 71 70 67 66 67 67 69 70 71 71 72 72 70 70 71 71 71 71 70 69 69 69 67 65 63 66 68 69 69 70 70 72 72 72 71 71 69
70 69 68 68 69 70 71 69 67 67 66 66 67 70 72 72 72 72 72 71 71 71 70 71 70 69 67 68 69 66 62 61 63 66 68 68 69 69 70 71 71 70 69
71 71 70 71 72 72 70 69 68 65 64 65 68 69 71 73 72 73 73 71 71 71 71 70 71 69 68 67 68 69 68 66 62 60 67 68 69 69 68 68 69 69 69
74 73 72 70 73 73 70 70 69 67 68 69 69 69 69 70 74 74 72 71 71 70 70 70 70 69 69 68 67 66 66 66 66 63 60 65 66 68 69 70 69 69 69
75 75 74 72 72 72 71 71 71 70 69 68 67 66 68 68 69 71 71 70 69 70 70 69 69 69 69 68 67 67 66 64 63 63 63 63 64 65 66 67 69 68 68

GFSSE_sfc_temp_057.txt.gz
Temp
75 79 82 83 83 83 83 83 83 83 83 82 82 82 83 83 83 83 83 83 83 83 84 84 83 83 83 83 83 83 83 83 83 83 83 82 82 82 82 82 81 80 81
77 80 82 83 83 83 83 83 83 82 83 82 82 83 83 83 83 83 83 83 83 83 83 84 84 83 83 83 83 83 83 83 83 84 84 83 82 82 82 82 81 80 81
78 80 82 82 83 83 83 83 82 83 83 83 83 83 83 83 83 83 83 83 83 83 83 84 83 83 83 83 83 83 82 83 83 83 83 76 78 82 82 82 82 82 81
78 77 79 82 83 83 83 82 82 83 83 83 83 83 83 83 83 83 83 83 83 83 84 83 83 83 83 83 83 83 83 83 83 82 77 78 82 82 82 82 81 81 81
76 76 78 82 83 83 83 82 82 83 83 83 83 83 83 83 83 83 83 83 83 83 83 84 83 83 83 82 82 82 81 83 83 80 75 75 75 82 82 82 81 81 81
76 77 81 83 83 83 83 82 83 83 82 82 83 83 83 83 83 83 83 83 83 83 83 83 83 83 83 82 82 81 82 81 82 77 75 77 75 82 82 82 81 81 80
75 77 80 82 83 83 83 83 83 83 83 83 83 83 83 83 83 83 83 83 83 83 83 83 84 83 83 82 82 81 82 82 78 76 76 75 75 81 82 82 82 81 80
77 77 78 82 82 83 83 83 83 83 83 83 83 83 83 83 83 83 83 83 83 83 82 83 83 83 83 82 82 81 82 82 79 76 77 75 77 81 82 82 81 81 80
80 78 77 77 81 83 83 83 83 83 83 83 83 83 83 83 83 83 83 83 83 83 82 83 83 83 83 82 82 81 82 83 75 76 79 75 79 81 82 81 81 81 80
79 77 75 75 75 76 77 83 83 83 83 83 83 83 83 83 83 83 82 82 83 83 83 83 83 83 82 82 82 82 82 82 75 76 75 75 79 82 82 81 81 81 80
74 73 72 71 72 73 74 79 82 83 83 84 83 83 81 75 77 80 80 82 83 83 83 83 83 82 82 82 82 82 82 74 76 75 73 79 80 82 82 81 81 80 80
70 70 70 70 71 71 75 75 76 76 77 76 77 76 74 74 73 76 79 82 83 83 83 83 83 82 81 75 75 80 74 74 74 75 73 79 80 82 82 81 80 80 80
71 70 69 70 70 69 69 71 74 74 73 74 75 73 73 72 72 71 71 74 74 81 76 78 78 76 75 73 73 73 73 74 73 73 77 79 80 82 82 81 80 80 80
69 70 69 70 70 69 69 70 72 72 72 72 73 73 71 69 68 67 68 71 72 72 73 72 71 71 72 73 74 73 73 73 73 73 74 80 80 81 82 81 81 80 80
69 68 68 69 68 69 69 70 70 70 71 71 72 72 71 68 67 67 67 70 71 71 71 70 69 69 69 71 72 74 74 74 74 72 72 81 80 80 82 82 81 81 81
69 68 69 68 69 69 68 70 71 69 70 71 69 70 70 69 69 68 68 70 70 70 70 70 69 69 69 69 71 73 74 74 74 74 73 72 79 80 80 81 82 81 81
69 68 68 68 70 69 69 71 71 70 69 69 70 70 72 70 70 70 69 68 69 70 69 68 68 69 69 70 70 71 72 73 75 73 74 73 76 81 80 81 81 81 81
68 67 67 71 70 70 70 71 71 70 69 68 69 70 72 71 71 69 68 68 69 69 68 67 66 66 66 67 68 70 70 72 73 72 73 73 74 78 80 81 80 80 80
67 66 66 68 70 71 72 71 70 70 69 69 70 70 71 72 73 71 69 69 70 69 68 67 66 67 66 66 68 69 70 70 72 76 73 74 74 76 76 79 80 80 81
66 66 66 67 70 70 69 68 68 67 68 69 70 70 70 72 72 70 69 69 69 70 69 68 68 68 67 67 71 71 70 71 71 70 72 73 72 74 74 72 73 76 80
66 66 65 68 68 69 67 66 65 65 66 67 69 71 71 70 71 69 68 69 69 69 70 70 69 68 68 68 68 67 68 70 69 69 70 70 72 72 72 72 71 72 72
67 68 67 68 67 68 69 67 66 65 66 67 69 69 70 70 70 70 69 69 70 69 70 70 70 68 68 68 66 64 62 65 66 68 68 69 69 70 71 71 71 70 70
68 68 67 67 67 68 70 66 65 66 65 65 66 69 70 71 71 70 71 70 70 69 69 70 70 69 67 67 68 65 61 60 62 67 68 68 69 69 70 69 69 69 69
69 69 68 68 69 71 69 67 66 64 63 64 67 68 70 72 71 72 71 71 70 71 70 70 70 69 67 66 66 68 66 65 61 59 67 67 68 68 66 69 68 68 68
72 70 70 69 71 70 68 68 67 66 66 67 67 68 68 69 72 73 71 70 69 69 69 69 69 68 68 67 66 66 65 65 64 63 62 64 66 67 68 69 69 69 69
72 72 71 68 71 70 68 68 70 69 69 67 66 65 66 67 68 70 71 69 70 68 69 68 68 69 68 68 67 66 65 64 62 62 63 63 63 65 65 67 67 67 68

GFSSE_sfc_temp_060.txt.gz
Temp
74 77 82 83 83 83 83 83 83 83 83 83 83 83 83 83 83 83 83 83 83 83 83 83 83 83 83 83 83 83 83 83 83 83 83 82 82 82 81 82 81 82 81
76 79 81 83 83 83 83 83 83 83 83 83 83 83 83 83 83 83 83 83 83 83 83 83 83 83 82 83 83 83 83 83 83 83 82 83 82 82 82 81 81 82 81
77 79 81 82 83 83 83 83 83 83 83 83 83 83 83 83 83 83 83 83 83 83 84 83 83 83 83 83 83 83 83 83 83 84 83 80 81 82 82 82 82 81 82
77 77 79 82 83 83 83 83 83 83 83 83 83 83 83 83 83 84 84 83 83 84 83 83 83 83 83 83 83 83 83 83 83 82 79 81 83 82 82 82 82 81 80
76 76 78 82 83 83 83 82 83 83 83 83 83 83 83 83 83 83 83 83 83 84 84 83 83 83 83 83 83 83 83 83 83 80 78 79 80 83 82 81 82 81 80
76 77 81 83 83 83 83 82 83 83 83 83 83 83 83 83 83 83 83 83 83 83 84 84 83 83 83 83 82 81 81 83 82 78 78 80 79 82 82 82 81 81 81
75 76 80 83 83 83 83 83 83 83 83 83 83 83 83 83 83 83 83 83 83 82 83 83 83 83 83 83 82 82 82 82 79 78 77 78 79 81 82 81 81 81 80
76 76 78 82 83 83 83 83 83 83 83 83 83 83 83 83 83 83 83 83 83 83 81 83 84 83 83 83 83 82 82 82 80 78 78 78 78 81 82 81 81 81 81
78 77 77 78 81 83 83 83 83 83 83 83 83 83 83 83 83 83 83 83 83 83 82 82 83 83 83 83 82 82 82 83 78 78 79 78 78 81 82 81 81 81 80
78 77 75 76 76 76 77 83 82 83 83 83 83 83 83 83 83 83 82 82 83 83 83 82 82 82 82 82 82 82 82 83 79 79 79 79 79 81 82 81 81 80 80
75 74 73 74 73 74 75 77 82 83 83 83 82 83 82 78 79 81 81 81 83 83 83 82 82 81 82 82 82 82 83 76 79 79 77 78 79 81 82 81 81 80 80
71 70 71 72 72 72 76 75 76 76 77 77 78 77 76 76 75 77 80 82 83 83 83 83 82 81 81 79 79 81 76 77 79 79 76 79 80 82 82 81 81 80 80
70 70 70 71 71 71 71 70 73 74 75 75 76 76 75 74 75 76 74 76 77 81 79 80 79 78 76 76 76 76 77 78 78 77 79 79 80 82 82 81 81 81 81
69 70 69 70 70 69 70 71 72 73 73 73 74 74 72 72 72 71 72 73 74 75 75 75 74 75 75 76 76 75 76 77 78 78 76 79 80 81 82 81 81 81 81
69 69 68 69 69 69 70 71 71 71 72 73 73 73 72 71 70 69 69 72 74 74 74 73 72 72 72 73 74 75 76 76 77 76 76 80 80 80 81 82 81 81 81
69 68 69 68 69 69 70 70 70 70 70 71 71 70 71 70 69 68 69 70 73 73 73 72 72 71 71 73 73 75 76 77 77 76 78 76 80 80 81 81 81 81 81
69 69 68 68 69 69 69 70 71 71 70 69 70 70 70 70 69 70 70 71 72 72 72 72 72 71 71 72 72 73 74 76 77 76 78 76 79 79 80 81 81 81 81
67 66 67 71 70 69 69 71 71 71 70 69 69 70 70 72 71 70 71 71 71 71 71 70 70 69 69 69 71 72 73 74 76 75 76 76 78 79 80 80 80 81 81
68 66 66 68 69 69 70 71 71 71 70 70 69 70 71 72 72 70 71 70 70 70 70 70 69 69 69 69 70 72 73 73 74 78 76 76 77 79 79 80 80 81 82
67 67 66 67 70 70 70 69 69 69 70 70 70 70 71 71 72 71 70 70 70 70 70 70 69 70 70 70 71 73 73 75 75 75 75 76 76 78 78 78 76 79 81
67 66 65 66 69 69 67 66 65 66 68 69 70 70 72 71 72 70 70 70 70 70 71 71 71 69 69 69 70 70 70 71 71 72 73 74 75 76 77 76 76 76 77
67 66 65 67 68 69 69 67 67 66 67 68 70 69 70 71 72 71 70 70 70 70 70 71 71 68 68 70 69 68 66 68 70 70 71 72 72 74 75 75 75 75 75
67 68 67 68 68 68 70 67 66 67 67 67 68 69 70 72 72 72 72 71 71 70 70 71 71 70 69 70 70 69 63 62 65 69 69 69 70 70 71 72 72 72 72
69 69 68 68 67 68 69 68 68 65 65 66 67 70 70 73 73 72 71 71 71 70 70 70 70 70 69 68 68 69 69 68 64 63 67 68 69 70 70 70 71 71 71
71 70 69 68 69 71 69 68 67 67 68 68 69 69 70 70 72 73 72 72 71 70 71 70 72 70 70 69 69 68 68 68 68 66 63 65 67 66 69 70 70 70 72
71 71 70 69 70 70 69 68 70 69 68 68 68 68 68 69 70 72 71 71 70 70 70 71 71 71 70 70 69 69 68 67 66 66 65 65 64 64 65 67 67 68 69

GFSSE_sfc_temp_063.txt.gz
Temp
86 88 82 83 83 83 83 83 83 83 83 83 83 82 83 83 83 83 83 83 83 83 83 83 84 83 83 83 84 84 83 83 83 83 83 83 82 82 82 82 82 88 81
89 89 82 83 83 83 83 83 83 83 83 83 83 83 83 83 83 83 83 83 84 84 84 83 83 83 83 84 84 84 83 83 83 83 83 83 82 82 82 82 84 85 81
89 90 88 82 83 83 83 83 83 83 83 83 83 83 83 83 83 83 83 83 84 84 84 83 83 83 83 83 84 83 83 83 83 82 83 89 88 82 82 82 82 82 81
89 90 90 82 83 83 83 82 83 83 83 83 83 83 83 83 83 83 84 84 84 84 83 84 84 83 83 83 83 83 83 83 83 82 88 90 90 82 82 82 81 82 82
88 90 88 82 83 83 83 82 82 83 83 83 83 83 83 83 83 84 84 84 83 83 82 83 84 84 83 83 83 82 83 83 82 84 87 88 89 85 82 82 81 81 82
87 90 85 83 83 83 83 82 83 83 83 83 83 83 83 83 83 83 83 83 83 83 83 83 84 84 82 83 82 82 83 83 82 87 87 85 87 83 82 82 82 81 81
86 88 88 82 83 83 83 83 83 82 83 83 83 83 83 83 83 83 83 82 82 82 82 84 84 84 83 83 82 82 82 82 87 87 86 86 86 82 82 82 81 81 81
86 88 88 83 82 82 83 83 83 81 83 83 83 83 83 83 83 83 83 83 82 82 83 83 84 84 83 83 83 82 82 82 86 87 86 87 81 81 82 82 81 81 81
86 86 86 87 85 83 83 83 83 83 82 83 83 83 82 83 83 83 83 83 82 83 82 83 84 83 83 83 83 82 83 83 88 89 88 88 79 81 82 82 81 81 81
85 85 84 82 86 85 84 83 83 83 83 82 83 83 81 83 83 83 82 82 83 83 83 82 83 83 83 83 83 82 83 83 88 89 88 89 79 81 82 82 81 81 81
82 82 82 79 79 83 83 84 82 83 83 83 83 84 84 87 88 87 85 82 83 83 82 83 83 82 82 82 82 83 83 89 90 90 90 81 79 81 82 82 81 81 81
78 79 80 81 81 80 81 83 84 84 84 84 85 85 84 85 85 86 85 82 83 83 83 82 82 82 82 90 89 84 89 89 89 90 90 79 80 81 82 82 81 81 81
81 79 79 78 75 77 76 80 83 84 82 83 84 84 85 84 84 85 87 87 86 85 89 87 87 87 83 86 88 87 87 87 90 90 89 79 80 81 82 82 81 81 81
78 80 79 77 71 72 71 78 79 79 81 82 84 84 82 83 82 82 85 85 82 83 85 85 87 85 84 84 85 84 86 87 90 90 88 80 80 81 82 81 81 81 81
78 79 78 76 74 72 74 77 80 80 79 81 81 82 83 81 81 82 82 84 85 85 85 83 83 83 83 84 84 84 85 86 87 89 89 82 80 80 81 82 81 81 81
79 79 79 77 75 73 73 75 75 73 72 74 78 76 79 81 79 81 79 79 84 85 85 84 82 82 82 84 83 84 84 86 86 86 90 89 80 81 81 82 82 82 81
79 78 78 77 75 73 73 77 75 74 77 77 76 75 74 73 71 72 77 77 82 83 82 81 81 81 82 82 81 84 85 84 86 85 87 89 90 80 81 81 81 81 81
78 76 77 77 74 76 75 75 79 78 78 76 75 71 72 72 72 71 73 82 83 82 82 82 82 81 82 82 81 83 84 84 84 84 86 87 89 90 85 80 80 81 81
77 76 75 76 76 73 75 76 76 77 76 76 75 74 73 72 77 76 71 73 79 81 81 82 81 80 81 81 82 82 83 84 83 87 84 85 86 88 90 85 80 80 82
77 77 77 76 76 76 76 74 75 74 72 72 72 75 77 72 72 77 73 73 73 73 75 81 79 81 80 81 81 82 83 85 85 85 85 87 86 86 88 87 83 89 81
76 75 75 75 76 76 77 77 73 76 73 71 73 77 78 77 74 72 71 75 78 77 80 79 79 77 79 75 70 77 80 79 81 82 75 77 85 85 86 86 86 88 89
77 76 75 76 77 76 78 77 77 75 74 77 76 73 72 75 75 72 71 72 77 79 78 79 77 77 75 69 68 69 69 73 80 78 78 78 81 84 85 84 84 83 84
77 76 76 76 77 77 77 76 75 76 76 76 76 74 71 71 71 74 79 79 79 79 80 79 79 77 71 70 71 72 70 74 74 76 73 73 74 74 75 77 79 79 79
79 79 77 77 77 77 77 76 75 76 76 78 78 78 75 74 73 75 77 76 77 76 77 77 78 77 75 69 74 77 77 78 75 68 73 70 71 72 75 74 75 78 79
79 80 79 78 77 77 78 76 77 75 77 74 77 77 77 75 75 74 72 72 73 73 71 70 72 70 72 75 74 73 72 72 74 75 68 67 69 68 70 75 75 79 79
80 80 80 77 76 77 77 76 76 76 74 73 72 76 79 79 80 77 73 72 73 72 73 73 74 78 78 77 78 77 75 72 72 72 71 68 66 65 66 67 69 72 72

GFSSE_sfc_temp_066.txt.gz
Temp
96 95 83 83 83 84 84 84 84 83 83 83 83 83 83 83 83 83 83 83 83 83 83 84 84 83 84 84 83 84 83 83 83 83 83 83 83 83 82 83 84 91 82
98 95 82 83 83 84 83 83 83 83 83 83 83 83 83 83 83 83 83 83 84 84 84 84 84 84 83 85 84 84 83 83 83 84 84 84 83 83 83 83 86 86 82
97 96 90 83 83 84 83 83 83 83 83 83 83 83 83 83 83 83 84 84 84 83 83 83 83 83 84 84 84 83 84 83 83 84 85 94 90 82 82 83 82 82 82
99 97 95 82 83 83 83 83 83 83 83 83 83 84 84 84 83 84 84 84 84 84 83 83 84 84 84 83 83 83 84 84 83 83 93 95 94 82 83 82 82 82 81
97 99 94 83 83 83 83 83 83 83 83 83 84 84 84 83 83 84 84 83 84 84 83 84 84 84 84 83 83 83 83 83 83 85 93 93 94 85 82 82 82 82 82
97 100 85 83 83 83 83 83 83 83 83 83 84 83 84 84 84 84 84 84 83 84 83 84 84 84 84 83 83 83 83 83 82 94 92 89 92 82 83 83 83 82 82
97 98 92 83 83 83 83 83 83 83 83 83 84 83 83 84 84 84 84 84 83 84 83 84 84 84 83 83 83 83 83 83 93 93 92 91 91 82 82 82 82 82 81
96 98 91 84 83 83 83 83 83 83 83 83 84 84 83 84 83 84 84 84 84 83 83 84 84 84 83 83 83 82 83 83 90 93 92 93 81 82 82 82 81 81 81
96 94 88 90 86 83 83 83 83 84 84 83 83 83 84 84 83 83 83 83 83 83 83 84 84 84 83 83 83 82 82 83 93 97 94 95 79 81 83 82 82 81 81
93 94 90 88 88 87 89 83 83 83 84 84 84 82 83 84 84 84 83 82 83 83 83 84 84 84 83 83 83 83 82 83 95 96 95 93 80 81 83 82 82 81 81
91 92 92 87 84 85 87 86 83 83 84 84 84 83 84 91 90 88 86 83 83 83 83 83 83 83 83 83 83 83 83 89 94 98 99 80 80 81 83 82 82 81 81
87 90 92 87 82 83 86 85 86 87 89 91 91 88 86 88 89 89 87 83 84 84 83 83 83 83 83 94 92 84 92 93 96 96 98 81 80 81 82 82 81 81 81
89 89 89 85 72 76 80 86 84 86 86 85 87 85 86 86 89 91 92 91 91 85 92 88 88 91 91 94 96 95 95 95 95 94 92 80 80 81 82 82 81 81 81
88 88 87 85 72 74 83 78 89 83 84 87 90 87 84 84 88 89 90 91 89 86 86 89 88 88 90 89 92 92 93 94 96 95 90 81 80 81 82 82 81 81 81
86 88 86 84 82 79 80 82 86 88 87 91 89 88 88 86 84 89 90 92 91 92 90 88 88 86 88 89 90 90 91 92 93 95 96 83 81 81 81 82 82 81 81
88 88 87 84 82 79 81 81 79 81 84 83 90 90 87 90 87 90 89 90 87 90 92 91 89 88 88 91 89 90 90 92 92 92 96 95 82 81 81 82 81 82 81
89 88 86 85 82 80 79 81 80 81 77 76 77 82 84 84 85 86 89 89 90 86 86 88 86 84 87 89 88 90 90 90 92 91 93 95 93 81 82 81 81 81 82
88 84 85 86 82 81 81 83 83 85 86 88 88 85 77 76 76 78 76 83 90 88 88 84 83 88 89 90 88 90 90 91 90 90 92 93 95 96 82 82 81 81 81
88 85 83 83 82 80 82 84 84 82 79 80 83 86 75 74 74 75 73 76 86 86 88 85 84 84 88 88 89 90 89 90 90 93 91 91 86 91 92 82 81 80 81
86 85 84 84 82 82 81 82 85 82 76 76 76 78 82 78 77 76 80 74 75 85 86 81 82 89 88 89 89 89 90 91 92 92 92 92 87 84 92 92 86 88 81
85 84 83 82 81 81 82 84 84 83 83 79 76 79 80 83 81 73 75 75 74 73 75 74 76 83 84 88 79 80 74 84 85 84 84 88 77 87 91 92 85 88 91
84 84 83 82 82 82 86 84 85 84 81 81 77 79 80 81 80 75 73 74 73 74 77 81 79 84 85 81 76 70 67 76 84 84 84 84 85 84 87 87 86 86 87
84 83 83 83 83 84 84 84 83 84 82 81 82 79 79 75 76 79 74 72 74 72 78 80 81 81 79 77 71 70 66 66 71 81 79 82 79 80 83 84 84 84 84
86 86 84 83 83 84 83 83 81 83 84 86 83 83 81 79 79 73 74 79 80 79 80 81 80 80 79 75 74 73 72 73 74 75 80 77 76 75 79 81 81 83 83
87 87 86 84 83 84 83 84 83 81 79 82 84 79 79 80 76 74 73 76 76 77 79 78 78 74 73 70 70 74 75 76 81 75 69 70 72 72 74 75 79 80 81
88 88 87 83 82 83 83 82 81 80 78 74 74 75 75 79 81 81 77 75 72 74 75 78 73 73 73 73 76 79 79 78 74 70 70 70 70 66 67 69 72 75 76

GFSSE_sfc_temp_069.txt.gz
Temp
99 94 83 84 84 84 84 84 84 83 83 83 83 83 83 83 83 83 83 83 83 84 84 84 84 83 84 84 84 84 84 83 83 83 83 83 82 83 83 84 85 89 82
102 95 83 83 84 84 84 83 84 83 83 83 83 83 83 83 83 83 83 83 83 83 83 84 84 83 84 84 84 84 83 83 83 84 84 84 83 83 83 84 86 85 82
100 96 91 83 83 84 83 83 83 83 84 83 83 83 83 83 84 84 84 84 84 84 84 84 83 84 84 84 84 84 83 83 83 84 85 92 89 83 83 83 82 82 82
101 98 95 82 83 83 83 83 83 84 84 83 84 84 84 84 83 83 84 84 84 84 84 84 83 84 84 84 83 84 83 83 83 84 91 96 93 83 83 83 82 82 82
101 100 92 83 83 83 83 83 83 84 84 84 84 84 84 83 83 84 84 84 84 84 84 83 84 84 84 84 83 83 83 83 83 86 95 93 93 85 82 83 82 82 82
100 100 85 83 84 84 83 83 83 83 83 84 84 84 83 83 83 84 84 84 84 84 84 84 84 84 83 83 83 83 83 83 83 94 92 91 87 83 83 82 83 82 82
97 98 92 83 83 83 83 83 83 83 84 84 84 84 83 84 83 84 83 84 84 84 83 84 84 83 83 83 83 83 83 83 88 95 93 93 86 82 83 83 82 82 81
101 98 92 84 83 83 83 83 83 83 83 84 84 83 84 84 84 84 84 84 84 83 83 84 84 83 83 83 83 83 83 83 93 96 94 92 82 82 82 82 81 82 82
101 95 92 90 86 84 83 84 83 84 84 84 84 83 84 84 84 83 83 84 84 83 83 84 84 84 83 83 83 82 82 83 88 88 96 94 80 82 82 82 82 81 81
99 93 92 86 83 86 89 84 84 84 84 84 84 84 84 84 84 84 82 83 84 84 84 84 84 84 83 83 83 83 83 84 91 90 95 89 81 82 83 82 82 81 81
95 92 86 84 77 76 84 86 84 84 84 84 85 84 85 90 90 88 87 83 84 84 84 84 84 83 83 83 83 83 83 89 89 92 88 80 81 82 83 83 82 81 81
91 94 84 83 77 75 78 84 86 89 90 90 89 87 89 88 87 83 86 84 84 84 84 84 83 83 84 92 89 84 90 88 93 88 92 81 81 82 82 83 82 81 81
92 91 88 85 76 76 83 83 79 83 87 86 87 87 87 86 89 90 83 88 88 85 90 87 87 89 90 90 87 91 93 91 90 91 81 81 81 82 82 82 82 81 81
92 92 88 86 84 82 79 79 80 83 85 83 87 86 83 84 84 84 81 86 85 90 85 87 90 85 85 88 89 86 95 92 91 91 84 82 81 81 82 82 82 81 81
91 91 87 86 83 83 82 81 86 79 89 89 90 86 88 89 87 91 84 86 83 86 90 86 85 89 85 87 89 86 93 94 94 92 81 82 81 81 82 82 82 81 81
92 91 87 84 84 84 84 83 84 86 83 90 87 90 88 90 87 91 91 92 90 89 85 87 89 83 88 89 88 86 84 86 93 93 95 88 82 81 81 82 82 82 82
93 92 91 87 86 82 82 83 84 81 80 81 81 84 90 88 86 88 92 92 89 90 88 88 88 89 87 86 86 85 90 91 90 88 93 92 86 82 82 82 82 82 82
93 90 90 90 86 84 82 83 86 88 89 89 88 87 85 85 86 87 90 92 91 89 90 89 87 83 86 82 82 83 82 87 85 91 87 86 86 85 82 82 81 81 81
91 88 86 86 85 84 83 84 83 84 87 90 90 80 85 83 80 83 86 87 84 90 83 86 86 85 83 85 84 82 85 88 91 93 92 92 86 88 81 81 81 81 82
92 89 87 86 84 83 84 84 88 85 85 83 82 83 84 83 81 76 79 81 77 85 89 85 85 88 80 81 84 83 83 82 82 83 89 90 83 89 79 75 78 85 81
90 88 86 85 84 85 83 83 85 86 87 84 83 81 81 83 81 79 75 82 82 81 81 84 82 81 83 82 79 86 88 88 88 90 87 90 86 88 85 87 84 84 90
88 87 85 84 83 85 89 87 85 83 87 84 85 81 81 81 81 80 80 74 79 76 76 77 75 81 84 84 79 77 77 80 81 86 81 85 86 84 83 88 86 87 86
88 87 86 85 85 86 89 87 85 84 81 82 81 81 82 82 81 79 78 76 74 73 72 74 76 79 76 80 80 77 68 68 68 77 81 83 80 82 84 85 84 84 84
90 90 87 86 86 87 86 88 85 85 77 80 85 84 84 82 82 81 80 78 73 72 79 73 78 78 77 75 77 80 76 72 66 65 72 80 83 80 79 78 83 83 83
92 91 89 86 85 87 86 87 86 84 86 86 87 82 81 81 80 78 72 77 73 75 77 78 78 78 77 75 75 72 71 70 70 68 66 73 78 76 75 78 77 78 80
92 92 91 86 84 86 86 85 84 83 83 81 77 78 81 83 82 79 76 75 74 74 76 74 78 78 77 76 73 70 70 72 75 74 72 73 70 66 68 70 74 75 76

GFSSE_sfc_temp_072.txt.gz
Temp
88 86 83 84 84 84 84 84 84 83 83 83 83 83 83 83 83 83 83 83 84 84 84 84 83 84 84 83 83 84 83 83 83 83 83 83 83 83 83 83 84 84 82
90 88 83 83 84 84 84 84 83 82 83 83 83 83 83 83 83 83 83 83 84 84 84 84 83 83 84 84 84 83 83 83 83 83 84 84 83 83 83 85 84 82 82
91 88 87 83 84 84 84 84 83 83 83 83 83 83 83 83 83 84 84 84 84 84 84 83 84 84 84 84 84 83 83 83 84 84 85 84 82 83 83 83 83 82 82
93 91 88 82 83 83 83 83 83 83 84 83 83 83 83 84 83 83 84 84 84 84 84 83 84 84 84 83 83 83 83 83 84 84 84 88 87 83 83 82 82 82 82
95 95 86 83 83 83 83 83 83 84 84 83 84 84 84 83 83 84 84 84 84 84 84 84 84 84 84 83 83 83 83 83 83 84 85 84 82 83 83 82 82 82 82
80 93 84 83 83 83 83 83 83 83 83 83 84 84 84 83 84 84 83 84 84 84 84 84 84 84 83 83 83 83 83 83 84 86 84 83 80 82 82 83 82 82 82
78 89 86 83 83 83 83 83 83 83 83 83 84 84 83 84 84 84 84 84 84 84 84 84 84 84 83 83 83 82 83 84 84 87 86 83 80 82 83 82 82 82 82
89 90 86 83 83 83 83 83 83 83 84 84 84 84 83 83 84 84 84 84 83 83 83 84 84 83 83 83 83 83 83 83 87 88 86 82 80 82 82 82 82 82 82
95 88 85 84 84 83 83 83 83 83 84 84 84 83 83 84 84 84 84 84 83 82 83 84 84 83 83 83 83 83 83 83 83 85 89 82 80 82 82 82 81 81 81
95 90 82 80 82 81 84 83 83 84 84 84 83 84 84 84 84 84 83 83 83 83 83 84 84 83 83 83 83 83 83 83 84 86 86 82 81 82 82 82 82 81 81
90 74 71 75 77 80 81 83 82 83 84 84 84 84 84 84 84 84 84 83 84 84 84 84 84 83 83 83 83 83 83 84 87 86 84 80 81 82 82 81 81 81 81
86 75 71 74 75 78 79 80 82 85 85 84 84 83 83 83 80 83 84 84 84 84 84 84 84 83 83 84 82 83 83 85 85 86 82 81 81 82 82 82 81 81 81
84 84 77 79 78 75 76 75 77 80 82 81 83 82 81 81 81 84 78 83 82 83 83 83 83 83 84 84 83 83 84 86 86 85 82 80 81 82 82 82 81 81 81
86 85 82 81 79 80 80 80 78 75 78 78 80 81 79 78 80 80 78 79 80 82 82 82 80 82 84 85 83 82 84 86 78 83 82 81 81 82 82 82 81 81 81
89 85 83 82 81 80 78 79 78 77 78 82 82 81 79 79 78 78 80 82 80 80 78 78 80 78 79 84 83 83 85 85 87 84 82 82 81 81 82 82 82 82 81
90 85 85 83 81 81 79 79 78 78 79 80 79 80 82 82 80 80 81 80 81 81 79 79 78 78 78 81 82 83 83 83 84 86 82 80 81 80 81 82 82 82 82
90 87 84 82 81 81 81 82 80 83 80 83 77 78 81 80 81 81 83 83 82 80 83 81 79 80 78 82 80 82 83 82 84 84 85 82 82 81 80 81 81 81 81
90 88 84 87 83 81 80 81 82 80 80 82 83 81 83 83 82 80 80 80 82 81 82 81 77 78 79 78 77 81 81 82 83 83 84 84 82 83 82 82 81 80 80
88 87 86 84 83 82 81 81 82 83 82 84 84 82 82 82 83 81 80 82 80 80 79 81 80 79 76 76 79 79 79 81 81 86 83 83 83 82 81 81 80 78 77
88 86 84 83 83 82 81 80 81 81 82 82 82 79 79 78 82 78 80 80 79 77 79 76 77 78 79 78 82 82 80 79 81 80 81 84 80 84 79 79 73 74 77
88 85 82 82 80 80 80 79 80 79 79 80 82 79 78 76 79 78 78 77 78 76 75 77 77 75 77 78 71 74 75 79 82 81 83 80 75 75 74 78 75 75 74
86 84 83 82 80 81 82 80 82 81 83 84 82 80 80 78 75 76 77 76 77 77 76 76 76 74 76 76 73 72 69 74 78 79 78 78 79 76 78 80 78 77 77
85 84 82 82 81 81 82 82 80 80 80 79 80 80 79 80 77 74 74 78 75 75 74 74 74 74 71 72 76 71 67 66 70 74 73 74 76 77 78 77 79 79 78
87 86 83 82 81 83 84 81 79 76 74 76 77 79 79 81 80 76 75 76 75 74 73 72 72 71 71 69 73 73 74 73 67 64 68 68 73 75 74 75 75 75 76
89 87 85 83 83 84 83 81 82 79 77 80 77 77 80 79 80 80 76 76 74 73 73 73 73 73 72 72 71 72 72 71 70 66 64 66 69 70 71 72 73 73 75
91 89 87 82 81 83 83 82 82 80 81 81 76 76 78 79 78 77 77 75 73 72 71 72 73 73 72 73 73 69 68 68 67 66 66 68 68 66 67 68 70 72 72

GFSSE_sfc_temp_075.txt.gz
Temp
77 81 83 84 84 84 83 83 83 83 82 82 82 82 83 83 83 83 83 83 83 84 84 84 84 83 83 83 83 83 83 83 83 83 83 83 83 83 83 83 83 82 82
80 82 83 83 84 84 83 83 83 82 82 82 82 83 83 83 83 83 83 83 83 84 84 84 83 83 83 83 83 83 83 83 83 83 84 84 84 83 84 84 82 81 82
81 81 83 83 83 84 83 83 83 83 83 83 83 83 83 83 83 83 83 83 84 83 84 84 83 84 83 83 83 83 83 83 83 84 83 78 80 83 83 83 82 82 81
81 81 81 82 83 83 83 83 83 83 83 83 83 83 83 83 83 83 84 84 84 84 83 84 84 84 83 83 83 83 83 83 83 84 80 82 84 82 82 82 82 82 81
82 81 81 82 83 83 83 83 83 83 83 83 83 83 83 83 83 83 84 84 83 83 84 83 84 84 83 83 83 83 83 83 83 84 81 78 77 82 82 82 82 82 81
83 81 82 83 83 83 83 83 83 83 83 83 83 83 83 83 84 84 84 84 83 83 83 84 84 84 83 83 83 83 82 83 83 80 82 80 77 82 82 83 82 82 81
79 81 82 83 83 83 83 83 83 83 83 83 83 83 83 83 84 83 84 84 83 83 84 84 84 83 83 83 83 82 82 83 82 81 80 79 78 81 82 82 82 82 81
79 80 82 83 83 83 83 83 83 83 83 83 84 84 83 83 83 83 84 84 83 83 83 84 84 84 83 83 82 82 82 83 84 81 80 78 79 82 82 82 81 81 81
80 77 79 80 82 83 83 83 83 83 83 84 84 83 83 83 83 84 83 83 83 83 83 83 83 83 83 83 83 82 83 83 79 79 82 78 80 82 82 82 81 81 81
73 74 75 77 76 77 79 83 83 83 83 84 84 83 83 84 84 84 82 82 83 83 83 83 83 83 82 82 82 82 83 83 80 80 81 78 80 82 82 81 81 81 81
73 71 72 75 76 76 76 80 82 83 84 84 83 84 82 77 78 81 81 83 83 83 83 84 83 83 82 82 82 83 83 77 80 80 79 80 79 82 82 82 81 81 80
68 69 69 72 75 76 78 76 76 79 77 77 78 77 77 76 75 78 81 84 84 84 84 84 83 83 82 77 77 81 77 78 79 81 78 80 80 82 82 81 81 80 81
73 71 69 72 73 74 74 74 74 74 75 74 76 76 75 76 75 77 74 75 77 82 79 81 80 79 78 76 77 77 77 77 78 82 80 80 81 82 82 81 81 81 81
72 73 72 74 73 73 73 73 74 73 74 73 75 76 74 74 74 73 74 74 75 75 75 76 75 77 77 78 79 78 78 78 78 78 79 81 81 82 82 82 81 81 81
75 74 74 75 73 73 73 73 74 73 74 75 76 76 75 73 73 73 74 75 75 74 74 73 74 73 75 77 79 79 79 81 82 80 77 82 81 81 82 81 82 81 81
78 76 76 75 75 74 72 73 73 73 74 74 73 75 76 74 74 74 73 75 77 78 75 74 73 73 74 75 75 76 76 79 81 81 79 80 82 81 82 82 82 82 82
79 78 77 76 76 75 74 74 73 73 74 73 72 74 76 75 74 75 73 75 80 75 76 75 75 74 73 76 75 77 78 81 82 82 80 77 79 81 82 82 81 81 81
79 78 77 80 75 74 73 74 75 74 75 74 73 73 75 76 75 74 73 71 73 75 74 72 73 72 72 72 73 75 79 80 81 80 82 80 80 81 81 82 81 81 81
79 77 75 76 74 74 74 74 74 74 73 74 75 74 75 76 77 75 72 73 74 72 73 72 72 72 71 71 74 74 77 78 78 84 81 82 78 79 78 80 80 80 80
79 78 76 75 74 74 73 73 73 74 74 75 74 74 75 74 76 74 72 72 71 70 70 72 72 72 72 71 75 73 75 75 75 78 77 79 75 75 75 74 73 74 79
79 76 74 74 73 73 72 71 71 71 72 73 74 75 75 73 75 73 71 71 71 70 70 72 72 71 70 70 68 68 70 74 71 76 75 74 73 75 75 72 71 71 74
77 75 74 74 73 72 72 72 73 73 73 74 75 74 74 74 73 73 72 71 73 71 71 71 71 69 70 70 67 66 65 67 70 71 71 71 71 74 73 73 74 74 72
77 76 75 73 73 73 74 74 72 72 72 72 71 72 74 74 73 73 73 72 72 72 70 71 70 69 67 69 70 66 62 61 64 68 68 67 69 71 72 72 73 73 74
78 78 75 74 73 74 75 73 71 69 68 70 71 72 72 75 74 73 73 73 71 71 70 70 71 69 68 66 68 70 69 68 62 61 66 66 69 70 69 69 71 72 72
81 79 77 75 73 75 75 73 72 71 70 71 71 72 72 72 73 73 71 71 71 71 71 71 70 69 68 67 67 68 69 68 67 63 61 63 68 67 67 68 68 70 71
82 80 78 75 73 75 75 75 73 71 71 70 70 69 70 71 71 72 71 70 71 71 70 70 71 70 70 69 69 68 67 65 65 65 64 64 65 65 66 67 66 69 70

GFSSE_sfc_temp_078.txt.gz
Temp
76 80 83 83 83 83 83 83 83 83 82 82 83 83 83 83 83 83 83 83 83 83 83 84 84 83 83 83 83 83 83 83 83 83 83 83 82 82 82 82 82 81 82
79 81 83 83 83 84 83 83 83 82 82 82 82 83 83 83 83 83 83 83 83 84 83 83 84 83 83 83 83 83 83 83 83 83 84 84 84 83 83 82 82 81 82
79 81 82 82 83 83 83 83 83 83 83 83 83 83 83 83 83 83 83 83 83 83 83 83 83 83 83 83 83 83 83 83 83 83 82 77 80 83 83 82 82 81 82
80 80 81 82 83 83 83 83 83 83 83 83 83 83 83 83 83 83 83 83 83 83 83 83 84 83 83 83 83 83 83 83 83 83 77 79 83 83 83 82 81 81 81
79 78 81 83 83 83 83 82 83 83 83 83 83 83 83 83 83 83 83 83 83 83 83 83 84 83 83 83 83 83 82 82 83 82 77 75 75 82 82 82 82 81 81
78 79 82 83 83 83 83 82 83 83 83 83 83 83 83 83 83 83 83 83 83 83 83 83 84 83 83 83 83 82 82 82 84 79 78 78 75 82 82 82 82 81 81
77 79 81 83 83 83 83 83 83 83 83 83 83 83 83 83 83 83 83 83 83 83 83 84 84 83 83 83 82 82 82 82 80 78 77 75 77 81 83 82 82 81 81
78 78 80 83 83 83 83 83 83 83 83 83 83 83 83 83 83 83 83 83 83 83 83 83 83 83 83 83 82 81 82 83 82 79 77 74 79 81 82 81 81 81 81
79 78 78 79 81 83 83 83 83 83 83 83 83 83 83 83 83 83 83 83 83 83 83 83 83 83 83 82 82 82 82 82 77 78 80 75 79 81 82 81 81 81 81
76 77 77 76 76 76 78 83 83 83 83 83 83 83 83 83 84 83 81 82 83 83 83 83 83 83 83 82 82 82 82 82 77 78 78 76 79 82 82 81 81 81 80
73 72 74 75 74 75 76 79 82 83 83 84 83 83 82 76 78 80 81 83 83 83 83 83 83 82 82 82 82 82 83 76 77 78 77 79 80 82 82 81 81 80 81
72 68 68 73 74 75 77 76 76 77 77 76 77 76 74 74 74 77 80 83 83 83 83 83 83 83 82 76 76 80 74 76 76 77 76 80 80 82 82 81 81 80 80
74 70 69 71 73 74 75 74 73 73 73 73 75 74 73 74 74 75 73 75 76 81 78 80 79 78 76 74 74 74 76 76 75 77 80 81 81 81 82 81 81 80 81
72 72 70 71 71 72 72 73 74 73 72 72 73 74 72 72 72 72 72 73 74 74 74 75 74 75 75 75 75 75 76 76 74 76 77 81 81 81 82 81 81 81 81
72 72 68 71 71 71 71 71 73 72 73 73 73 74 73 72 72 72 72 72 73 73 72 72 72 73 73 74 75 75 75 77 80 74 75 82 81 81 81 82 81 81 81
74 72 73 72 72 72 71 71 71 72 73 73 72 73 74 72 72 72 72 71 72 73 72 71 71 72 73 73 74 75 76 77 79 80 76 80 81 81 81 82 82 81 81
75 75 73 73 72 71 71 72 71 71 72 72 73 73 74 73 72 73 71 72 72 73 73 72 72 72 72 72 73 76 76 77 78 79 78 78 79 81 81 82 82 81 81
75 74 74 77 73 72 72 72 72 72 72 72 72 72 74 74 73 72 72 71 72 72 72 70 71 72 71 71 71 72 74 76 77 79 77 77 77 80 81 81 81 81 82
76 74 74 74 72 71 71 71 72 72 72 72 72 72 73 74 75 73 70 71 72 70 71 71 70 69 69 69 71 71 71 74 78 80 80 77 78 76 75 79 81 80 82
76 75 74 73 72 71 71 71 71 71 71 72 72 71 72 72 74 72 71 71 70 70 70 70 70 70 69 69 73 72 69 71 74 74 77 77 75 76 74 73 74 75 80
76 74 73 72 71 71 69 69 69 69 70 71 72 74 73 73 73 73 70 70 70 68 69 69 69 70 69 69 67 67 67 69 70 70 71 72 72 74 72 73 72 72 73
75 74 73 73 71 72 70 70 71 70 70 71 72 73 73 73 73 71 72 71 70 69 68 68 70 68 67 68 65 65 63 66 67 69 68 70 70 71 72 73 72 73 72
75 74 73 72 72 72 71 71 70 70 70 70 70 71 72 74 73 72 72 71 71 70 69 69 69 68 67 67 69 66 62 60 62 66 65 67 69 69 70 71 72 72 72
76 76 74 73 72 72 71 71 69 67 66 68 69 70 72 73 72 72 72 72 71 71 69 69 70 69 67 65 67 68 67 65 62 61 65 64 68 68 68 69 70 71 72
77 76 75 73 72 71 72 72 70 68 68 69 69 70 70 70 71 72 71 71 71 70 70 70 69 68 67 67 66 66 66 66 66 64 62 62 65 65 66 67 67 69 71
77 77 75 73 72 71 73 71 70 69 68 68 68 68 68 69 69 71 70 70 71 71 70 70 69 69 68 68 68 67 67 65 65 64 63 64 64 65 65 66 66 69 70

GFSSE_sfc_temp_081.txt.gz
Temp
75 80 82 83 83 83 83 83 83 83 82 82 82 83 83 83 83 83 83 83 83 83 83 83 83 83 83 83 83 83 83 83 83 83 83 83 82 82 82 82 82 81 82
78 81 82 83 83 83 83 82 82 82 82 82 82 83 83 83 83 83 83 83 83 83 83 83 83 83 83 83 83 83 83 83 83 84 84 83 83 82 82 82 81 81 82
78 80 81 82 83 83 83 82 82 82 82 82 82 82 82 83 83 83 83 83 83 83 83 83 83 83 83 83 84 83 83 83 83 83 82 77 79 83 82 82 82 82 81
79 80 81 82 83 83 82 82 82 82 82 82 82 82 82 83 83 83 83 83 83 83 83 83 83 83 83 83 83 83 83 83 83 82 76 78 82 82 82 82 81 81 81
78 78 80 82 83 83 82 82 82 83 82 82 82 82 82 83 83 82 83 83 83 83 83 83 83 83 83 83 82 83 82 83 83 80 75 74 75 82 82 81 81 81 81
76 78 82 83 83 83 82 82 82 82 82 82 83 83 83 82 83 83 83 83 83 83 83 83 83 83 83 82 81 82 82 82 83 76 75 76 75 82 82 82 82 81 81
76 79 81 83 83 83 82 82 82 82 82 83 83 83 83 83 83 83 83 83 83 83 83 83 83 83 83 82 82 82 82 83 77 76 75 74 74 81 82 83 82 81 81
77 78 80 82 82 82 83 82 82 83 83 83 83 83 83 83 83 83 83 83 83 83 83 83 83 83 83 82 82 82 82 81 80 76 74 73 76 81 82 82 81 81 81
78 78 77 78 81 83 83 83 83 83 83 83 83 83 83 83 83 83 83 83 82 83 83 83 83 83 83 83 81 82 82 82 75 75 78 74 78 81 82 81 81 81 81
76 76 76 75 76 77 79 83 83 83 83 83 83 83 83 83 83 83 81 82 83 82 83 83 83 82 81 82 82 82 82 82 76 76 76 75 79 81 82 81 81 80 80
73 74 74 74 74 74 75 79 82 83 83 83 83 83 82 76 76 80 80 81 83 83 83 83 83 82 81 81 82 82 83 74 76 76 75 78 79 82 82 81 81 80 80
68 70 72 73 74 73 76 75 75 77 76 76 76 76 74 74 73 76 80 82 83 83 83 83 83 82 81 75 74 79 73 74 78 76 74 79 80 82 82 81 80 80 80
71 70 69 71 73 73 74 73 73 73 73 73 74 73 73 73 73 74 73 74 75 81 77 79 78 76 75 73 73 73 74 74 74 76 78 80 80 82 82 81 80 80 80
70 70 69 70 72 73 73 73 73 72 72 72 72 73 71 71 71 71 72 72 73 73 73 73 73 74 74 74 73 73 74 74 73 74 75 81 80 81 82 81 81 80 80
70 70 68 69 71 71 71 71 72 73 72 72 72 72 72 71 71 71 71 72 72 72 72 72 72 72 72 73 73 73 74 74 76 73 73 81 81 81 81 82 81 81 81
72 70 69 70 70 70 69 70 71 72 72 72 71 72 73 72 71 71 71 71 71 72 72 71 71 71 72 72 72 73 74 74 75 76 74 77 81 81 81 82 81 81 81
74 73 70 71 71 70 70 70 70 71 72 71 72 72 73 72 71 71 71 70 71 71 72 71 71 71 71 71 71 73 72 75 77 77 76 77 77 81 81 81 81 80 81
74 72 72 75 72 70 70 70 71 70 71 71 72 72 73 73 73 71 71 70 71 71 71 71 70 69 69 70 70 71 72 74 75 76 75 75 74 77 80 81 80 81 81
74 73 71 72 71 71 70 70 70 71 70 71 72 72 73 73 74 72 71 71 71 71 71 71 69 70 68 69 70 70 70 71 72 75 76 75 74 75 75 78 80 80 81
74 73 73 72 71 70 70 69 70 69 69 70 71 71 72 71 73 72 70 70 70 69 69 69 69 69 69 69 71 71 69 69 69 70 72 76 74 73 73 73 73 76 80
74 72 72 71 70 69 68 68 67 68 69 69 70 71 72 71 72 72 70 71 70 68 69 69 68 69 68 68 66 66 67 68 69 69 69 70 71 73 72 72 71 71 72
73 72 71 71 70 70 69 68 69 69 69 70 70 71 72 72 72 71 71 70 70 68 68 68 68 67 66 67 65 63 62 65 66 68 68 69 69 70 72 72 71 72 71
73 72 72 72 71 70 69 69 69 69 69 68 69 70 71 72 72 71 71 70 70 69 68 67 68 68 65 66 67 65 60 60 62 65 65 67 68 68 69 70 71 72 72
74 74 73 72 71 71 70 69 68 67 66 67 69 69 70 71 72 71 71 71 70 70 69 68 69 67 66 65 66 67 66 65 61 61 64 64 67 67 67 67 68 70 71
76 74 73 71 70 70 70 70 69 66 66 67 68 69 68 70 71 71 70 70 70 69 70 69 69 68 67 66 65 65 65 65 64 61 60 62 66 66 65 65 66 69 71
76 74 73 71 70 70 70 70 69 68 67 66 67 67 67 68 68 70 70 69 69 69 70 70 69 68 67 67 66 66 65 65 64 63 61 62 63 65 63 64 65 69 69

GFSSE_sfc_temp_084.txt.gz
Temp
74 79 82 83 83 83 83 83 83 83 83 82 83 83 83 83 83 83 83 83 83 83 83 83 83 83 83 84 83 84 83 83 83 83 83 83 82 82 83 82 82 82 81
76 80 82 83 83 83 83 83 83 82 83 82 83 83 83 83 83 83 83 83 83 83 83 83 83 83 83 83 83 83 83 83 83 83 83 83 83 82 82 82 82 83 82
78 80 81 82 83 83 83 82 82 82 83 83 83 83 83 83 83 83 83 83 83 83 83 83 83 83 83 83 83 83 83 83 83 84 83 81 82 83 82 82 82 82 81
79 80 80 82 83 83 82 82 82 83 83 82 82 83 83 83 83 83 84 83 83 83 83 83 83 83 83 84 83 83 83 83 83 82 79 81 83 82 83 82 82 81 81
78 79 80 82 83 83 82 82 82 83 82 82 83 83 83 83 83 83 83 84 83 83 83 84 84 83 83 83 83 83 83 83 82 80 78 79 80 83 82 82 82 82 81
77 78 81 83 83 83 82 82 82 82 82 82 82 82 83 83 83 83 83 83 83 83 83 84 84 83 83 83 83 83 83 83 82 78 78 80 79 82 82 82 82 81 81
77 79 81 82 83 83 83 82 82 82 82 83 83 83 83 83 83 83 83 83 83 82 83 83 83 83 82 82 82 82 82 83 79 78 77 78 79 81 82 82 82 81 81
77 79 80 83 83 83 83 83 83 83 83 83 83 83 82 83 83 83 83 83 83 82 83 83 83 83 83 82 82 82 82 83 82 78 78 77 77 81 82 82 81 81 81
78 78 78 79 81 83 83 83 83 83 83 83 83 83 83 83 83 83 83 83 83 83 83 83 83 83 83 82 82 82 82 81 78 78 80 78 78 81 83 82 81 81 81
76 76 76 75 77 78 80 83 83 83 83 83 83 83 83 83 83 83 82 82 82 83 83 83 83 83 81 82 81 82 82 80 79 79 79 79 78 81 82 81 81 81 81
73 75 74 75 74 75 76 80 82 83 83 83 83 83 82 78 79 82 80 82 83 83 83 83 82 82 81 82 82 82 82 79 80 80 80 78 79 81 83 82 81 81 81
70 72 73 73 73 73 76 76 76 78 78 77 78 77 75 75 75 77 80 82 83 83 83 83 83 82 81 78 78 81 76 79 80 79 79 79 80 81 82 81 81 81 80
71 71 71 72 73 73 74 74 74 74 75 74 75 75 74 74 75 76 75 77 78 82 79 81 81 79 77 76 76 77 77 78 78 79 80 79 80 81 82 81 81 80 80
69 71 70 72 72 72 73 74 74 73 73 73 73 74 73 72 72 73 74 74 75 76 76 76 76 76 76 76 76 76 77 78 78 78 78 80 80 81 82 82 81 81 81
69 69 69 70 72 72 73 72 73 73 73 73 73 73 73 72 72 73 73 74 74 74 74 74 74 74 75 75 76 75 76 77 78 76 78 80 80 80 81 82 81 81 81
72 69 69 70 71 71 72 72 73 73 73 73 72 73 73 72 72 72 72 72 73 74 74 74 74 74 74 74 74 75 76 77 78 78 78 79 81 80 81 82 81 81 81
72 71 69 69 70 70 71 72 72 73 73 72 72 73 73 73 72 73 72 72 73 74 74 74 74 74 73 73 73 75 76 77 78 78 77 78 80 81 81 81 81 81 80
70 69 68 73 70 70 70 70 71 72 73 72 72 72 73 74 73 72 73 72 73 73 73 73 72 71 72 72 72 74 74 75 76 78 76 77 77 81 81 81 80 81 81
71 69 68 70 70 70 69 70 70 71 71 72 73 73 73 74 74 73 72 72 73 72 72 72 72 72 71 72 72 73 72 75 75 77 77 77 78 79 80 79 80 80 81
72 71 70 71 70 70 69 69 70 70 70 71 72 72 73 73 73 73 72 72 71 71 71 72 71 71 71 71 73 74 73 73 73 73 76 78 78 78 78 77 77 79 80
73 71 70 71 70 70 69 69 68 69 69 70 71 72 72 72 72 72 71 71 71 70 71 71 70 69 70 71 69 70 71 72 72 73 74 75 75 77 77 76 75 75 76
72 72 71 71 70 70 70 69 69 69 70 71 71 72 73 73 72 72 72 71 71 69 69 69 69 69 70 69 68 67 67 70 70 71 71 72 74 74 75 76 75 75 75
72 72 72 72 70 70 70 70 69 70 70 69 70 71 72 73 73 72 71 71 71 70 69 68 68 69 67 68 69 68 63 64 66 69 70 71 72 72 73 74 75 75 75
74 74 72 72 71 70 70 70 69 68 67 69 70 71 72 73 72 72 72 72 71 70 69 69 69 69 69 67 68 69 69 69 66 65 68 68 70 71 71 72 72 73 74
75 74 73 71 71 71 70 71 69 67 68 69 69 70 71 71 72 73 71 71 71 70 70 69 69 68 69 68 68 68 68 68 67 65 65 67 68 70 71 71 71 70 74
75 74 72 71 70 70 70 70 69 69 68 68 68 69 69 70 71 72 72 71 71 70 70 69 69 68 68 68 68 69 69 66 65 66 64 65 66 69 69 69 68 70 72

GFSSE_sfc_temp_087.txt.gz
Temp
85 87 82 83 83 83 83 83 83 83 83 83 83 83 83 83 83 83 83 83 83 83 84 84 83 83 84 84 84 84 84 83 83 83 83 83 83 83 83 82 82 88 82
88 89 82 83 83 84 83 83 83 83 83 83 83 83 83 83 83 83 83 83 84 84 84 84 84 83 83 84 84 84 83 83 83 84 84 83 83 83 83 82 84 86 82
88 89 87 83 83 83 83 83 83 83 83 83 83 83 83 83 83 83 84 84 84 83 84 84 84 83 84 83 84 84 83 83 83 83 84 90 88 83 82 83 83 82 82
89 90 89 82 83 83 83 83 83 83 83 83 83 83 83 83 83 84 83 83 83 83 84 83 83 84 84 84 84 83 83 83 83 83 89 90 90 82 83 82 82 82 81
88 90 88 83 83 83 82 82 83 83 83 83 83 83 83 83 83 83 83 84 83 84 84 84 83 83 84 84 83 83 83 82 82 84 87 88 89 85 82 83 82 82 82
87 90 85 83 83 83 82 82 83 83 83 83 83 83 83 83 83 83 83 84 83 83 84 84 84 83 83 83 83 83 83 82 82 87 87 86 88 82 82 82 83 82 81
86 89 88 83 83 83 82 82 82 83 83 83 83 83 83 83 83 84 83 83 83 83 84 84 84 84 83 83 83 83 83 83 88 88 86 87 87 82 82 82 82 81 81
84 88 88 84 83 83 83 83 83 83 83 83 83 84 83 83 83 83 83 83 83 83 83 84 84 83 83 83 83 82 82 83 87 88 87 87 81 81 83 82 82 81 81
86 84 84 86 85 83 83 83 83 83 84 83 83 83 83 83 83 83 83 83 83 83 83 83 83 83 83 83 83 82 82 82 89 89 89 89 79 81 83 82 82 81 81
84 82 80 83 83 82 83 83 83 83 84 83 83 83 83 83 84 83 82 82 83 83 83 83 83 83 82 83 82 82 82 82 91 90 90 91 79 81 82 82 81 81 81
83 84 82 83 82 82 84 85 83 84 84 84 84 84 84 87 85 86 84 82 83 83 83 83 83 83 82 82 82 83 83 92 91 91 91 81 79 81 82 82 81 81 81
81 82 83 82 83 82 84 83 85 86 88 87 87 86 88 86 83 85 85 83 83 83 83 83 83 82 83 89 88 84 90 90 91 90 91 80 80 81 82 82 81 81 81
82 83 82 83 82 83 83 84 83 86 87 86 84 84 85 85 85 86 86 87 86 84 89 87 86 87 87 88 88 88 88 88 91 91 89 80 80 81 82 82 81 81 81
81 82 83 82 81 82 84 84 85 84 84 84 85 83 83 84 83 83 85 85 83 87 85 86 88 86 86 85 86 86 86 89 91 91 89 81 80 81 82 82 81 81 81
79 81 80 81 80 81 81 83 83 81 82 84 84 83 84 83 82 83 84 85 85 86 83 84 84 84 84 84 85 84 86 87 89 90 90 82 80 80 81 82 82 81 81
81 80 81 80 81 81 81 80 81 83 81 81 83 83 81 83 82 83 83 84 85 86 85 85 84 84 84 84 84 84 84 87 88 88 91 91 81 80 80 82 82 82 82
81 80 80 79 81 80 80 81 82 82 83 80 79 81 81 81 81 82 83 79 82 83 83 83 82 83 84 83 82 85 85 86 88 87 88 89 90 81 80 81 81 82 81
81 78 79 81 79 80 80 81 82 84 84 83 81 78 80 80 81 80 83 83 81 81 79 83 83 82 83 82 82 84 85 84 85 86 87 87 89 91 85 81 81 81 81
80 78 77 78 79 79 79 81 81 81 81 82 82 83 78 78 81 81 81 82 80 79 81 79 80 82 81 78 80 83 83 85 86 88 86 86 87 89 91 85 80 80 81
81 79 78 78 78 78 80 79 81 81 82 83 82 81 80 79 75 74 77 77 79 82 78 82 80 80 80 79 80 84 80 85 86 86 87 88 88 88 88 87 87 88 81
80 78 77 77 77 78 78 78 79 79 80 81 83 81 80 81 80 79 75 78 76 76 78 77 78 77 79 79 76 78 80 84 84 85 87 87 87 87 87 87 86 88 88
80 79 77 77 77 77 79 79 80 80 81 82 82 81 81 81 80 79 77 77 77 75 72 70 71 71 76 79 75 76 75 82 83 85 85 84 85 87 87 86 85 84 84
80 79 78 78 78 78 79 79 78 79 79 79 80 81 82 81 80 79 79 78 77 78 80 76 75 70 68 75 76 76 70 75 79 82 80 83 82 84 85 84 83 83 83
82 82 80 79 78 79 78 78 77 77 77 80 80 82 82 82 81 80 78 76 77 78 77 79 73 71 70 67 72 75 77 78 77 77 81 80 79 80 81 84 83 82 82
84 82 81 80 79 79 77 79 79 77 80 82 81 79 80 79 80 80 79 78 77 76 75 75 75 73 69 69 68 74 74 75 77 77 76 81 80 81 83 83 84 83 81
84 83 82 79 78 78 78 78 77 77 78 79 79 80 80 82 82 81 80 77 77 76 74 73 73 71 69 68 70 73 74 74 74 75 75 76 77 82 83 83 80 79 77

GFSSE_sfc_temp_093.txt.gz
Temp
99 93 83 84 84 84 84 84 84 83 83 83 83 83 83 83 83 83 83 83 83 84 84 84 85 84 84 84 84 84 83 84 84 83 83 83 83 83 83 84 85 90 83
100 93 83 83 84 84 84 84 83 83 83 83 83 83 83 83 83 83 83 83 84 84 84 84 85 84 83 84 84 84 84 84 84 84 84 84 83 83 83 85 86 85 83
99 95 90 83 83 84 83 83 83 83 83 83 83 83 83 83 83 84 83 84 84 84 84 84 84 84 84 83 83 84 84 84 84 84 85 94 90 83 84 84 83 83 82
100 96 94 82 83 83 83 83 83 83 83 83 83 83 83 83 83 84 84 84 83 84 84 84 84 84 84 84 84 83 83 83 84 84 91 96 93 83 84 83 83 83 82
100 99 92 83 83 83 83 83 83 83 83 83 84 83 83 83 84 84 84 84 83 84 84 84 84 84 84 84 83 83 83 84 84 86 95 94 93 85 83 83 82 82 83
101 102 85 83 83 83 83 83 83 83 83 83 84 84 84 84 84 83 83 83 84 84 84 83 85 84 84 83 83 83 83 83 83 95 93 92 86 83 83 84 84 82 82
101 96 91 83 83 83 83 83 83 83 83 83 83 84 83 83 83 83 83 83 84 84 84 84 84 84 84 83 83 83 83 83 88 96 93 93 87 83 83 83 83 82 82
100 96 92 84 83 83 83 83 83 83 83 84 84 84 84 83 83 83 83 83 83 84 84 83 84 84 84 84 83 83 83 83 93 96 95 90 81 83 83 83 82 82 81
99 94 91 88 86 83 83 83 83 83 83 83 84 84 83 83 83 83 83 83 83 84 84 84 84 84 84 83 83 83 83 83 89 96 97 92 81 83 83 82 82 82 82
94 89 91 88 88 87 89 83 83 83 83 84 84 84 84 84 84 84 83 82 83 84 84 84 83 83 83 83 83 83 83 84 93 98 97 89 81 83 83 83 82 82 82
95 89 88 87 87 88 88 87 84 84 84 84 85 84 85 91 89 87 86 83 83 84 84 83 84 83 83 83 83 83 83 94 96 99 96 80 81 83 83 82 82 81 81
90 92 91 88 87 86 91 86 88 88 89 89 89 87 84 81 90 90 88 84 84 84 84 84 83 83 84 92 90 85 91 94 100 99 91 81 81 82 82 83 82 81 81
93 92 86 89 86 88 86 86 89 86 90 86 86 84 82 79 80 91 85 88 85 85 88 86 86 89 90 93 95 94 94 99 97 100 88 81 81 82 82 82 82 82 81
93 91 88 87 86 87 90 89 91 90 90 89 87 85 83 81 80 83 81 90 87 87 89 89 91 91 93 93 94 94 87 97 99 97 88 82 81 81 82 82 82 82 81
92 93 85 85 86 84 86 90 90 86 89 86 85 86 87 82 82 85 80 83 89 89 92 90 92 92 90 89 92 92 93 91 95 97 88 83 82 81 81 82 82 82 82
92 92 90 84 86 87 88 88 91 93 84 93 88 86 87 88 87 87 84 87 79 88 93 90 92 92 91 93 90 90 90 92 94 94 95 90 82 81 81 82 82 82 82
93 93 93 89 86 86 87 88 90 86 93 94 92 84 88 87 84 88 90 86 93 89 85 85 84 90 91 91 90 90 90 90 93 93 95 89 88 81 81 81 81 82 82
93 91 91 93 89 87 86 85 89 87 88 89 93 92 84 87 86 86 85 89 90 87 88 87 87 88 86 90 89 91 92 92 91 91 93 91 89 87 82 81 81 81 81
93 90 89 90 89 84 83 88 85 89 89 92 90 94 87 87 88 86 89 83 88 86 86 83 86 79 79 87 89 89 89 91 92 95 92 91 89 93 85 81 81 80 82
94 91 89 89 88 88 87 83 91 92 92 92 91 93 87 87 88 88 89 88 85 83 81 84 84 88 87 81 88 89 88 90 88 91 91 89 85 87 90 85 86 85 81
93 90 87 87 86 87 88 86 88 89 85 86 90 89 86 87 87 85 87 89 84 80 85 82 80 82 83 84 80 85 81 88 88 91 93 89 86 88 86 85 82 84 82
91 89 86 86 85 86 89 88 90 91 92 89 87 88 88 87 87 86 84 79 81 83 79 79 81 77 80 79 77 74 75 84 89 91 88 87 91 92 89 87 87 88 85
91 89 87 86 86 86 88 89 89 91 90 90 90 88 85 86 85 83 84 83 82 83 81 80 79 78 76 78 80 76 73 77 79 82 86 91 92 93 94 91 85 85 85
93 91 89 86 85 86 88 87 85 86 86 89 90 91 87 85 84 85 84 83 82 81 83 84 82 82 80 81 80 83 83 84 72 74 82 81 90 89 89 91 88 85 89
95 93 91 87 85 86 86 88 87 85 89 91 92 89 86 87 87 88 86 84 83 82 78 81 80 78 77 76 76 77 77 80 80 81 73 83 81 85 90 89 87 84 86
97 96 92 87 84 86 86 87 85 84 86 88 88 89 90 90 89 87 87 84 81 82 83 82 78 78 77 77 77 76 77 74 74 71 75 79 81 78 82 91 87 87 83

GFSSE_sfc_temp_096.txt.gz
Temp
89 87 83 83 84 84 84 84 83 83 83 83 83 83 83 83 83 83 83 83 84 84 84 85 85 84 84 83 83 83 84 83 83 84 83 83 83 83 83 84 85 84 82
90 87 83 83 83 84 84 84 83 83 83 83 83 83 83 83 83 83 83 84 83 83 85 85 85 84 84 84 84 83 84 83 83 84 84 84 83 83 84 85 84 83 82
90 88 86 83 83 84 83 83 83 83 83 83 83 83 83 83 84 83 83 84 84 84 83 84 84 84 83 83 84 84 84 84 83 84 85 85 83 84 84 83 83 82 82
92 88 87 82 83 83 83 83 83 83 83 83 83 83 83 83 83 83 84 84 84 84 84 83 84 84 83 83 84 83 83 83 83 84 85 88 87 83 83 83 83 82 82
92 92 86 83 83 83 83 83 83 83 83 83 83 83 83 83 84 84 84 83 84 84 84 83 84 84 84 84 83 83 83 83 84 85 85 84 82 83 83 83 83 82 83
94 94 83 83 83 83 83 83 83 83 83 83 83 84 83 83 84 84 84 83 84 84 84 84 84 84 84 83 83 83 83 83 83 86 84 84 81 83 83 84 83 82 82
95 89 85 83 83 83 83 83 83 83 83 83 83 84 84 84 83 83 83 83 84 84 83 84 85 84 83 83 83 83 83 84 85 87 85 83 81 82 83 83 83 82 82
91 89 85 83 83 83 83 83 83 83 83 84 83 84 83 83 83 83 83 83 84 84 84 83 83 84 83 83 83 83 83 83 88 85 85 83 80 82 83 83 82 82 82
91 88 85 85 84 83 83 83 83 83 84 84 84 83 83 83 83 83 83 83 84 84 84 83 84 84 84 83 83 83 83 84 84 87 87 81 80 82 83 82 82 81 81
91 87 85 84 84 83 84 83 83 83 84 84 84 84 83 83 84 83 82 82 83 84 84 83 84 83 83 83 83 83 83 84 85 88 86 82 81 83 82 82 82 82 81
90 87 85 84 83 83 83 84 83 83 84 84 84 84 84 84 84 83 83 83 83 84 84 83 83 83 83 83 83 83 83 84 90 89 85 80 81 83 83 82 82 81 81
85 86 87 85 85 84 88 83 83 84 84 84 83 83 82 83 83 85 85 83 84 84 83 83 83 83 83 84 83 83 83 86 88 86 83 80 81 82 83 82 81 81 81
85 87 85 85 83 85 84 84 85 84 83 82 81 79 80 79 83 85 79 83 82 83 83 83 83 83 83 84 85 84 85 86 87 87 83 81 81 82 82 82 82 81 81
87 86 86 85 83 83 81 84 86 85 83 82 80 79 79 78 77 79 77 83 79 81 81 81 82 82 84 85 86 85 85 85 87 85 81 81 81 82 82 82 82 81 81
87 85 85 85 82 82 81 81 85 85 85 85 83 80 78 76 76 78 78 81 78 82 81 81 81 82 81 85 85 87 84 85 87 84 81 82 81 81 82 82 82 82 81
90 85 85 84 83 82 82 80 82 85 84 84 79 83 81 79 77 78 77 80 80 82 81 78 80 81 82 83 83 86 85 85 87 87 84 82 81 81 81 82 82 82 82
89 86 85 84 85 82 82 83 84 83 85 85 81 80 81 81 78 78 81 81 78 80 83 81 83 83 81 84 84 83 83 84 85 86 86 82 82 81 81 81 81 81 81
89 86 85 88 84 83 82 84 86 86 87 81 85 81 83 81 81 80 79 78 81 79 80 79 81 81 81 79 80 81 81 82 82 83 85 85 83 85 81 81 80 81 81
88 86 84 84 83 83 83 85 84 85 85 83 85 85 83 83 83 81 78 81 82 79 79 78 78 78 78 77 81 81 81 82 83 88 84 84 85 83 83 82 81 80 82
89 87 86 86 82 83 84 83 84 85 84 83 82 84 81 83 83 81 82 79 79 78 77 79 78 78 77 78 83 83 79 81 81 81 83 87 85 84 83 83 79 81 81
89 86 84 84 82 82 82 81 81 81 83 83 83 84 80 82 83 81 83 80 81 78 77 78 76 77 75 76 74 76 76 82 83 82 83 84 83 83 83 82 81 81 82
87 85 84 83 82 82 83 81 83 84 86 85 85 85 82 82 82 83 81 82 80 78 77 78 77 75 75 76 74 71 69 74 80 83 83 83 83 83 85 84 82 80 81
87 85 83 83 82 83 83 83 82 84 84 83 82 83 84 83 82 81 81 80 79 79 77 77 76 76 74 74 75 70 67 66 74 80 81 82 81 82 83 83 83 83 81
89 88 84 83 82 83 83 83 81 81 81 84 84 83 83 83 83 81 79 80 79 80 77 78 78 77 75 74 74 76 75 74 69 68 75 75 74 74 83 82 83 82 81
91 88 86 83 83 82 83 83 82 81 84 85 85 83 81 81 82 83 80 78 77 77 77 76 77 76 75 73 72 72 73 72 73 69 67 69 73 78 81 81 81 81 82
92 90 88 83 81 82 82 83 81 80 81 83 82 83 83 83 82 82 81 79 78 78 76 76 76 76 75 74 72 72 71 71 70 69 68 71 71 72 78 76 79 80 79

GFSSE_sfc_temp_099.txt.gz
Temp
79 81 83 83 83 83 83 83 83 83 83 83 83 83 83 83 83 83 83 83 83 84 84 84 84 84 83 83 83 84 83 83 82 82 84 83 83 83 83 83 83 82 82
81 81 82 83 83 83 83 83 83 83 83 83 83 83 83 83 83 83 83 84 84 84 84 84 84 84 83 83 83 84 83 83 83 84 84 84 84 84 83 84 83 82 82
81 81 82 83 83 83 83 83 83 83 83 83 83 83 83 83 83 83 84 84 83 84 84 84 83 84 83 83 83 84 83 83 83 84 83 80 82 83 83 83 83 82 82
82 81 81 82 83 83 83 83 83 83 83 83 83 83 83 83 83 83 84 84 84 83 83 84 84 83 83 83 83 83 83 83 82 84 81 82 84 83 83 83 82 82 82
81 81 81 83 83 83 83 82 83 83 83 83 83 83 83 83 83 84 84 83 83 84 83 83 84 83 83 83 83 83 82 83 84 84 81 78 78 83 83 83 82 82 82
83 81 82 83 83 83 83 83 83 83 83 83 83 83 83 83 84 84 83 83 84 83 83 83 84 84 83 83 83 83 83 83 84 81 80 80 79 83 83 83 83 82 81
83 81 81 83 83 83 83 83 83 83 83 83 83 83 83 84 84 83 83 83 83 83 83 84 84 84 83 83 83 82 82 83 82 81 80 79 79 82 83 82 82 82 81
81 80 81 83 82 82 83 83 83 83 83 83 83 84 84 83 83 83 83 83 83 83 82 84 84 83 83 83 82 82 83 83 85 82 80 79 80 82 83 82 82 81 81
82 80 80 80 82 83 83 83 83 83 83 83 83 83 83 83 83 83 83 83 83 83 83 83 84 83 83 83 83 83 83 83 79 80 82 78 80 82 83 82 81 81 81
81 80 79 79 79 79 80 83 83 83 83 83 83 83 83 83 83 83 82 82 83 83 83 83 83 83 83 83 83 83 83 83 78 79 81 79 80 82 82 82 81 81 81
80 79 79 78 78 77 77 81 82 83 84 84 83 84 82 78 79 81 81 82 84 83 84 83 83 83 82 83 83 83 83 78 79 79 79 80 81 82 82 82 81 81 81
76 77 79 78 78 78 82 78 76 79 77 77 77 77 76 76 76 80 81 83 84 84 83 83 83 83 83 78 77 82 78 80 77 84 80 80 81 82 82 81 81 81 81
79 79 79 79 78 79 80 78 77 75 76 75 76 75 75 75 75 77 75 80 77 82 78 80 80 79 78 77 78 77 80 81 81 83 82 81 81 82 82 81 81 81 81
79 79 79 80 79 79 76 77 78 77 76 76 76 76 75 74 74 73 74 75 74 74 74 76 76 76 76 79 80 79 81 81 79 80 78 81 81 82 82 82 81 81 81
79 80 79 80 79 80 76 78 79 78 77 78 77 77 76 74 73 74 74 75 74 74 73 75 75 76 75 78 80 81 80 81 83 77 78 82 81 81 82 82 81 81 81
81 79 80 79 79 79 78 76 78 79 78 76 76 78 76 76 74 73 74 75 76 75 75 74 74 74 75 77 80 79 80 80 82 80 81 80 81 81 81 82 82 82 81
81 81 80 79 79 78 78 77 78 77 80 78 77 76 76 75 75 73 74 75 76 75 74 74 74 76 80 79 78 81 80 80 81 80 79 79 79 81 81 81 81 81 81
81 80 80 82 79 78 78 79 79 79 79 77 78 77 77 76 75 74 75 73 76 74 74 74 74 75 77 78 75 76 77 79 79 80 79 79 78 80 80 81 81 81 81
81 80 79 80 78 78 78 79 78 77 80 77 79 78 77 77 78 75 74 75 74 73 73 73 73 73 72 72 75 78 76 76 78 84 80 80 79 80 79 81 81 80 81
81 80 80 80 78 78 78 77 78 76 76 76 76 80 76 76 78 77 75 74 74 73 73 73 73 73 72 72 77 78 74 79 80 79 79 84 79 80 80 80 78 80 81
81 80 79 78 78 78 78 76 78 76 74 74 77 79 78 76 77 75 76 74 74 73 73 74 72 72 71 72 70 69 70 73 77 76 77 78 80 80 78 78 79 78 79
82 79 79 78 78 78 79 79 78 78 74 78 78 80 78 77 76 76 74 73 73 73 72 73 73 71 71 71 69 67 64 68 73 77 75 78 77 79 79 79 78 77 77
81 80 79 78 78 79 79 79 74 74 75 77 77 76 77 78 77 75 76 74 74 74 74 72 73 71 69 70 72 68 64 63 66 72 76 78 78 75 75 75 79 80 77
81 82 81 79 78 79 78 78 77 78 77 80 80 79 76 78 78 77 76 74 73 73 72 73 73 71 70 68 70 73 71 69 65 64 69 71 72 72 74 74 74 78 79
83 81 81 80 78 79 79 79 78 78 79 74 79 76 77 77 78 78 75 73 72 73 73 72 71 72 71 69 68 68 69 68 68 66 64 67 70 71 72 71 72 76 78
83 82 81 79 78 79 79 77 78 78 75 76 73 76 76 78 76 76 76 74 73 73 72 73 72 72 70 71 70 69 68 67 66 66 65 67 66 69 71 72 72 75 75

GFSSE_sfc_temp_102.txt.gz
Temp
77 80 83 83 83 83 83 83 83 83 83 83 83 83 83 83 83 83 83 83 83 84 83 83 83 84 84 84 84 84 83 83 83 83 83 83 83 83 82 83 82 81 82
79 81 82 83 83 83 83 83 83 83 83 83 83 83 83 83 83 83 83 83 84 84 84 84 84 84 83 83 84 82 83 83 83 83 84 84 83 83 83 83 82 82 82
79 81 82 82 83 83 83 83 83 83 83 83 83 83 83 83 83 83 83 84 84 84 84 84 83 83 83 83 83 83 83 83 83 83 83 78 81 83 83 83 82 82 82
80 80 81 82 83 83 83 83 83 83 83 83 83 83 83 83 83 84 84 83 83 84 84 84 84 83 82 83 83 83 83 83 83 83 79 81 83 83 83 83 82 81 81
79 79 80 82 83 83 83 82 83 83 83 83 83 83 83 83 83 84 84 84 84 83 84 84 84 83 83 83 83 83 82 83 84 82 77 76 77 83 83 82 82 82 81
78 79 82 83 83 83 83 82 83 83 83 83 83 83 83 83 84 84 83 83 84 83 83 84 84 84 83 83 83 83 82 83 83 79 78 78 77 83 83 82 83 82 81
78 79 81 83 83 83 83 83 83 83 83 83 83 83 83 84 84 83 83 84 83 83 83 83 84 84 83 83 83 82 81 83 79 78 78 77 78 82 82 82 82 81 81
78 79 80 82 82 82 83 83 83 83 83 83 83 83 83 83 83 83 83 83 83 83 83 83 84 84 83 83 81 81 83 83 82 79 77 77 79 82 82 81 81 81 81
79 79 79 80 82 83 83 83 83 83 83 83 83 83 83 83 83 83 83 83 83 83 83 83 83 83 83 82 82 82 83 83 77 79 80 76 80 82 82 82 81 81 81
78 78 77 78 79 79 80 83 83 83 83 83 84 83 83 83 83 83 81 82 83 83 83 83 83 83 82 82 83 82 82 83 77 77 79 76 80 82 82 81 81 81 81
77 77 77 76 75 75 76 81 82 83 83 84 83 83 82 77 79 81 81 83 83 83 83 83 83 83 82 82 83 83 83 76 77 77 77 79 80 82 82 81 81 81 81
74 74 76 76 75 76 80 77 76 78 77 76 77 77 75 75 75 78 80 83 84 84 83 83 83 82 82 76 76 81 74 79 78 78 78 79 80 82 82 81 81 81 81
75 75 75 76 75 76 77 74 74 74 75 74 74 73 74 74 74 75 74 78 76 81 78 80 79 77 76 75 75 75 79 77 78 78 80 80 80 82 82 81 81 80 81
74 75 75 76 75 76 76 75 74 74 74 73 74 73 73 73 72 73 73 73 73 73 73 74 74 74 74 76 76 76 78 80 77 79 78 81 80 81 82 81 81 81 81
74 76 75 76 76 76 75 75 74 74 75 75 74 75 74 72 71 73 74 74 72 71 71 72 72 73 73 74 76 76 77 78 79 77 77 82 81 81 81 82 81 81 81
76 76 76 76 77 77 76 74 75 75 75 74 74 76 75 75 72 74 73 74 72 72 70 72 71 71 71 73 74 77 78 78 81 76 78 79 81 80 81 81 82 81 81
77 77 76 77 78 77 76 76 76 76 76 75 75 74 74 73 73 72 74 74 75 73 71 71 72 72 72 74 74 76 76 78 79 79 77 76 77 81 80 81 80 81 81
79 77 77 80 77 76 76 76 77 75 77 76 75 75 75 74 74 71 73 73 74 72 72 71 71 71 72 72 72 74 77 77 77 77 77 77 77 79 80 81 81 80 81
79 77 77 78 76 77 77 77 77 74 76 77 77 76 75 75 76 73 72 74 72 72 72 72 71 71 70 70 73 73 73 74 76 80 77 77 76 78 77 79 80 81 81
79 79 77 77 76 77 77 76 76 74 75 76 76 76 74 75 76 74 73 72 72 71 71 71 71 71 71 71 76 76 73 73 74 74 76 79 76 78 77 77 77 81 81
79 78 77 76 76 76 76 74 75 74 74 74 76 77 75 74 74 74 74 72 72 72 72 72 71 70 70 70 69 68 69 71 73 74 75 75 76 77 77 77 76 77 79
78 77 77 76 76 76 77 77 77 77 72 76 76 76 76 76 74 74 73 71 71 71 71 71 70 69 69 70 68 65 64 67 70 74 73 75 75 74 77 78 77 76 76
77 77 77 77 76 77 78 78 71 72 71 71 71 74 76 77 76 75 74 72 72 72 73 71 71 70 68 69 70 67 63 62 67 69 72 74 74 72 74 74 77 77 75
78 79 78 77 76 77 77 77 75 76 75 78 76 72 74 76 76 75 75 74 72 72 70 72 72 71 69 67 68 70 69 69 65 63 67 69 70 71 71 72 72 74 75
81 79 78 77 77 77 77 78 76 76 77 73 72 71 73 74 76 76 75 73 72 72 72 71 70 70 70 67 67 67 67 67 67 65 63 66 69 70 70 71 71 70 73
80 79 78 76 76 77 76 77 76 76 74 70 74 72 73 75 75 75 75 74 72 72 72 72 71 71 70 70 69 69 68 67 66 65 65 66 66 68 69 70 70 71 72

GFSSE_sfc_temp_105.txt.gz
Temp
74 79 82 83 83 83 83 83 83 83 83 83 83 83 83 83 83 83 83 83 83 84 84 84 84 84 84 84 83 84 84 83 83 83 83 82 82 82 82 82 82 81 82
78 80 82 83 83 83 83 83 83 83 83 83 83 83 83 83 83 83 83 83 84 83 84 84 84 84 84 84 83 83 84 83 83 84 84 83 83 82 82 82 81 80 81
78 80 81 82 83 83 83 83 83 83 83 83 83 83 83 83 83 83 83 84 84 83 84 84 84 84 84 83 83 84 83 83 83 83 83 78 79 83 82 82 82 82 82
79 79 80 82 83 83 83 82 83 83 83 83 83 83 83 83 83 84 84 84 84 84 84 83 84 84 83 83 83 83 83 83 83 83 78 79 82 83 83 82 82 82 81
78 79 80 82 83 83 83 82 83 83 83 83 83 83 83 83 84 84 84 84 84 84 84 84 84 83 83 83 83 83 83 83 83 80 76 75 76 82 82 82 81 81 81
77 78 81 83 83 83 83 82 83 83 83 83 83 83 83 84 84 84 84 83 83 84 84 84 84 83 83 83 83 83 83 83 83 77 76 77 76 82 82 82 82 81 81
76 78 81 83 83 83 83 83 83 83 83 83 83 83 83 84 84 83 83 84 83 83 84 84 84 84 83 83 82 83 83 83 79 76 76 75 75 81 82 82 82 81 81
76 79 80 82 83 83 83 83 83 83 83 83 83 83 83 83 83 83 83 83 83 83 83 83 84 83 83 83 83 82 82 84 80 77 76 74 77 81 82 82 81 81 81
78 78 79 80 82 83 83 83 83 83 83 83 83 83 83 83 83 83 83 83 83 83 83 83 84 83 83 82 82 82 83 82 76 75 78 74 79 81 82 81 81 81 81
77 77 77 77 78 79 80 83 83 83 83 83 83 83 83 84 84 84 82 82 83 83 83 83 83 83 82 82 82 83 83 82 76 75 77 75 79 82 82 81 81 81 80
75 76 76 76 75 76 77 80 82 83 84 84 83 84 82 77 79 81 81 83 83 83 83 83 83 82 82 82 82 82 82 76 76 76 76 79 79 82 82 81 81 81 81
72 74 76 75 74 74 79 77 77 78 78 77 77 77 75 75 75 78 81 83 84 83 83 83 83 82 81 75 75 80 74 76 75 76 76 79 80 82 82 81 81 81 81
74 74 74 74 74 75 77 74 75 74 74 73 74 74 74 73 74 75 74 77 76 82 77 79 78 76 75 74 74 74 76 78 76 77 79 80 80 81 82 81 81 81 81
73 74 74 74 74 74 75 74 74 74 74 72 72 73 73 72 72 72 72 73 73 74 74 74 73 74 73 74 74 75 78 78 76 76 76 80 80 81 82 82 81 80 81
72 74 74 74 74 74 73 74 73 73 73 73 72 72 73 72 71 72 72 72 72 71 72 72 72 72 72 73 74 74 75 76 77 74 74 82 80 80 81 82 81 81 81
74 74 74 74 74 74 73 73 73 73 73 72 72 73 73 72 71 72 72 72 71 70 70 71 71 71 71 72 73 74 75 76 77 76 77 79 81 80 80 81 82 81 81
75 75 74 74 75 74 73 73 73 73 73 73 72 72 73 72 71 72 72 72 72 70 70 69 70 70 70 71 71 73 75 76 77 76 76 78 78 81 81 81 81 81 81
76 74 75 77 75 74 74 73 74 73 73 73 73 73 74 73 72 71 71 72 72 71 70 68 68 69 69 69 69 71 73 74 76 76 76 76 76 78 80 81 81 80 81
77 75 74 75 74 74 74 74 74 73 73 74 73 74 73 74 74 72 71 71 71 71 71 70 69 69 68 68 70 71 72 72 74 78 75 75 74 76 76 79 80 80 81
78 76 75 75 75 75 75 74 74 73 74 73 73 74 73 74 74 72 72 71 71 70 70 70 70 70 69 69 74 74 71 71 72 71 74 77 74 75 76 75 75 79 81
78 76 75 74 74 75 74 72 72 72 72 71 73 74 73 74 74 73 73 71 71 71 71 71 70 69 68 68 68 68 68 70 72 72 72 73 74 75 74 75 75 75 78
76 76 75 75 75 75 76 76 75 75 74 74 74 73 74 74 73 74 73 71 71 71 70 70 70 68 69 69 66 65 64 67 69 72 72 73 73 73 75 76 76 75 76
76 75 75 75 75 75 76 76 71 71 70 70 71 73 74 74 73 74 73 73 72 71 70 70 69 69 66 68 69 66 61 61 64 70 70 71 73 71 73 73 75 75 74
76 76 76 76 76 76 76 75 74 73 73 75 74 75 75 75 75 74 73 72 71 73 70 71 72 70 69 67 66 68 67 67 63 62 67 68 69 70 70 70 72 73 74
77 76 75 75 76 75 74 75 75 74 76 77 70 72 73 73 74 75 73 72 71 71 71 70 70 70 69 67 67 66 67 66 65 64 63 66 68 69 69 70 70 70 72
74 76 75 74 74 75 75 74 73 74 74 70 72 71 72 72 73 74 74 72 72 72 71 71 71 70 70 69 67 67 66 65 65 64 64 65 66 68 68 69 70 70 70

GFSSE_sfc_temp_108.txt.gz
Temp
73 78 82 83 83 83 83 83 83 83 83 83 83 83 83 83 83 83 83 83 83 84 84 84 84 84 84 84 84 84 84 82 83 83 83 82 82 82 82 82 82 83 82
77 80 82 83 83 83 83 83 83 83 83 83 83 83 83 83 83 83 83 84 84 84 84 84 84 84 84 84 84 84 83 83 83 84 84 83 83 82 82 82 81 82 82
78 80 81 82 83 83 83 83 83 83 83 83 83 83 83 83 83 83 83 84 84 84 84 84 84 84 84 83 84 84 83 83 83 84 83 81 82 82 82 82 82 82 82
79 79 80 82 82 83 82 82 82 83 83 83 83 83 83 83 83 84 84 84 84 84 84 84 84 84 84 83 83 83 83 83 83 82 81 82 84 82 82 82 82 82 81
78 79 80 82 82 83 82 82 82 83 83 83 83 83 83 83 84 84 84 84 84 84 84 84 84 84 83 83 83 83 83 83 82 80 78 79 81 83 82 82 82 82 81
77 78 81 82 83 83 82 82 82 83 83 83 83 83 83 84 84 84 84 84 84 84 84 84 84 84 83 83 83 83 83 83 82 79 78 81 80 82 82 82 82 81 81
76 78 81 82 83 83 82 83 82 83 83 83 83 84 84 84 84 84 84 84 84 84 84 84 85 84 83 83 83 82 83 83 80 79 78 79 79 82 82 82 82 81 81
76 78 80 82 82 82 83 83 83 83 83 83 84 84 84 83 83 83 84 84 83 84 84 84 84 84 83 83 83 82 83 83 82 79 79 78 78 81 82 82 81 81 81
78 78 79 80 82 83 83 83 83 83 84 83 83 83 83 83 83 83 83 83 83 83 83 83 84 83 83 83 82 82 82 81 78 78 80 78 79 81 82 82 81 81 81
77 77 77 78 79 79 80 83 83 83 84 84 84 84 83 83 84 83 82 81 83 84 83 83 84 83 83 82 82 82 83 81 79 79 80 79 79 81 82 81 81 81 81
75 75 76 76 75 76 77 80 82 83 84 84 83 84 83 79 81 82 81 83 83 83 84 84 83 82 82 82 82 83 83 79 79 79 80 79 79 82 82 81 81 81 80
74 76 77 75 75 75 78 77 77 78 79 77 79 79 76 76 77 79 81 83 84 84 84 83 83 82 82 79 80 82 77 79 78 79 80 79 80 81 82 81 81 81 81
74 77 78 76 74 75 77 74 76 74 75 75 75 75 75 75 76 77 76 79 78 82 80 80 80 79 77 77 77 78 78 79 80 80 81 79 80 81 82 81 81 81 81
72 75 78 77 75 75 76 75 76 75 74 73 74 74 74 73 74 74 74 76 75 76 76 77 77 76 76 77 77 77 78 79 79 79 79 80 80 81 82 82 81 81 81
72 73 76 75 75 76 75 75 75 75 74 74 73 74 74 73 73 73 73 74 74 74 75 75 75 75 75 75 77 76 78 78 79 79 78 81 80 80 81 82 82 81 81
73 73 75 74 74 75 75 75 75 75 74 74 73 74 74 73 72 73 73 73 73 73 73 74 74 74 74 75 75 76 77 78 79 78 79 81 81 80 81 82 82 81 82
74 74 73 73 74 73 73 75 75 74 74 74 74 73 73 73 73 73 73 73 74 73 72 72 73 73 73 74 74 75 76 77 79 79 79 80 82 81 81 81 81 81 81
75 73 73 75 74 73 73 74 74 73 74 74 74 74 74 74 73 73 73 73 74 73 72 71 71 72 72 73 73 74 75 76 77 78 79 79 80 82 81 81 81 81 81
75 73 72 74 73 73 73 73 73 73 73 73 74 74 74 74 74 73 73 74 73 73 72 71 70 71 71 71 73 74 75 75 76 80 78 78 78 80 80 80 80 80 81
75 74 73 74 73 73 73 72 72 71 73 73 73 74 73 75 74 73 73 72 73 72 72 72 71 71 72 72 75 76 75 76 76 76 78 80 78 79 79 79 79 82 80
75 73 73 72 72 73 72 71 71 70 72 71 73 74 73 74 74 73 74 72 72 72 72 72 72 72 71 72 71 71 72 74 75 76 77 77 77 78 78 79 78 79 81
75 74 73 73 73 73 73 73 73 73 73 73 73 74 74 74 74 74 73 72 72 72 72 72 72 71 70 69 68 68 68 72 74 76 76 77 77 77 79 79 78 78 79
75 74 73 73 73 73 73 73 72 72 71 71 71 72 73 74 74 74 73 73 72 72 71 72 72 72 70 69 70 68 64 66 68 74 74 75 77 76 77 77 78 78 77
75 76 74 74 73 73 74 72 72 71 71 73 73 74 73 74 74 74 73 73 72 73 72 73 72 72 70 68 70 71 71 71 67 67 72 72 73 73 74 76 76 77 78
76 75 75 74 74 74 74 74 72 72 73 73 74 72 72 73 74 74 74 73 72 72 72 72 71 70 71 70 69 69 70 69 69 68 67 71 73 73 74 72 75 75 76
76 76 76 74 73 74 74 73 73 72 72 70 71 71 72 73 74 74 74 73 73 72 72 72 72 72 71 72 70 69 70 68 69 67 66 68 68 72 73 73 74 74 75

GFSSE_sfc_temp_111.txt.gz
Temp
86 89 82 83 83 83 83 84 83 83 83 82 82 82 83 83 83 83 83 83 84 84 84 84 85 84 84 84 84 84 84 84 84 83 83 83 83 83 83 83 84 89 82
89 89 82 83 83 83 83 83 83 83 83 82 82 83 83 83 83 83 83 84 84 84 84 84 85 84 84 84 84 84 84 83 83 84 84 83 83 82 82 82 84 85 83
88 89 87 83 83 83 83 83 83 83 83 83 83 83 83 83 83 83 83 84 84 84 84 84 84 84 84 84 84 84 83 83 83 83 84 90 89 82 82 82 82 82 82
89 90 89 82 83 83 83 83 83 83 83 83 83 83 83 83 83 84 84 84 84 84 84 84 84 84 84 84 83 83 83 83 83 83 90 91 90 83 83 82 82 82 81
88 91 89 82 83 83 83 83 83 83 83 83 83 83 83 83 84 84 84 84 84 84 84 84 84 84 84 83 83 83 83 83 82 86 88 89 90 84 83 82 82 82 83
88 91 85 83 83 83 83 83 83 83 83 83 83 83 84 84 84 84 84 84 84 84 84 85 85 84 84 83 83 83 83 83 83 89 88 86 89 82 82 83 82 82 81
87 90 88 83 83 83 82 83 83 83 83 83 83 84 83 84 84 84 84 84 84 84 84 84 84 84 84 83 83 83 83 83 89 89 87 88 88 82 83 82 82 82 81
87 89 88 83 83 83 83 83 83 83 83 83 83 83 83 83 83 83 84 84 84 84 83 84 84 84 84 83 83 83 83 83 87 88 88 88 81 82 82 82 82 81 81
88 87 87 87 85 83 83 83 83 83 83 83 83 83 83 83 83 84 83 83 84 84 83 83 84 83 83 83 83 83 83 82 89 90 89 89 79 82 82 82 81 81 81
85 86 85 86 86 86 87 83 83 83 83 83 84 83 84 84 84 84 82 83 83 83 82 84 83 83 83 83 83 82 83 82 90 90 90 90 79 81 82 82 81 81 81
83 84 84 85 84 84 85 85 83 83 84 84 84 84 84 87 87 86 84 83 84 83 83 83 83 83 83 83 82 83 83 92 91 91 92 80 80 81 83 82 81 81 81
80 82 83 84 84 84 86 84 85 87 87 87 85 86 84 84 86 87 85 83 84 83 83 84 83 83 83 89 88 84 91 90 90 91 92 80 80 81 82 82 81 81 81
82 82 80 82 83 84 85 85 86 87 86 85 83 83 84 84 82 82 82 86 86 83 87 86 86 88 87 88 89 89 89 89 92 92 90 80 80 81 82 82 81 81 81
81 82 82 81 80 83 85 85 85 86 85 85 84 82 83 84 82 80 82 85 84 82 83 86 87 86 86 86 87 87 87 89 91 92 90 81 80 81 82 82 81 81 81
80 81 82 81 80 81 81 84 84 84 85 86 84 83 85 84 83 83 83 84 85 85 84 81 84 84 83 85 86 86 88 88 89 90 90 83 80 80 82 82 82 81 81
80 81 82 79 79 81 81 81 82 84 85 85 86 85 83 84 83 84 83 84 84 85 86 83 84 83 83 85 84 85 86 87 88 87 92 91 81 80 81 82 82 82 82
81 82 81 78 78 78 79 81 82 84 85 84 85 83 82 83 82 83 84 84 85 84 82 81 82 82 83 83 83 85 86 86 88 87 90 90 90 80 80 81 81 81 81
81 79 81 80 76 77 78 80 80 83 83 85 85 85 82 82 82 82 83 84 85 83 83 83 82 82 83 84 83 85 86 86 86 87 89 89 91 92 84 81 81 80 81
81 79 79 80 78 78 79 80 80 80 81 83 85 84 82 82 82 83 84 85 82 84 83 83 82 81 82 82 84 85 85 86 87 90 88 88 88 89 92 85 80 80 81
82 81 80 80 80 79 80 79 81 81 82 81 81 84 82 83 82 82 83 83 82 81 82 81 80 81 81 82 84 85 85 87 88 88 88 90 90 89 89 88 89 89 81
82 80 79 78 78 79 79 77 77 76 80 82 83 82 82 82 82 81 83 81 81 82 82 80 81 79 81 82 80 82 83 85 86 88 89 90 89 89 88 88 88 90 91
81 80 79 78 78 78 80 80 81 81 82 83 83 82 82 82 82 82 82 82 81 82 80 80 79 81 82 82 80 81 78 83 86 88 89 88 88 90 90 87 87 86 88
82 80 79 79 79 79 80 80 80 81 81 79 80 81 82 82 81 81 81 82 81 82 83 80 80 79 77 77 78 75 71 73 82 87 85 87 87 89 89 89 87 87 86
83 82 80 79 79 79 79 79 77 79 78 81 81 82 82 81 81 81 81 81 80 82 81 81 82 81 77 78 76 78 77 79 73 78 84 85 84 83 84 87 88 87 87
84 83 82 79 79 79 78 79 79 79 82 83 82 80 79 81 81 82 81 81 80 81 81 80 80 79 82 80 75 77 76 75 78 75 77 82 86 87 87 87 88 88 87
82 83 82 79 78 79 79 79 78 78 80 81 80 80 82 83 82 81 82 81 80 81 80 80 80 79 77 79 79 77 78 79 77 76 76 78 79 83 86 88 88 88 86

GFSSE_sfc_temp_114.txt.gz
Temp
95 93 83 84 83 84 84 83 83 83 83 82 82 82 83 83 83 83 83 84 84 84 85 85 85 84 84 84 84 84 84 84 84 84 83 83 83 83 83 84 85 91 82
98 94 82 83 84 84 84 83 83 83 83 83 83 83 83 83 83 84 84 84 84 85 85 85 85 84 84 84 84 84 84 84 84 84 84 84 84 83 83 85 85 87 83
97 95 91 83 84 84 84 83 83 83 83 83 83 83 83 83 84 84 84 84 84 85 85 85 85 84 84 84 84 84 84 84 84 84 85 95 91 83 83 83 82 82 82
98 96 94 82 83 83 83 83 83 83 83 83 83 83 83 83 84 84 84 84 84 85 85 85 85 84 84 84 84 84 84 84 84 84 95 97 94 83 83 83 83 82 82
97 99 92 83 83 83 83 83 83 83 83 83 83 84 84 84 84 84 84 84 84 84 85 85 85 84 84 84 83 83 83 83 83 88 95 95 94 85 83 82 82 82 84
98 100 85 83 83 83 83 83 83 83 83 83 84 84 84 84 84 85 85 84 84 84 85 85 85 84 84 84 83 83 83 83 83 95 93 91 94 83 83 84 83 82 82
98 99 91 83 83 83 83 83 83 83 83 83 84 84 84 84 84 84 84 84 84 84 84 85 85 84 84 83 83 83 83 83 94 95 94 94 90 82 83 83 82 82 82
97 98 92 84 83 83 83 83 83 83 84 84 84 84 84 84 84 84 84 83 84 84 84 84 84 84 84 84 83 83 83 84 92 94 94 94 82 82 83 82 82 82 81
98 96 92 90 87 83 83 83 83 84 84 84 84 84 84 83 84 84 83 83 84 84 83 84 84 84 84 83 83 83 83 83 95 97 96 95 80 82 83 82 82 82 81
94 95 92 90 89 89 89 83 83 83 84 84 84 83 83 84 84 84 82 82 83 84 84 84 84 84 83 83 83 83 83 83 97 97 97 92 81 82 83 82 82 82 82
92 93 91 91 89 89 89 88 84 84 84 84 85 84 84 92 89 86 85 83 83 83 83 84 84 83 83 83 83 83 83 99 98 99 100 80 81 82 82 82 82 81 81
89 92 93 91 90 89 93 86 87 89 91 86 85 87 86 92 91 89 87 83 84 83 82 83 83 83 84 94 91 85 94 97 98 98 98 80 81 82 83 82 81 81 81
90 92 91 91 90 91 92 88 91 92 87 87 86 84 89 85 83 83 88 89 87 83 87 88 88 89 92 96 96 95 96 96 100 100 89 80 80 82 82 82 81 81 81
90 91 92 91 88 89 92 89 92 94 93 92 85 86 82 86 81 84 87 91 89 84 82 90 92 92 92 92 94 93 94 96 99 100 93 81 80 81 82 82 82 81 81
88 89 88 88 86 87 88 92 92 92 93 93 88 88 88 86 84 84 83 89 90 85 83 86 91 88 89 90 91 91 93 94 95 97 98 82 81 80 82 82 82 82 82
89 89 90 85 84 87 88 88 89 91 93 93 93 91 88 88 85 84 81 85 89 91 85 85 88 88 89 91 90 91 91 93 94 94 96 96 81 80 81 82 82 82 82
90 90 89 87 84 86 86 88 89 92 93 93 93 90 88 88 87 88 87 89 88 89 88 88 84 89 89 90 89 91 92 92 94 93 94 97 92 80 80 81 81 82 82
90 88 89 90 84 83 86 88 90 92 92 93 93 93 86 88 88 87 91 90 92 89 89 88 88 89 89 89 88 89 91 92 92 92 94 95 97 99 83 81 80 81 82
89 87 86 87 82 84 85 88 88 88 90 92 93 93 88 88 89 89 91 91 89 91 90 90 89 88 87 88 89 90 91 92 93 95 93 94 94 95 98 83 80 80 82
90 88 86 87 84 82 84 84 89 89 89 92 92 93 89 88 87 87 91 89 88 90 90 90 87 88 88 89 91 91 91 93 94 94 93 96 96 95 95 93 93 91 80
90 87 85 84 83 82 84 83 86 86 88 89 87 88 88 88 88 86 90 85 82 88 88 86 86 84 86 88 87 87 89 91 91 93 95 96 95 96 94 95 94 95 95
90 86 85 84 84 84 86 87 89 88 89 90 90 88 88 87 87 87 86 88 84 82 82 81 84 87 87 88 84 86 83 88 92 93 94 95 94 96 96 95 93 91 92
89 85 84 83 84 84 86 88 87 88 88 88 88 88 88 87 87 85 86 86 87 86 81 83 81 83 87 88 86 86 82 81 88 92 91 93 92 95 96 95 93 92 90
90 89 84 83 83 84 85 86 83 85 84 88 88 89 89 86 86 86 85 85 84 83 82 85 87 82 80 78 82 85 83 81 69 73 86 90 91 88 89 92 94 93 91
90 91 86 82 80 82 82 84 86 83 88 89 90 87 85 86 86 88 86 85 85 84 83 84 83 81 80 79 78 79 79 83 79 76 79 83 89 94 95 94 94 95 94
88 89 87 82 81 80 81 82 82 84 85 88 86 88 88 89 88 86 87 86 86 86 84 83 84 83 84 83 80 78 81 78 76 76 75 80 86 91 94 93 93 94 95

GFSSE_sfc_temp_117.txt.gz
Temp
91 92 83 84 84 84 84 84 83 83 83 82 82 82 83 83 83 83 83 84 84 85 85 85 85 85 85 85 85 85 84 84 83 84 84 84 83 83 83 84 85 89 83
97 94 83 83 84 84 83 83 83 83 83 83 82 83 83 83 83 84 84 84 85 85 85 85 85 85 84 84 84 84 84 84 84 84 84 84 84 83 84 85 85 86 82
98 95 91 83 84 84 83 83 83 83 83 83 83 83 83 83 84 84 84 84 85 85 85 85 85 85 84 84 84 84 84 84 84 84 85 93 89 83 83 84 83 83 83
99 96 94 82 83 83 83 83 83 83 83 83 83 83 83 83 84 84 85 85 85 85 85 85 85 85 84 84 84 84 84 84 84 85 91 96 93 83 83 83 83 83 82
99 100 92 83 83 83 83 83 83 83 83 83 83 83 83 84 84 85 85 85 85 85 85 85 85 84 84 84 84 84 84 84 84 86 96 92 92 85 83 83 82 82 84
101 101 85 83 84 84 83 83 83 83 83 83 84 84 84 84 84 84 84 84 84 85 85 85 85 84 84 83 83 83 83 83 83 96 94 92 90 83 83 84 83 83 82
102 97 91 83 83 83 83 83 83 83 83 83 84 84 84 84 84 85 85 84 84 84 85 85 85 85 84 84 83 83 83 84 89 96 95 92 87 83 83 83 82 82 82
102 97 92 84 83 83 83 83 83 83 84 84 84 84 84 84 84 84 84 84 84 84 85 85 84 84 84 84 83 83 83 83 93 96 96 91 82 82 83 82 82 82 82
103 96 92 91 87 84 84 84 83 84 84 84 84 84 84 84 84 84 84 84 84 84 84 84 84 84 84 83 83 83 84 84 89 96 98 92 81 83 83 82 82 82 82
99 96 92 90 90 89 89 83 83 84 84 84 84 84 84 85 85 84 83 83 84 84 84 84 84 84 84 83 83 83 84 84 94 97 97 90 82 83 83 82 82 82 82
98 95 93 91 89 89 89 88 84 84 85 84 85 85 85 89 87 88 86 83 83 83 84 84 84 83 83 83 83 83 83 92 100 100 95 81 82 83 83 82 82 82 82
94 95 95 92 91 90 94 87 89 90 91 88 87 88 91 89 87 90 88 84 83 83 83 83 84 83 84 93 91 85 89 92 100 99 92 81 82 82 83 82 82 82 82
94 96 95 93 92 91 92 90 89 89 87 81 85 85 90 88 85 80 85 87 81 84 87 87 87 90 91 94 96 95 91 97 95 96 87 81 82 82 83 83 82 82 82
94 95 95 94 91 86 93 91 92 92 92 85 89 83 84 87 87 80 82 86 82 87 86 88 92 91 93 93 96 95 95 96 98 95 88 82 81 82 83 83 82 82 81
92 94 94 92 90 89 91 91 92 95 96 85 84 82 82 81 83 83 83 87 88 86 84 83 87 90 89 91 91 90 91 96 94 98 90 82 81 81 82 83 83 82 82
93 93 95 92 91 90 90 88 91 94 96 96 90 91 82 89 83 86 84 89 91 86 84 83 86 89 87 91 89 93 93 96 96 87 89 81 81 81 81 82 83 83 82
94 94 94 91 92 88 88 90 92 95 95 95 92 87 87 84 83 85 85 86 89 90 84 82 84 86 84 91 90 91 92 94 96 90 93 92 88 81 81 81 82 82 82
95 91 93 93 90 87 87 89 92 95 94 96 96 94 88 87 83 84 80 86 91 88 89 89 88 88 86 89 89 91 91 93 93 93 94 95 85 89 80 81 81 81 81
94 91 90 91 88 86 89 90 90 91 93 95 97 97 89 88 85 90 92 85 91 91 90 90 90 88 88 89 90 90 91 92 93 97 93 94 91 96 86 81 80 81 82
94 92 90 91 89 85 89 89 91 93 93 95 95 95 87 89 86 87 92 89 90 91 92 91 88 91 90 90 91 92 90 92 93 94 95 97 95 95 92 90 84 88 81
94 89 84 84 87 86 87 87 89 89 91 92 94 93 92 90 89 87 91 85 88 88 89 89 89 86 87 89 88 89 91 92 92 94 96 96 93 92 94 96 95 96 94
94 89 85 83 86 84 87 88 90 91 92 92 93 92 91 90 89 89 87 88 86 81 81 86 84 87 87 89 85 86 83 87 92 93 93 94 95 97 96 95 94 93 93
93 91 83 85 85 85 86 89 88 91 91 90 91 90 89 90 89 88 88 88 84 82 82 80 76 74 86 88 86 86 82 82 87 85 87 92 92 95 95 86 92 93 92
93 94 84 82 84 84 86 87 84 86 86 90 90 92 91 89 89 88 87 87 85 87 82 83 81 78 79 80 86 88 86 86 82 82 89 83 76 91 91 93 94 94 94
95 94 88 87 85 84 82 84 87 85 90 92 92 88 87 88 88 89 87 86 85 87 86 84 83 81 83 78 77 78 81 83 82 80 74 80 85 91 87 87 91 94 88
93 94 89 83 84 84 83 82 81 83 86 89 89 91 91 91 89 87 89 86 86 86 85 86 84 82 82 82 82 81 80 78 78 80 79 82 82 88 92 84 91 87 91

GFSSE_sfc_temp_120.txt.gz
Temp
80 85 81 84 84 83 83 83 83 83 82 83 83 83 83 83 83 83 83 84 84 84 84 85 84 84 84 84 84 84 84 83 83 84 84 83 83 82 83 84 85 84 82
88 88 82 84 84 84 83 83 83 83 83 83 83 83 83 83 83 83 84 84 84 84 85 85 84 84 84 84 84 84 84 83 83 84 84 84 84 84 83 84 84 83 82
91 89 86 83 83 83 83 83 83 83 83 83 83 83 83 83 84 84 84 84 84 85 85 85 85 84 84 84 84 84 84 83 83 83 85 85 83 84 84 83 83 83 82
93 90 88 83 83 83 83 83 83 83 83 83 83 83 83 83 84 84 84 84 84 85 85 85 85 84 84 84 83 83 83 84 84 83 87 88 87 83 83 83 83 82 82
92 93 87 83 83 83 83 83 83 83 83 83 83 83 83 84 84 85 85 85 84 85 85 85 85 84 84 84 83 83 84 84 84 85 85 83 81 83 83 83 82 82 83
95 92 84 83 83 83 83 83 83 83 83 83 83 84 84 84 84 84 84 84 84 85 85 85 84 84 84 83 83 83 83 83 83 84 85 85 81 83 83 83 83 83 82
94 89 86 83 83 83 83 83 83 83 83 83 83 84 84 84 84 84 84 84 84 84 85 85 85 84 84 83 83 83 83 84 85 86 85 83 80 82 83 83 83 82 82
91 90 86 83 83 83 83 83 83 83 83 84 84 84 84 84 84 84 84 84 84 84 85 85 84 84 84 83 83 83 83 84 88 88 87 82 81 82 83 82 82 82 82
93 89 87 86 84 84 83 83 83 83 84 84 84 84 84 84 84 84 84 84 84 84 84 84 84 84 83 83 83 83 83 84 84 86 86 82 81 82 82 82 82 82 82
91 88 86 85 85 84 85 83 83 83 84 84 84 84 84 84 84 84 83 83 84 84 84 84 84 84 83 83 83 83 83 84 84 89 86 82 81 83 83 82 82 82 82
91 88 87 85 84 84 84 85 83 84 84 85 85 85 84 85 85 85 84 83 84 84 84 84 84 83 83 83 83 83 83 84 89 89 85 80 82 83 83 82 82 82 82
88 89 88 86 86 85 89 83 84 85 85 84 83 83 84 85 82 86 86 84 84 83 84 83 83 83 83 85 83 83 83 85 87 85 82 81 82 83 83 82 82 82 82
91 91 88 86 85 87 87 84 86 86 86 80 81 81 83 80 79 84 81 83 81 83 82 83 83 83 83 85 86 85 87 85 83 87 83 81 81 82 82 82 81 81 82
92 91 90 87 84 85 85 86 86 86 86 82 82 80 79 78 75 79 78 81 79 81 79 80 83 83 84 85 85 87 88 87 83 86 81 82 81 82 83 82 81 81 81
90 91 89 87 84 84 83 86 86 85 86 84 82 83 83 81 81 76 80 79 78 77 79 77 78 82 82 84 86 85 88 88 89 84 81 82 81 81 82 82 82 82 81
90 91 91 87 84 84 83 82 85 85 77 83 84 82 81 79 80 80 80 79 78 78 80 80 79 79 81 83 84 83 85 87 89 85 85 81 81 81 81 82 82 82 82
91 92 90 88 86 85 84 84 86 88 85 85 85 82 80 81 77 79 80 80 78 78 79 80 80 79 80 84 82 82 85 86 88 86 85 81 81 81 81 81 82 82 82
91 89 90 92 87 86 85 85 87 87 89 87 86 84 80 80 81 79 81 81 82 79 80 78 79 78 79 79 80 81 82 83 85 86 87 85 84 84 81 81 81 81 81
91 88 89 88 87 85 84 86 86 86 88 88 89 87 82 81 82 81 80 81 80 83 82 80 78 80 79 79 81 81 81 82 84 91 86 86 85 84 83 80 81 81 82
88 87 88 86 84 84 84 83 86 87 87 89 88 87 83 84 83 81 83 80 81 82 81 82 80 81 81 81 87 85 81 82 83 83 85 89 86 86 84 82 80 82 81
92 87 84 83 81 82 82 81 82 83 85 87 88 87 84 84 84 82 83 82 82 81 81 80 80 80 80 81 78 78 79 83 84 84 85 85 86 87 86 82 83 82 84
90 87 84 83 83 82 83 83 84 85 87 87 88 86 84 84 83 83 82 82 82 82 81 80 80 78 79 80 76 76 73 77 83 85 84 85 85 86 86 86 84 84 84
93 88 84 83 82 82 83 84 83 85 84 83 85 86 86 85 84 83 82 82 81 79 79 78 78 78 78 79 79 75 71 71 76 81 81 83 81 78 80 85 85 85 83
93 94 85 82 80 82 81 82 80 81 81 85 85 86 86 85 84 84 82 81 81 82 79 78 78 76 74 72 77 81 78 78 69 71 78 78 75 77 76 80 85 85 83
92 90 87 83 82 82 80 79 78 80 83 85 86 83 83 82 83 85 83 82 80 82 80 79 78 76 76 73 73 75 76 78 77 72 71 75 74 74 77 82 82 78 80
92 92 90 83 82 82 81 80 78 78 76 78 83 83 83 84 83 83 84 82 82 81 80 80 79 78 77 77 75 74 77 74 75 74 72 73 75 78 82 81 77 74 74

GFSSE_sfc_temp_123.txt.gz
Temp
77 79 83 83 83 83 83 83 83 83 83 83 83 83 83 83 83 83 84 84 83 83 84 84 84 84 84 84 84 84 84 83 84 84 84 83 83 83 83 83 83 83 83
79 80 82 83 83 83 83 83 82 83 83 83 83 83 83 83 83 84 84 84 84 84 84 84 84 83 84 84 84 84 84 83 84 84 84 84 84 83 83 84 83 83 83
81 81 83 83 83 83 83 82 83 82 83 83 83 83 83 83 84 84 84 84 84 84 84 84 84 84 84 84 84 84 84 83 83 82 84 81 82 84 83 83 83 82 82
83 80 81 82 83 83 83 83 83 83 83 83 83 83 84 84 84 84 84 84 84 84 84 84 84 84 84 83 83 83 83 82 83 85 82 83 84 83 83 83 82 82 82
82 82 81 83 83 83 83 83 83 83 83 83 83 83 84 84 84 84 84 84 84 84 84 84 84 84 84 83 83 83 83 83 84 84 81 77 77 83 83 83 83 83 82
84 82 83 83 83 83 83 83 83 83 83 83 83 84 84 84 84 84 84 84 84 84 84 84 84 84 84 83 83 82 83 83 84 81 80 80 77 83 83 83 83 82 81
81 81 82 83 83 83 83 83 83 83 83 83 83 84 84 84 84 84 84 84 84 84 84 84 84 84 83 83 83 82 83 83 82 81 79 78 78 82 83 83 82 82 81
81 81 82 83 83 83 83 83 83 83 83 83 84 84 84 84 83 84 84 83 84 84 84 84 84 84 83 83 83 83 83 84 84 82 81 78 80 82 82 82 82 81 81
83 81 80 81 83 84 83 83 83 83 84 83 84 83 84 84 84 84 83 83 84 84 84 83 84 83 83 83 83 83 83 84 78 80 82 78 80 82 82 82 82 82 81
81 80 79 79 80 80 81 83 83 83 84 84 84 84 84 84 84 84 82 83 84 84 84 84 84 83 83 83 83 83 83 83 79 80 81 78 80 82 82 82 81 81 81
81 80 79 79 78 78 78 82 83 84 84 84 84 84 83 78 80 82 82 83 84 84 84 84 83 83 83 83 83 83 83 78 80 83 80 80 81 82 82 82 81 81 81
78 79 79 79 79 79 83 79 77 80 79 77 78 78 77 77 76 81 82 84 84 84 84 83 83 83 83 78 77 82 78 79 79 80 80 80 81 82 82 81 81 81 81
80 80 79 80 80 80 81 78 78 77 76 75 77 76 77 76 75 76 75 79 77 82 79 81 80 79 79 78 79 78 80 79 79 81 81 81 81 82 82 81 81 81 81
80 81 81 80 80 80 79 78 79 79 78 77 76 76 75 73 73 73 74 75 75 75 75 76 77 77 77 79 81 80 81 81 79 78 78 80 81 81 82 81 81 81 81
81 81 80 81 79 78 79 79 80 79 78 78 77 78 77 73 73 73 75 75 75 74 74 73 75 76 75 79 81 81 81 83 83 78 77 82 81 81 82 82 81 81 81
83 81 82 80 80 77 79 76 80 79 76 77 77 79 78 77 76 75 75 75 76 75 76 74 74 75 75 78 80 81 80 81 83 81 79 80 81 81 81 82 82 81 81
84 83 82 81 81 77 79 77 77 81 80 77 79 78 80 77 76 77 76 75 74 75 76 75 75 75 75 78 78 81 80 82 83 82 80 79 79 81 81 81 81 81 81
83 83 83 85 81 77 77 79 78 78 80 81 80 78 79 78 77 76 77 75 76 75 78 75 74 74 75 75 76 76 78 79 81 83 81 79 80 81 81 81 81 81 81
80 81 82 82 81 80 77 76 78 78 78 82 81 79 78 79 78 78 79 77 75 77 75 76 72 74 74 74 76 75 75 76 78 85 82 81 81 80 78 80 80 80 81
83 84 83 83 83 82 78 76 77 77 77 78 81 79 78 78 79 79 77 75 75 75 75 73 73 74 74 76 81 80 75 76 77 77 79 86 79 82 80 79 79 80 81
84 83 83 80 81 81 78 77 73 78 75 77 77 79 78 79 79 78 78 75 76 78 77 77 77 73 75 75 75 71 73 76 78 79 78 78 80 82 81 79 78 79 80
83 81 78 79 80 81 81 79 80 79 77 77 78 77 80 79 79 79 78 76 76 78 77 74 76 75 75 74 70 68 66 70 77 80 79 81 78 80 84 81 81 81 79
81 80 79 79 80 78 79 76 74 75 75 76 79 76 78 80 79 79 78 76 75 75 76 73 74 72 71 72 73 70 63 63 67 73 78 79 78 76 78 79 81 81 80
83 82 79 81 80 80 78 76 75 77 76 80 81 84 77 80 79 78 78 77 75 77 77 75 75 73 71 69 70 75 72 69 64 65 71 72 72 74 75 75 79 79 80
84 80 78 76 75 75 75 74 74 73 77 80 76 78 80 79 80 80 78 78 77 76 76 73 72 72 74 70 70 70 68 69 70 66 65 69 71 73 73 74 75 77 76
83 83 80 76 75 75 75 74 72 71 72 72 79 77 81 82 80 80 80 78 79 78 74 75 74 73 74 72 73 70 72 69 69 67 66 67 68 72 73 75 75 71 72